[[{"header":{"parameterUnit":"m.s-1","parameterCategory":1,"la1":30.6,"la2":29.2853,"lo1":-89.7004,"lo2":-87.6739,"dy":0.0162,"dx":0.0183,"nx":112,"ny":82,"refTime":"2023-04-15T06:00:00:Z","depth":0,"parameterNumber":2,"parameterNumberName":"U-component_of_WINDS"},"data":[0.0,0.0,0.0,0.0,0.0,0.0,0.0,0.0,0.0,0.0,0.0,0.0,0.0,0.0,0.0,0.0,0.0,0.0,0.0,0.0,0.0,0.0,0.0,0.0,0.0,0.0,0.0,0.0,0.0,0.0,0.0,0.0,0.0,0.0,0.0,0.0,0.0,0.0,0.0,0.0,0.0,0.0,0.0,0.0,0.0,0.0,0.0,0.0,0.0,0.0,0.0,0.0,0.0,0.0,0.0,0.0,0.0,0.0,0.0,0.0,0.0,0.0,0.0,0.0,0.0,0.0,0.0,0.0,0.0,0.0,0.0,0.0,0.0,0.0,0.0,0.0,0.0,0.0,0.0,0.0,0.0,0.0,0.0,0.0,0.0,0.0,0.0,0.0,0.0,0.0,0.0,2.3428,2.6021,2.791,2.8262,2.6929,2.4916,2.2266,0.0,0.0,0.0,0.0,0.0,0.0,0.0,0.0,0.0,0.0,0.0,0.0,0.0,0.0,0.0,0.0,0.0,0.0,0.0,0.0,0.0,0.0,0.0,0.0,0.0,0.0,0.0,0.0,0.0,0.0,0.0,0.0,0.0,0.0,0.0,0.0,0.0,0.0,0.0,0.0,0.0,0.0,0.0,0.0,0.0,0.0,0.0,0.0,0.0,0.0,0.0,0.0,0.0,0.0,0.0,0.0,0.0,0.0,0.0,0.0,0.0,0.0,0.0,0.0,0.0,0.0,0.0,0.0,0.0,0.0,0.0,0.0,0.0,0.0,0.0,0.0,0.0,0.0,0.0,0.0,0.0,0.0,0.0,0.0,0.0,0.0,0.0,0.0,0.0,0.0,0.0,0.0,0.0,0.0,0.0,0.0,0.0,0.0,0.0,0.0,0.0,0.0,0.0,0.0,2.4361,2.5722,2.724,2.8223,2.8281,2.7408,2.5517,2.235,0.0,0.0,0.0,0.0,0.0,0.0,0.0,0.0,0.0,0.0,0.0,0.0,0.0,0.0,0.0,0.0,0.0,0.0,0.0,0.0,0.0,0.0,0.0,0.0,0.0,0.0,0.0,0.0,0.0,0.0,0.0,0.0,0.0,0.0,0.0,0.0,0.0,0.0,0.0,0.0,0.0,0.0,0.0,0.0,0.0,0.0,0.0,0.0,0.0,0.0,0.0,0.0,0.0,0.0,0.0,0.0,0.0,0.0,0.0,0.0,0.0,0.0,0.0,0.0,0.0,0.0,0.0,0.0,0.0,0.0,0.0,0.0,0.0,0.0,0.0,0.0,0.0,0.0,0.0,0.0,0.0,0.0,0.0,0.0,0.0,0.0,0.0,0.0,0.0,0.0,0.0,0.0,0.0,0.0,0.0,0.0,0.0,0.0,0.0,0.0,0.0,0.0,0.0,2.3683,2.4127,2.6443,2.7246,2.7695,2.793,2.7168,2.5271,2.1911,2.0783,0.0,0.0,0.0,0.0,0.0,0.0,0.0,0.0,0.0,0.0,0.0,0.0,0.0,0.0,0.0,0.0,0.0,0.0,0.0,0.0,0.0,0.0,0.0,0.0,0.0,0.0,0.0,0.0,0.0,0.0,0.0,0.0,0.0,0.0,0.0,0.0,0.0,0.0,0.0,0.0,0.0,0.0,0.0,0.0,0.0,0.0,0.0,0.0,0.0,0.0,0.0,0.0,0.0,0.0,0.0,0.0,0.0,0.0,0.0,0.0,0.0,0.0,0.0,0.0,0.0,0.0,0.0,0.0,0.0,0.0,0.0,0.0,0.0,0.0,0.0,0.0,0.0,0.0,0.0,0.0,0.0,0.0,0.0,0.0,0.0,0.0,0.0,0.0,0.0,0.0,0.0,0.0,0.0,0.0,0.0,0.0,0.0,0.0,0.0,0.0,0.0,0.0,2.4127,2.4428,2.6754,2.7109,2.7305,2.7637,2.668,2.4763,2.1624,2.0795,0.0,0.0,0.0,0.0,0.0,0.0,0.0,0.0,0.0,0.0,0.0,0.0,0.0,0.0,0.0,0.0,0.0,0.0,0.0,0.0,0.0,0.0,0.0,0.0,0.0,0.0,0.0,0.0,0.0,0.0,0.0,0.0,0.0,0.0,0.0,0.0,0.0,0.0,0.0,0.0,0.0,0.0,0.0,0.0,0.0,0.0,0.0,0.0,0.0,0.0,0.0,0.0,0.0,0.0,0.0,0.0,0.0,0.0,0.0,0.0,0.0,0.0,0.0,0.0,0.0,0.0,0.0,0.0,0.0,0.0,0.0,0.0,0.0,0.0,0.0,0.0,0.0,0.0,0.0,0.0,0.0,0.0,0.0,0.0,0.0,0.0,0.0,0.0,0.0,0.0,0.0,0.0,0.0,0.0,0.0,0.0,0.0,0.0,0.0,0.0,0.0,0.0,2.5061,2.5898,2.6914,2.7383,2.7637,2.7676,2.6133,2.4125,2.159,2.0235,0.0,0.0,0.0,0.0,0.0,0.0,0.0,0.0,0.0,0.0,0.0,0.0,0.0,0.0,0.0,0.0,0.0,0.0,0.0,0.0,0.0,0.0,0.0,0.0,0.0,0.0,0.0,0.0,0.0,0.0,0.0,0.0,0.0,0.0,0.0,0.0,0.0,0.0,0.0,0.0,0.0,0.0,0.0,0.0,0.0,0.0,0.0,0.0,0.0,0.0,0.0,0.0,0.0,0.0,0.0,0.0,0.0,0.0,0.0,0.0,0.0,0.0,0.0,0.0,0.0,0.0,0.0,0.0,0.0,0.0,0.0,0.0,0.0,0.0,0.0,0.0,0.0,0.0,0.0,0.0,0.0,0.0,0.0,0.0,0.0,0.0,0.0,0.0,0.0,0.0,0.0,0.0,0.0,0.0,0.0,0.0,0.0,0.0,0.0,0.0,0.0,0.0,2.4707,2.5352,0.0,2.6523,2.6465,2.6465,2.5605,2.3843,2.0741,0.0,0.0,0.0,0.0,0.0,0.0,0.0,0.0,0.0,0.0,0.0,0.0,0.0,0.0,0.0,0.0,0.0,0.0,0.0,0.0,0.0,0.0,0.0,0.0,0.0,0.0,0.0,0.0,0.0,0.0,0.0,0.0,0.0,0.0,0.0,0.0,0.0,0.0,0.0,0.0,0.0,0.0,0.0,0.0,0.0,0.0,0.0,0.0,0.0,0.0,0.0,0.0,0.0,0.0,0.0,0.0,0.0,0.0,0.0,0.0,0.0,0.0,0.0,0.0,0.0,0.0,0.0,0.0,0.0,0.0,0.0,0.0,0.0,0.0,0.0,0.0,0.0,0.0,0.0,0.0,0.0,0.0,0.0,0.0,0.0,0.0,0.0,0.0,0.0,0.0,0.0,0.0,0.0,0.0,0.0,0.0,0.0,0.0,0.0,0.0,0.0,0.0,2.4316,2.4531,2.5078,0.0,2.6113,2.5879,2.5742,2.4679,2.2962,2.0245,0.0,0.0,0.0,0.0,0.0,0.0,0.0,0.0,0.0,0.0,0.0,0.0,0.0,0.0,0.0,0.0,0.0,0.0,0.0,0.0,0.0,0.0,0.0,0.0,0.0,0.0,0.0,0.0,0.0,0.0,0.0,0.0,0.0,0.0,0.0,0.0,0.0,0.0,0.0,0.0,0.0,0.0,0.0,0.0,0.0,0.0,0.0,0.0,0.0,0.0,0.0,0.0,0.0,0.0,0.0,0.0,0.0,0.0,0.0,0.0,0.0,0.0,0.0,0.0,0.0,0.0,0.0,0.0,0.0,0.0,0.0,0.0,0.0,0.0,0.0,0.0,0.0,0.0,0.0,0.0,0.0,0.0,0.0,0.0,0.0,0.0,0.0,0.0,0.0,0.0,0.0,0.0,0.0,0.0,0.0,0.0,0.0,0.0,0.0,0.0,0.0,0.0,2.4316,2.4805,2.541,2.6289,2.6387,2.6211,2.5762,2.3392,2.1454,0.0,0.0,0.0,0.0,0.0,0.0,0.0,0.0,0.0,0.0,0.0,0.0,0.0,0.0,0.0,0.0,0.0,0.0,0.0,0.0,0.0,0.0,0.0,0.0,0.0,0.0,0.0,0.0,0.0,0.0,0.0,0.0,0.0,0.0,0.0,0.0,0.0,0.0,0.0,0.0,0.0,0.0,0.0,0.0,0.0,0.0,0.0,0.0,0.0,0.0,0.0,0.0,0.0,0.0,0.0,0.0,0.0,0.0,0.0,0.0,0.0,0.0,0.0,0.0,0.0,0.0,0.0,0.0,0.0,0.0,0.0,0.0,0.0,0.0,0.0,0.0,0.0,0.0,0.0,0.0,0.0,0.0,0.0,0.0,0.0,0.0,0.0,0.0,0.0,0.0,0.0,0.0,0.0,0.0,0.0,0.0,0.0,0.0,0.0,0.0,0.0,0.0,0.0,2.4316,2.4531,2.4941,2.584,2.5937,2.5625,2.4863,2.3317,2.1631,1.977,0.0,0.0,0.0,0.0,0.0,0.0,0.0,0.0,0.0,0.0,0.0,0.0,0.0,0.0,0.0,0.0,0.0,0.0,0.0,0.0,0.0,0.0,0.0,0.0,0.0,0.0,0.0,0.0,0.0,0.0,0.0,0.0,0.0,0.0,0.0,0.0,0.0,0.0,0.0,0.0,0.0,0.0,0.0,0.0,0.0,0.0,0.0,0.0,0.0,0.0,0.0,0.0,0.0,0.0,0.0,0.0,0.0,0.0,0.0,0.0,0.0,0.0,0.0,0.0,0.0,0.0,0.0,0.0,0.0,0.0,0.0,0.0,0.0,0.0,0.0,0.0,0.0,0.0,0.0,0.0,0.0,0.0,0.0,0.0,0.0,0.0,0.0,0.0,0.0,0.0,0.0,0.0,0.0,0.0,0.0,0.0,0.0,0.0,0.0,0.0,0.0,0.0,2.4316,2.4414,2.4746,2.5644,2.5586,2.5176,2.4473,2.2647,2.095,1.9621,0.0,0.0,0.0,0.0,0.0,0.0,0.0,0.0,0.0,0.0,0.0,0.0,0.0,0.0,0.0,0.0,0.0,0.0,0.0,0.0,0.0,0.0,0.0,0.0,0.0,0.0,0.0,0.0,0.0,0.0,0.0,0.0,0.0,0.0,0.0,0.0,0.0,0.0,0.0,0.0,0.0,0.0,0.0,0.0,0.0,0.0,0.0,0.0,0.0,0.0,0.0,0.0,0.0,0.0,0.0,0.0,0.0,0.0,0.0,0.0,0.0,0.0,0.0,0.0,0.0,0.0,0.0,0.0,0.0,0.0,0.0,0.0,0.0,0.0,0.0,0.0,0.0,0.0,0.0,0.0,0.0,0.0,0.0,0.0,0.0,0.0,0.0,0.0,0.0,0.0,0.0,0.0,0.0,0.0,0.0,0.0,0.0,0.0,0.0,0.0,0.0,0.0,2.4113,2.4137,2.4446,2.5392,2.5006,2.4581,2.421,2.1538,1.9783,1.933,0.0,0.0,0.0,0.0,0.0,0.0,0.0,0.0,0.0,0.0,0.0,0.0,0.0,0.0,0.0,0.0,0.0,0.0,0.0,0.0,0.0,0.0,0.0,0.0,0.0,0.0,0.0,0.0,0.0,0.0,0.0,0.0,0.0,0.0,0.0,0.0,0.0,0.0,0.0,0.0,0.0,0.0,0.0,0.0,0.0,0.0,0.0,0.0,0.0,0.0,0.0,0.0,0.0,0.0,0.0,0.0,0.0,0.0,0.0,0.0,3.3169,0.0,0.0,0.0,0.0,0.0,0.0,0.0,0.0,0.0,0.0,0.0,0.0,0.0,0.0,0.0,0.0,0.0,0.0,0.0,0.0,0.0,0.0,0.0,0.0,0.0,0.0,0.0,0.0,0.0,0.0,0.0,0.0,0.0,0.0,0.0,0.0,0.0,0.0,0.0,0.0,0.0,2.2683,2.202,2.2005,2.3468,2.2638,2.211,2.2483,2.0185,1.8486,1.8071,1.6669,0.0,0.0,0.0,0.0,0.0,0.0,0.0,0.0,0.0,0.0,0.0,0.0,0.0,0.0,0.0,0.0,0.0,0.0,0.0,0.0,0.0,0.0,0.0,0.0,0.0,0.0,0.0,0.0,0.0,0.0,0.0,0.0,0.0,0.0,0.0,0.0,0.0,0.0,0.0,0.0,0.0,0.0,0.0,0.0,0.0,0.0,0.0,0.0,0.0,0.0,0.0,0.0,0.0,0.0,0.0,0.0,0.0,0.0,0.0,0.0,3.3972,0.0,0.0,0.0,0.0,0.0,0.0,0.0,0.0,0.0,0.0,0.0,0.0,0.0,0.0,0.0,0.0,0.0,0.0,0.0,0.0,0.0,0.0,0.0,0.0,0.0,0.0,0.0,0.0,0.0,0.0,0.0,0.0,0.0,0.0,0.0,0.0,0.0,0.0,0.0,0.0,2.1441,2.0897,2.0808,2.2028,2.1286,2.0819,2.1102,1.9239,1.7958,1.7699,1.648,0.0,0.0,0.0,0.0,0.0,0.0,0.0,0.0,0.0,0.0,0.0,0.0,0.0,0.0,0.0,0.0,0.0,0.0,0.0,0.0,0.0,0.0,0.0,0.0,0.0,0.0,0.0,0.0,0.0,0.0,0.0,0.0,0.0,0.0,0.0,0.0,0.0,0.0,0.0,0.0,0.0,0.0,0.0,0.0,0.0,0.0,0.0,0.0,0.0,0.0,0.0,0.0,0.0,0.0,3.7914,3.7914,3.8366,3.8642,3.8642,3.7287,3.5855,3.45,0.0,0.0,0.0,0.0,0.0,0.0,0.0,0.0,0.0,0.0,0.0,0.0,0.0,0.0,0.0,0.0,0.0,0.0,0.0,0.0,0.0,0.0,0.0,0.0,0.0,2.5449,2.4531,0.0,0.0,0.0,0.0,0.0,0.0,0.0,0.0,0.0,0.0,0.0,0.0,2.0101,1.9749,1.9781,2.0557,1.991,1.9539,1.9662,1.8287,1.7404,1.7404,1.6386,1.5832,0.0,0.0,0.0,0.0,0.0,0.0,0.0,0.0,0.0,0.0,0.0,0.0,0.0,0.0,0.0,0.0,0.0,0.0,0.0,0.0,0.0,0.0,0.0,0.0,0.0,0.0,0.0,0.0,0.0,0.0,0.0,0.0,4.0487,4.1055,0.0,0.0,0.0,0.0,0.0,0.0,0.0,0.0,0.0,0.0,0.0,0.0,0.0,0.0,3.6734,3.8341,3.9145,3.917,4.0249,4.0802,4.0802,4.0877,4.1153,4.1605,4.1379,0.0,3.6684,3.5805,0.0,0.0,0.0,0.0,0.0,0.0,0.0,0.0,0.0,0.0,0.0,0.0,0.0,0.0,0.0,0.0,0.0,0.0,0.0,0.0,0.0,0.0,2.5684,2.5801,2.5684,2.5449,0.0,2.4263,2.3381,2.2592,2.1733,0.0,0.0,0.0,0.0,0.0,0.0,0.0,1.8369,1.7437,1.7244,1.8378,1.7452,1.7117,1.7961,1.6777,1.6008,1.6008,1.5927,1.5832,1.5832,1.5792,0.0,0.0,0.0,0.0,0.0,0.0,0.0,0.0,0.0,0.0,0.0,0.0,0.0,0.0,0.0,0.0,0.0,0.0,0.0,0.0,0.0,0.0,0.0,0.0,0.0,0.0,0.0,0.0,0.0,4.0995,4.1893,4.1444,4.2043,4.1953,0.0,0.0,0.0,0.0,0.0,0.0,0.0,0.0,0.0,3.701,3.814,3.8969,3.9521,4.0852,4.1706,4.2007,4.2811,4.3363,4.3689,4.3991,4.4267,4.4468,4.4166,4.3011,4.1178,3.8843,3.7312,3.6358,0.0,0.0,0.0,0.0,3.2841,3.1495,3.0622,3.0164,0.0,0.0,0.0,0.0,0.0,0.0,0.0,0.0,0.0,0.0,0.0,0.0,0.0,2.6758,2.6641,2.6465,2.6523,2.5859,2.4412,0.0,2.1019,2.0424,1.8751,0.0,0.0,0.0,0.0,1.6838,1.7218,1.6758,1.6522,1.7274,1.6758,1.6346,1.6602,1.6103,1.5832,1.5832,1.5832,1.5832,1.5832,1.5832,1.5832,0.0,0.0,0.0,0.0,0.0,0.0,0.0,0.0,0.0,0.0,0.0,0.0,0.0,0.0,0.0,0.0,0.0,0.0,0.0,0.0,0.0,0.0,0.0,0.0,0.0,0.0,0.0,0.0,4.2611,4.3419,4.2282,4.3629,4.3718,0.0,0.0,0.0,0.0,0.0,0.0,3.8486,3.8566,3.9082,3.9873,4.0978,4.1831,4.2409,4.3489,4.4242,4.4669,4.5196,4.5698,4.6125,4.6527,4.6728,4.6677,4.615,4.5573,4.4794,4.148,3.9371,3.814,3.7161,3.6084,3.4992,3.4718,3.3492,3.1828,3.0321,2.9982,2.9714,2.7562,0.0,2.7221,2.5935,0.0,0.0,0.0,0.0,2.6133,2.6465,2.6855,2.7285,2.7734,2.7578,2.7402,2.7617,2.7168,2.5614,0.0,2.0875,2.0103,1.8206,0.0,0.0,0.0,0.0,1.6099,1.654,1.6339,1.6246,1.646,1.6286,1.6072,1.5845,1.5832,1.5832,1.5832,1.5832,1.5832,1.5832,1.5832,1.5832,1.5832,0.0,0.0,0.0,0.0,0.0,0.0,0.0,0.0,0.0,0.0,0.0,0.0,0.0,0.0,0.0,0.0,0.0,0.0,0.0,0.0,0.0,0.0,0.0,0.0,0.0,0.0,0.0,0.0,0.0,4.4257,4.6471,0.0,0.0,0.0,0.0,4.078,4.1625,4.1463,3.9676,4.0606,4.1605,4.2735,4.384,4.4694,4.5271,4.6376,4.6954,4.6979,4.7481,4.7757,4.7782,4.7807,4.7832,4.7807,4.728,4.6728,4.5974,4.2635,4.1204,4.0927,3.8768,3.8567,3.9038,3.6501,3.4866,3.3608,3.1487,2.9713,2.8436,2.8203,2.7637,2.7035,2.6934,2.6621,0.0,0.0,2.6602,2.6953,2.6973,2.7305,2.7734,2.8164,2.8242,2.8125,2.7754,2.7637,2.6879,0.0,2.2304,2.0557,1.8636,0.0,1.6666,1.6384,1.6343,1.6259,1.6286,1.6032,1.5858,1.5872,1.5858,1.5845,1.5832,1.5832,1.5832,1.5832,1.5832,1.5832,1.5832,1.5832,1.5832,1.5832,1.5832,0.0,0.0,0.0,0.0,0.0,0.0,0.0,0.0,0.0,0.0,0.0,0.0,0.0,0.0,0.0,0.0,0.0,0.0,0.0,0.0,0.0,0.0,0.0,0.0,0.0,0.0,0.0,0.0,4.8117,5.0092,0.0,0.0,4.8057,4.6871,4.4346,4.4952,4.464,4.2922,4.3589,4.4669,4.61,4.6903,4.7732,4.8661,4.9038,4.9439,4.9791,4.9615,4.9515,4.9515,4.9515,4.9339,4.8962,4.841,4.7857,4.7179,4.5321,4.389,4.2811,4.1656,3.9878,3.7793,3.7104,3.4799,3.1922,3.1103,3.0155,2.8984,2.8164,2.75,2.6973,2.6699,2.6309,2.6035,2.6309,2.6699,2.709,2.7363,2.7754,2.8105,2.8262,2.8301,2.8262,2.8105,2.7283,2.6291,2.505,2.3776,2.1626,1.7908,1.7612,1.7541,1.6666,1.6553,1.662,1.6807,1.674,1.6607,1.642,1.6393,1.6246,1.5858,1.5832,1.5832,1.5832,1.5832,1.5832,1.5832,1.5832,1.5832,1.5832,1.5832,1.5832,0.0,0.0,0.0,0.0,0.0,0.0,0.0,0.0,0.0,0.0,0.0,0.0,0.0,0.0,0.0,0.0,0.0,0.0,0.0,0.0,0.0,0.0,0.0,0.0,0.0,0.0,5.075,5.1169,5.3384,5.4162,5.2396,5.2037,5.0857,4.8138,4.87,4.8288,4.6371,4.6853,4.7732,4.9012,4.9414,4.9967,5.0695,5.072,5.0896,5.1272,5.0896,5.072,5.0695,5.0494,5.0218,4.9841,4.9088,4.856,4.8134,4.723,4.61,4.4844,4.389,4.1516,3.8572,3.8168,3.5757,3.2355,3.1486,3.0527,2.9648,2.8789,2.8223,2.7832,2.7539,2.7266,2.709,2.7383,2.7656,2.7949,2.8242,2.8516,2.8691,2.8535,2.8496,2.8349,2.7638,2.6825,2.5702,2.4213,2.3334,2.1767,1.8454,1.8249,1.8175,1.7271,1.7074,1.7074,1.7275,1.7128,1.6927,1.6727,1.662,1.6406,1.6019,1.5885,1.5832,1.5832,1.5832,1.5832,1.5832,1.5832,1.5832,1.5832,1.5832,1.5832,1.5832,0.0,0.0,0.0,0.0,0.0,0.0,0.0,0.0,0.0,0.0,0.0,0.0,0.0,0.0,0.0,0.0,0.0,0.0,0.0,0.0,0.0,0.0,0.0,4.7369,5.081,5.3294,5.3384,5.6256,5.7214,5.47,5.6137,5.5694,5.2071,5.2867,5.2379,4.9744,5.0167,5.072,5.1297,5.1297,5.1322,5.1322,5.1322,5.1322,5.1322,5.1322,5.1322,5.1297,5.072,5.0444,5.0368,4.9264,4.8786,4.8736,4.8159,4.7606,4.6979,4.5347,4.3566,4.1754,3.9772,3.7658,3.5331,3.2515,3.0957,3.0215,3.0195,2.9922,2.959,2.957,2.957,2.957,2.957,2.957,2.957,2.957,2.957,2.9473,2.9043,2.8926,2.8353,2.6482,2.6045,2.5046,2.1834,2.1233,2.0913,2.0149,1.9136,1.8397,1.8103,1.7796,0.0,1.7595,1.7088,1.6727,1.6727,1.6473,1.6286,1.6273,1.6005,1.5845,1.5832,1.5832,1.5832,1.5832,1.5832,1.5832,1.5832,1.5832,1.5832,1.5832,0.0,0.0,0.0,0.0,0.0,0.0,0.0,0.0,0.0,0.0,0.0,0.0,0.0,0.0,0.0,0.0,0.0,0.0,0.0,0.0,0.0,0.0,5.0092,5.075,5.3443,5.6047,5.7962,5.9428,6.0206,5.9967,5.9967,5.8596,5.5206,5.5243,5.4073,5.1059,5.0946,5.1297,5.185,5.1875,5.2076,5.2477,5.2477,5.2477,5.2477,5.2477,5.2277,5.185,5.1297,5.082,5.0368,4.9665,4.9138,4.8761,4.8611,4.7983,4.7079,4.6627,4.4159,4.0796,3.9904,3.6939,3.2993,3.1858,3.1152,3.0644,3.0312,3.0117,2.9961,2.9668,2.957,2.957,2.957,2.957,2.957,2.957,2.957,2.9551,2.9414,2.8347,2.7197,2.6625,2.4563,2.2558,2.1692,2.0687,1.9721,1.9002,1.8644,1.8464,1.8384,1.8116,0.0,1.7916,1.7582,1.7261,1.7048,1.6954,1.674,1.6313,1.6206,1.6059,1.5845,1.5832,1.5832,1.5832,1.5832,1.5832,1.5832,1.5832,1.5832,0.0,0.0,0.0,0.0,0.0,0.0,0.0,0.0,0.0,0.0,0.0,0.0,0.0,0.0,0.0,0.0,0.0,0.0,0.0,0.0,0.0,0.0,5.1439,5.3922,5.5688,5.7004,5.859,6.0685,6.1523,6.2181,6.2839,6.1905,6.0171,5.7924,5.685,5.5073,5.2412,5.2101,5.2126,5.2452,5.2452,5.2603,5.2929,5.2929,5.2929,5.2929,5.2929,5.2754,5.2427,5.1649,5.1096,0.0,4.9941,4.9414,4.9113,4.9113,4.8611,0.0,0.0,0.0,0.0,0.0,3.5438,3.2129,3.1875,3.1406,3.084,3.0566,3.0488,3.0449,3.0195,3.0117,3.0117,3.0117,3.0117,3.0117,3.0117,3.0117,2.9906,2.8842,2.7752,2.6465,2.4896,2.2956,2.1472,2.0816,2.004,0.0,1.8918,1.8865,1.8865,1.8865,1.8504,1.8237,1.8237,1.7849,1.7515,1.7341,1.7114,1.682,1.6486,1.6233,0.0,0.0,0.0,1.5832,1.5832,1.5832,0.0,0.0,0.0,1.5885,1.6019,0.0,0.0,0.0,1.5939,1.4854,0.0,0.0,0.0,0.0,0.0,0.0,0.0,0.0,0.0,0.0,0.0,0.0,0.0,0.0,0.0,0.0,5.5598,5.7693,6.0775,6.0805,6.0954,6.2061,6.278,6.3408,6.3947,6.2399,6.1001,5.9875,5.7624,5.5611,5.3847,0.0,0.0,0.0,0.0,5.2929,5.2929,5.2929,5.2929,5.2929,5.2929,5.2929,5.2904,5.185,5.1348,5.1222,5.0142,4.9665,4.959,4.9515,4.901,4.8233,4.6985,4.4135,4.0272,3.6253,3.3633,3.2168,3.2168,0.0,0.0,3.0898,3.0898,3.0898,3.0898,3.0898,3.0898,3.0898,3.0898,3.0898,3.0898,3.0762,3.0083,2.7906,2.7097,2.595,2.2513,2.1561,2.096,1.9707,1.9372,1.9372,1.9372,1.9372,1.9372,1.9372,1.8891,1.8531,1.849,1.7983,1.7622,1.7582,0.0,0.0,1.6714,1.6233,1.5899,1.5832,1.5832,1.5832,1.5832,1.5832,1.5832,1.5832,1.5858,1.6005,1.6273,1.6299,1.646,1.67,1.6166,1.4449,0.0,0.0,0.0,0.0,0.0,0.0,0.0,0.0,0.0,0.0,0.0,0.0,0.0,0.0,0.0,5.467,5.7423,5.9937,6.1672,6.269,6.3139,6.2899,6.3438,6.3857,6.3977,6.2808,6.1485,5.993,5.8,5.6028,5.3872,5.3607,0.0,5.2929,5.2929,5.2929,5.2929,5.2929,5.2929,5.2929,0.0,0.0,5.2904,5.2251,5.1699,5.1247,5.0544,5.0017,4.9565,4.9113,4.7552,4.5206,4.3566,4.0985,3.7827,3.5511,3.3633,3.2168,3.2168,3.1601,3.0898,3.0898,3.0898,3.0898,3.0898,3.0898,0.0,3.0898,3.0898,3.0898,3.0898,2.9903,2.8747,2.8346,2.6032,2.3696,2.2719,2.126,1.9992,1.9529,1.9372,1.9372,1.9372,1.9372,1.9372,1.9372,1.9065,1.8758,1.8517,1.8183,1.7862,1.7609,1.7475,1.7221,1.674,1.6593,1.6339,1.5858,1.5832,1.5832,1.5832,1.5832,1.5832,1.5832,1.6072,1.6219,1.6273,1.6513,1.6647,1.67,1.6593,1.4998,0.0,0.0,0.0,0.0,0.0,0.0,0.0,0.0,0.0,0.0,0.0,4.9763,0.0,0.0,5.5807,5.7842,5.9817,6.1553,6.2869,6.3588,6.3887,6.3588,6.4126,6.4784,6.5443,6.3284,6.1753,6.1568,5.8514,5.6187,5.4963,5.416,5.3582,5.3331,5.3055,5.2929,5.2929,5.2929,5.2929,5.2929,5.2929,5.2929,5.2904,5.2352,5.195,5.1649,5.0795,5.0268,4.9812,4.8164,4.5997,4.3517,4.1197,3.911,3.7064,3.5321,3.3633,3.2168,3.2168,3.1601,3.0898,3.0898,3.0898,3.0898,3.0898,3.0898,3.0898,3.0898,3.0898,3.0898,3.0898,2.9648,2.8116,2.719,2.4843,2.2632,2.1489,2.0364,1.9546,1.9399,1.9372,1.9372,1.9372,1.9372,1.9372,1.9372,1.9118,1.8824,1.8531,1.8237,1.7929,1.7609,1.7448,1.7248,1.6954,1.666,1.6299,1.5858,1.5832,1.5832,1.5832,1.5832,1.5899,1.6046,1.6192,1.642,1.6714,1.6126,1.5959,1.5981,1.5347,1.4037,0.0,0.0,0.0,0.0,0.0,0.0,0.0,0.0,4.844,5.084,5.1917,5.3204,5.6047,5.7363,5.883,6.1134,6.2151,6.3019,6.4066,6.4425,6.4575,6.4575,6.5084,6.5741,6.6535,6.363,6.2041,6.2616,5.8785,5.6269,5.6068,5.4662,5.3808,5.3708,5.3206,5.2929,5.2929,5.2929,5.2929,5.2929,5.2929,5.2929,5.2904,5.2477,5.2151,5.1875,5.0745,5.0193,4.9887,4.7109,4.465,4.2368,3.9711,3.7926,3.6552,3.5111,3.3613,3.2285,3.2207,3.166,3.0996,3.0918,3.0898,3.0898,3.0898,3.0898,3.0898,3.0898,3.0898,3.0879,3.0528,2.9157,2.7484,2.5605,2.3669,2.1987,2.0267,1.9786,1.9586,1.9466,1.9452,1.9439,1.9372,1.9372,1.9372,1.9372,1.9158,1.8905,1.8611,1.8317,1.8009,1.7702,1.7408,1.7208,1.7154,1.666,1.6259,1.6019,1.5952,1.5912,1.5912,1.5912,1.6032,1.6273,1.6393,1.6673,1.7154,1.5719,1.5211,1.5304,1.3696,1.2644,4.9052,4.7878,0.0,5.0627,5.0525,5.0945,0.0,0.0,5.3315,5.514,5.5987,5.6735,5.7723,5.9907,6.1822,6.272,6.3887,6.4755,6.4904,6.5922,6.664,6.664,6.6729,6.6382,6.5477,6.3982,6.234,6.0306,5.8097,5.652,5.5541,5.4838,5.4235,5.3708,5.3206,5.2929,5.2929,5.2929,5.2929,5.2929,5.2929,5.2929,5.2929,5.2854,5.2302,5.1322,5.0167,4.9414,4.8785,4.6408,4.4137,4.1767,3.9109,3.6766,3.491,3.4407,3.3535,3.2676,3.2305,3.1855,3.1387,3.1016,3.0898,3.0898,3.0898,3.0898,3.0898,3.0898,3.0898,3.0528,2.9039,2.7434,2.5846,2.4255,2.2505,2.1173,2.0641,2.0548,2.0374,1.9853,1.976,1.9666,1.9412,1.9372,1.9372,1.9372,1.9332,1.9212,1.8918,1.8624,1.833,1.8023,1.7716,1.7435,1.7168,1.6847,1.6647,1.6607,1.6366,1.6219,1.6219,1.6219,1.6246,1.6273,1.678,1.7088,1.7154,1.6008,1.5388,1.5304,1.2615,1.1199,5.1243,0.0,0.0,0.0,5.2681,5.3533,5.6215,5.5914,5.5711,5.8008,5.9279,6.0446,6.1882,6.3049,6.4006,0.0,6.5233,6.5742,6.6131,6.664,6.6719,6.6138,6.6041,6.6038,6.624,6.4744,6.3128,6.1424,5.8871,5.7349,5.6872,5.5691,5.4787,5.421,5.3658,5.3231,5.2929,5.2929,5.2929,5.2929,5.2929,5.2929,5.2929,5.2929,5.2327,5.1247,5.0795,4.9891,4.8584,4.5208,4.3134,4.1656,3.7577,3.548,3.4648,3.4219,3.3535,3.2734,3.2324,3.1875,3.1445,3.1035,3.0898,3.0898,3.0898,3.0898,3.0898,3.0898,3.0898,3.0509,2.8783,2.7194,2.5619,2.3931,2.2213,2.0828,2.0695,2.0535,2.0294,1.988,1.98,1.9706,1.9412,1.9372,1.9372,1.9372,1.9372,1.9265,1.8958,1.8677,1.8303,1.7822,1.7662,1.7462,1.7181,1.7034,1.6887,1.6714,1.6593,1.6526,1.6526,1.6526,1.6607,1.678,1.7021,1.6808,1.6113,1.4832,1.3696,1.2832,1.0781,0.9771,5.182,0.0,0.0,5.3065,5.4451,5.5919,5.7464,5.7794,5.856,6.1164,6.2361,6.3408,6.4994,6.5443,6.5712,6.6191,6.658,6.6939,6.7208,6.7268,6.6708,6.5361,6.5131,6.5142,6.5097,6.4109,6.2956,6.1405,5.9437,5.7976,5.7675,5.6219,5.5139,5.4587,5.3858,5.3306,5.2929,5.2929,5.2929,5.2929,5.2929,5.2929,5.2929,5.2603,5.2026,5.1272,5.0946,5.0042,4.8584,4.4948,4.2849,4.1503,3.7109,3.508,3.4629,3.4082,3.3496,3.291,3.248,3.2129,3.1797,3.1387,3.125,3.1211,3.1094,3.1055,3.1035,3.0918,3.0898,3.0509,2.8783,2.7572,2.6227,2.4655,2.2901,2.152,2.152,2.0985,2.0388,2.0094,2.004,1.9947,1.9653,1.9546,1.9519,1.9599,1.9466,1.9292,1.9078,1.8798,1.8384,1.7769,1.7716,1.7595,1.7288,1.7275,1.7181,1.6967,1.6874,1.6834,1.6834,1.6834,1.6927,1.7244,1.7235,1.6729,1.5411,1.4019,1.2507,1.1109,0.9588,0.894,4.9434,0.0,5.1712,5.3691,5.564,5.7768,6.0326,6.1433,6.266,6.5293,6.5353,6.5144,6.5862,6.649,6.6939,6.6969,6.8046,6.8675,6.8046,6.7956,6.7159,6.4839,6.4496,6.3395,0.0,6.0974,6.0806,5.8882,5.8704,5.8227,5.7123,5.5993,5.5139,5.4587,5.3507,5.2955,5.2929,5.2929,5.2929,5.2929,5.2929,5.2929,5.2879,5.1825,5.1322,5.1222,5.0117,4.9314,4.8584,4.6287,4.4044,4.1633,3.8488,3.6187,3.459,3.375,3.3418,3.334,3.293,3.2773,3.2676,3.2266,3.2129,3.2051,3.1621,3.1504,3.1406,3.0996,3.0898,3.0509,2.8783,2.8426,2.7931,2.6349,2.464,2.3559,2.3559,2.2201,2.1002,2.0708,2.0655,2.0561,2.0254,1.9973,1.988,2.016,1.9733,1.9359,1.9359,1.9092,1.8691,1.809,1.8036,1.7903,1.7595,1.7569,1.7569,1.7555,1.7288,1.7141,1.7141,1.7141,1.7141,1.7154,1.7422,1.6922,1.5411,1.4019,1.2507,1.1109,0.9588,0.894,5.0571,0.0,5.497,5.6974,5.862,6.0326,6.251,6.3199,6.3617,6.4485,6.4186,6.3797,6.4006,6.4246,6.4814,6.6131,6.7448,6.8555,6.9213,6.816,6.6215,6.3122,6.1623,0.0,0.0,0.0,0.0,5.8807,5.8378,5.8001,5.7625,5.6897,5.5892,5.4612,5.421,5.3658,5.2929,5.2929,5.2929,5.2929,5.2929,5.2729,5.2377,5.2,5.1423,5.0695,5.0318,4.9615,4.8584,4.6287,4.4044,4.1633,3.8488,3.6187,3.459,3.373,3.3418,3.3359,3.2949,3.2793,3.2734,3.2305,3.2168,3.2148,3.1992,3.1953,3.1914,3.1777,3.1523,3.0934,2.9305,2.8625,2.7931,2.6349,2.5619,2.513,2.513,2.3931,2.2616,2.2299,2.1396,2.0575,2.0281,2.0147,2.0054,1.996,1.9773,1.9519,1.9118,1.8985,1.8771,1.8384,1.817,1.8009,1.7903,1.7702,1.7582,1.7582,1.7488,1.7435,1.7435,1.7435,1.7435,1.7435,1.7528,1.6393,1.4019,1.348,1.2082,0.9588,0.9154,0.894,5.2995,5.5239,5.7752,5.9967,6.1343,6.26,6.4336,6.4545,6.4485,6.4964,6.3827,6.281,6.3019,6.269,6.2959,6.4665,6.6071,6.7478,6.9034,6.7125,6.4593,6.2081,5.9749,5.7416,0.0,0.0,0.0,5.8027,5.7976,5.7801,5.76,5.7223,5.6269,5.4612,5.4361,5.3833,5.2929,5.2929,5.2929,5.2929,5.2929,5.2628,5.2101,5.19,5.1297,5.0419,5.0218,4.949,4.8309,4.6214,4.3951,4.141,3.8616,3.635,3.4609,3.3906,3.3555,3.3379,3.3105,3.3008,3.2969,3.2695,3.2617,3.2598,3.2441,3.2383,3.2363,3.2207,3.1855,3.1265,3.0268,2.9591,2.9039,2.8051,2.6832,2.5984,2.5984,2.4286,2.2644,2.2443,2.1562,2.0762,2.0575,2.0548,2.0414,2.0013,2.004,1.9867,1.9172,1.9078,1.8971,1.8677,1.8477,1.8317,1.821,1.8023,1.7862,1.7756,1.7742,1.7702,1.7582,1.7582,1.7582,1.7582,1.7041,1.5636,1.3264,1.2724,1.1319,0.894,0.894,0.894,5.6376,5.8291,5.9967,6.254,6.3617,6.4395,6.5652,6.5473,6.5353,6.646,6.4126,6.2032,0.0,0.0,6.1373,6.275,6.4186,6.5832,6.7897,6.5074,6.2622,0.0,0.0,0.0,0.0,0.0,0.0,5.6947,0.0,5.7625,5.7097,5.7072,5.6294,5.4612,5.4034,5.3482,5.2929,5.2929,5.2929,5.2929,5.2929,5.2628,5.2076,5.1523,5.0971,5.0393,4.9841,4.8962,4.7808,4.6069,4.3764,4.103,3.8722,3.6616,3.4648,3.4219,3.3789,3.3418,3.3418,3.3418,3.3418,3.3418,3.3418,3.334,3.2949,3.2832,3.2734,3.2344,3.1914,3.1582,3.1562,3.123,3.0918,3.0782,2.8426,2.6106,2.5984,2.3544,2.1235,2.1235,2.1109,2.1109,2.1109,2.1109,2.0922,2.0347,2.0494,2.0361,1.9506,1.9386,1.9279,1.8985,1.8931,1.8811,1.8544,1.8504,1.837,1.809,1.805,1.7916,1.7622,1.7595,1.7582,1.7582,1.6168,1.4663,1.3264,1.1864,1.0351,0.894,0.8947,0.8947,5.883,6.1014,6.3049,6.4246,6.4635,6.4844,6.5203,6.5144,6.4575,6.2959,6.0775,5.859,0.0,0.0,0.0,6.1224,6.4366,0.0,7.047,6.8503,0.0,6.4694,0.0,5.8954,5.6768,5.6244,0.0,0.0,5.7173,5.7374,5.765,5.7675,5.6721,5.4637,5.4411,5.3884,5.2929,5.2929,5.2929,5.2929,5.2929,5.2628,5.2076,5.1523,5.0971,5.0393,4.9841,4.9188,4.8384,4.6238,4.3974,4.1522,3.885,3.6616,3.4648,3.4219,3.3789,3.3418,3.3418,3.3418,3.3418,3.3418,3.3418,3.3398,3.3301,3.3262,3.3242,3.3125,3.2793,3.2402,3.209,3.168,3.0914,2.935,2.8426,2.7434,2.6227,2.4409,2.2952,2.2952,2.1964,2.1109,2.1109,2.1109,2.0989,2.0615,2.0628,2.0441,1.9773,1.9693,1.9586,1.9279,1.9052,1.8891,1.8824,1.8611,1.8464,1.8384,1.817,1.8009,1.7929,1.7702,1.7582,1.7582,1.6168,1.4663,1.3264,1.1864,1.0351,0.894,0.9049,0.9096,6.1642,6.3528,6.5114,6.6071,6.6101,6.5652,6.4784,6.4156,6.2899,5.9967,5.7543,0.0,5.3653,0.0,0.0,0.0,0.0,0.0,7.053,6.8913,6.6993,0.0,6.3226,0.0,5.7951,5.7499,5.7449,0.0,5.7549,5.7449,5.7524,5.775,5.6997,5.4988,5.4687,5.4034,5.2929,5.2929,5.2929,5.2929,5.2929,5.2628,5.2076,5.1523,5.0971,5.0368,0.0,4.8505,4.7145,4.4877,4.2532,4.0214,3.7805,3.5982,3.4668,3.4434,3.3945,3.3457,3.3633,3.3574,3.3418,3.3418,3.3418,3.3418,3.3418,3.3418,3.3418,3.3418,3.3125,3.2734,3.25,3.1469,3.0193,2.8974,2.7453,2.6001,2.5146,2.3683,2.2466,2.2466,2.1727,2.1109,2.1109,2.1109,2.1056,2.0895,2.0869,2.0695,2.0241,1.996,1.9733,1.9573,1.9292,1.9118,1.9118,1.8971,1.8824,1.8691,1.841,1.8183,1.805,1.7742,1.7582,1.7582,1.6168,1.4984,1.4234,1.2724,1.1647,1.0891,1.1073,1.1114,6.4605,6.5892,6.667,6.7837,6.7537,6.643,6.4366,6.281,6.0835,5.7304,5.464,5.2695,5.1947,5.2995,5.491,5.7902,0.0,6.5473,6.9722,6.8471,6.7113,6.701,6.4717,6.2141,5.9769,5.9159,5.893,5.893,5.8428,5.7826,5.7173,5.7625,5.7097,5.534,5.4737,5.3959,5.2929,5.2929,5.2929,5.2929,5.2929,5.2678,5.2201,5.1574,5.0996,5.0469,0.0,0.0,4.5229,4.2883,4.0716,3.8444,3.6256,3.5195,3.4785,3.4785,3.4238,3.3555,3.3945,3.3789,3.3418,3.3418,3.3418,3.3418,3.3418,3.3418,3.3418,3.3418,3.3164,3.2871,3.2812,3.1087,2.9148,2.8796,2.6224,2.3693,2.3399,2.216,2.1162,2.1122,2.1109,2.1109,2.1109,2.1109,2.1109,2.1109,2.1109,2.1015,2.0762,2.0214,1.984,1.98,1.9546,1.9372,1.9372,1.9372,1.9252,1.8998,1.8704,1.8437,1.817,1.7862,1.7702,1.7702,1.6279,1.5505,1.547,1.4094,1.3335,1.3315,1.3678,1.3688,6.7148,6.7956,6.8525,6.8764,6.7897,6.634,6.3797,6.1792,0.0,0.0,5.2636,5.1199,5.0002,5.1289,5.4132,5.8949,0.0,0.0,0.0,0.0,7.096,0.0,0.0,0.0,0.0,0.0,0.0,0.0,0.0,0.0,5.7801,5.7851,5.6922,5.4787,5.416,5.3557,5.2929,5.2929,5.2929,5.2929,5.2929,5.2879,5.2754,5.1749,5.1222,5.1046,4.9464,0.0,4.5229,4.2883,4.0716,3.8465,3.6574,3.5644,3.5273,3.5273,3.4707,3.3965,3.4043,3.3789,3.3418,3.3418,3.3418,3.3418,3.3418,3.3418,3.3418,3.3418,3.3379,3.3242,3.2891,3.1396,2.9565,2.7565,2.5597,2.3793,2.2282,2.1727,2.1403,2.1162,2.1109,2.1109,2.1109,2.1109,2.1109,2.1109,2.1109,2.1096,2.1042,2.0521,2.0067,1.9826,1.9546,1.9372,1.9372,1.9372,1.9345,1.9292,1.9011,1.8824,1.8771,1.849,1.833,1.833,1.6845,1.6062,1.5849,1.4611,1.3821,1.3658,1.4076,1.4239,6.9243,6.9991,7.05,7.05,6.9243,6.6879,6.251,0.0,0.0,5.1708,5.0122,4.9404,4.8416,5.0122,0.0,0.0,0.0,0.0,0.0,0.0,0.0,0.0,0.0,0.0,0.0,0.0,0.0,0.0,0.0,0.0,5.7951,5.7349,5.6269,5.4612,5.4285,5.3758,5.2929,5.2929,5.2929,5.2929,5.2929,5.2929,5.2879,5.1774,5.1272,5.1172,4.9188,0.0,4.3886,4.2221,3.9843,3.7173,3.6032,3.5566,3.5391,3.5391,3.498,3.4394,3.4394,3.4121,3.373,3.3496,3.3418,3.3418,3.3418,3.3418,3.3418,3.3418,3.3418,3.3379,3.3164,3.1009,2.8563,2.7444,2.5052,2.2734,2.1835,2.143,2.1283,2.1136,2.1109,2.1109,2.1109,2.1109,2.1109,2.1109,2.1109,2.1109,2.1109,2.0735,2.0414,2.0267,2.0,1.976,1.9599,1.9586,1.9533,1.9372,1.9092,1.8918,1.8918,1.8651,1.849,1.849,1.7798,1.7388,1.7249,1.6709,1.6363,1.6255,1.6523,1.663,7.0799,7.1607,7.2056,7.1936,7.032,6.7238,6.1403,5.8321,0.0,4.9464,4.8177,4.7967,4.7578,4.9194,5.1439,0.0,5.6825,6.0805,0.0,0.0,0.0,0.0,0.0,0.0,0.0,0.0,0.0,0.0,0.0,0.0,5.775,5.6646,5.5591,5.4587,5.4436,5.3909,5.2929,5.2929,5.2929,5.2929,5.2929,5.2929,5.2879,5.1774,5.1272,5.1172,4.9012,0.0,0.0,4.2001,3.9537,3.6638,3.5818,3.5527,3.5527,3.5527,3.5234,3.4824,3.4726,3.4434,3.4004,3.3555,3.3418,3.3418,3.3418,3.3496,3.3535,3.3437,3.3496,3.3535,3.3437,3.0555,2.7604,2.6823,2.4174,2.1724,2.1657,2.151,2.1336,2.1149,2.1162,2.1189,2.1122,2.1109,2.1109,2.1109,2.1109,2.1109,2.1109,2.0909,2.0775,2.0775,2.0441,2.0134,1.9907,1.9893,1.9773,1.9479,1.9239,1.9078,1.9025,1.8798,1.8677,1.8677,1.8677,1.8651,1.8584,1.8651,1.8651,1.8597,1.8878,1.8891,7.1607,7.2295,7.2684,7.2056,6.9961,6.667,6.1313,0.0,5.4012,4.9254,4.7818,4.7549,4.8087,4.8386,5.0002,0.0,0.0,5.9578,6.6161,6.8704,7.0919,7.3372,0.0,0.0,0.0,0.0,0.0,0.0,0.0,0.0,0.0,5.6068,5.5189,5.4587,5.4059,5.3507,5.2929,5.2929,5.2929,5.2929,5.2929,5.2929,5.2879,5.1774,5.1272,5.1172,4.9439,0.0,0.0,4.302,4.0804,3.8916,3.6773,3.5957,3.5957,3.5957,3.5703,3.5273,3.4844,3.4434,3.4004,3.3555,3.3418,3.3418,3.3418,3.3691,3.3926,3.3535,3.3711,3.3926,3.3516,3.0771,2.7322,2.4153,2.2836,2.2271,2.2004,2.2138,2.2058,2.1269,2.1323,2.143,2.1162,2.1109,2.1109,2.1109,2.1109,2.1109,2.1109,2.1082,2.1069,2.1069,2.0575,2.0227,2.0201,2.0187,2.0067,1.9773,1.9733,1.9599,1.9332,1.9305,1.9292,1.9292,1.9292,1.9158,1.8878,1.9158,1.9145,1.8891,1.9185,1.9319,7.1487,7.2954,7.3941,7.3253,7.0201,6.6221,6.1732,5.7214,5.2905,4.9075,4.7758,4.7399,4.7638,4.7698,4.8566,5.1199,5.2037,5.4551,6.0775,6.269,6.5443,7.0889,0.0,0.0,0.0,0.0,0.0,0.0,0.0,0.0,0.0,5.5817,5.5139,5.4587,5.4009,5.3457,5.2929,5.2929,5.2929,5.2929,5.2929,5.2929,5.2879,5.1774,5.1272,5.1197,4.949,0.0,0.0,4.3111,4.1001,3.9113,3.6833,3.6016,3.6016,3.6016,3.5918,3.5664,3.4941,3.459,3.4336,3.3652,3.3418,3.3476,3.373,3.4121,3.4414,3.4238,3.4141,3.3766,3.2523,2.9384,2.592,2.3529,2.2632,2.2392,2.2271,2.2058,2.179,2.1443,2.1323,2.1256,2.1136,2.1109,2.1109,2.1109,2.1109,2.1109,2.1109,2.1109,2.1109,2.1109,2.0895,2.0695,2.0508,2.0494,2.0294,1.9826,1.98,1.9666,1.9372,1.9372,1.9372,1.9372,1.9372,1.9305,1.9185,1.9305,1.9305,1.9199,1.9319,1.9372,7.0679,7.2924,7.442,7.3762,7.026,6.5892,6.1762,5.6855,5.2247,4.8955,4.7758,4.7309,4.7309,4.7309,4.7668,4.8805,4.9464,5.1648,5.6825,5.862,6.1583,0.0,0.0,0.0,0.0,0.0,0.0,0.0,0.0,0.0,0.0,5.6326,5.5482,5.4587,5.3858,5.3306,5.2929,5.2929,5.2929,5.2929,5.2929,5.2929,5.2879,5.1774,5.1272,5.1197,0.0,0.0,0.0,4.41,4.1991,4.0222,3.7665,3.6403,3.6016,3.6016,3.6016,3.5898,3.5,3.4707,3.4551,3.3691,3.3516,3.3691,3.4121,3.4375,3.4512,3.4512,3.4199,3.3482,3.1744,2.8742,2.592,2.406,2.3093,2.2498,2.2325,2.2031,2.1737,2.147,2.1323,2.1216,2.1122,2.1189,2.1203,2.1122,2.1189,2.1203,2.1122,2.1109,2.1109,2.1109,2.1109,2.1029,2.0815,2.0802,2.0588,2.0094,2.0054,1.9893,1.9506,1.9492,1.9452,1.9372,1.9372,1.9372,1.9372,1.9372,1.9372,1.9372,1.9372,1.9372,6.9093,7.1906,7.3762,7.3103,6.9931,6.5772,6.1134,5.6526,5.2247,4.8955,4.7758,4.7309,4.7309,4.7309,4.7519,4.8177,4.9912,5.2366,5.5718,5.8441,0.0,0.0,0.0,0.0,0.0,0.0,0.0,0.0,0.0,0.0,0.0,5.7821,5.6418,5.4703,5.3507,5.2929,5.2929,5.2929,5.2929,5.2929,5.2929,5.2929,5.2879,5.1774,5.1272,0.0,0.0,0.0,0.0,4.6504,4.4324,4.2503,3.973,3.7575,3.6016,3.6016,3.6016,3.5898,3.5,3.4707,3.4551,3.3691,3.3711,3.4141,3.457,3.4394,3.4082,3.4082,3.3769,3.3038,3.1304,2.9474,2.7768,2.5905,2.4181,2.2699,2.2111,2.2205,2.2151,2.1283,2.1349,2.1456,2.1162,2.1349,2.1443,2.1149,2.1363,2.1443,2.1149,2.1109,2.1109,2.1109,2.1109,2.1109,2.1109,2.1109,2.0975,2.0681,2.0668,2.0401,1.9813,1.98,1.9653,1.9372,1.9372,1.9372,1.9372,1.9372,1.9372,1.9372,1.9372,1.9372,6.3378,6.5832,6.7567,6.646,6.3887,6.0864,5.8052,5.4521,5.1169,4.8775,4.7758,4.7309,4.7309,4.7309,4.7818,4.9374,5.0152,5.1558,0.0,0.0,0.0,0.0,0.0,0.0,0.0,0.0,0.0,0.0,0.0,0.0,0.0,5.7747,5.6529,5.4703,5.3507,5.2929,5.2929,5.2929,5.2929,5.2929,5.2929,5.2929,5.2879,5.1774,0.0,0.0,0.0,0.0,0.0,4.6504,4.4324,4.2503,3.973,3.7575,3.6016,3.6016,3.584,3.5508,3.4902,3.4707,3.4551,3.3691,3.3711,3.4101,3.4238,3.4375,3.4434,3.416,3.3383,3.2282,3.1045,2.9474,2.8032,2.7503,2.6972,2.6126,2.473,2.4332,2.3776,2.2308,2.1924,2.1817,2.1724,2.179,2.175,2.1456,2.1496,2.1443,2.1149,2.1109,2.1109,2.1109,2.1109,2.1109,2.1109,2.1109,2.0989,2.0695,2.0681,2.0414,1.9826,1.98,1.9666,1.9372,1.9372,1.9372,1.9372,1.9372,1.9372,1.9372,1.9372,1.9372,5.889,6.1523,6.3348,6.254,6.0535,5.8231,5.6256,5.3234,5.0361,4.8626,4.7758,4.7309,4.7309,4.7309,4.7698,4.8925,4.9553,5.072,5.3114,0.0,0.0,0.0,0.0,0.0,0.0,0.0,0.0,0.0,0.0,0.0,0.0,5.8349,5.6871,5.4376,5.3381,5.2929,5.2929,5.2929,5.2929,5.2929,5.2929,5.2929,5.2879,5.1774,0.0,0.0,0.0,0.0,0.0,4.6432,4.423,4.2256,3.9665,3.7473,3.5781,3.5781,3.5625,3.5332,3.4863,3.4707,3.459,3.3887,3.3848,3.4043,3.3887,3.4238,3.457,3.3984,3.3325,3.2693,3.2003,3.0531,2.9213,2.9213,2.8689,2.7735,2.5753,2.5173,2.4466,2.2671,2.2111,2.1991,2.1991,2.2071,2.2044,2.1764,2.171,2.1603,2.1309,2.1176,2.1109,2.1109,2.1109,2.1109,2.1109,2.1109,2.1029,2.0855,2.0842,2.0575,1.9987,1.996,1.9773,1.9372,1.9372,1.9372,1.9372,1.9372,1.9372,1.9372,1.9372,1.9372,0.0,5.8321,6.0386,6.0296,5.8919,5.7064,5.5149,5.2336,0.0,4.8476,4.7728,4.7309,4.7309,4.7309,4.7339,4.7429,4.8506,5.0032,0.0,0.0,0.0,0.0,0.0,0.0,0.0,0.0,0.0,0.0,0.0,0.0,0.0,5.9496,5.7195,5.3772,5.3181,5.2929,5.2929,5.2929,5.2929,5.2929,5.2929,5.2929,5.2879,5.1774,0.0,0.0,0.0,0.0,0.0,4.6391,4.415,4.1723,3.9647,3.7401,3.5391,3.5351,3.5351,3.5293,3.4844,3.4726,3.4668,3.4258,3.4082,3.3945,3.3535,3.4043,3.457,3.3711,3.3789,3.4023,3.3574,3.2237,3.1029,3.1029,2.9605,2.7818,2.5789,2.5201,2.4452,2.2495,2.2044,2.2044,2.2044,2.2271,2.2352,2.2058,2.2017,2.1911,2.1617,2.1323,2.1149,2.1149,2.1122,2.1109,2.1109,2.1109,2.1109,2.1109,2.1109,2.0842,2.0254,2.0227,1.996,1.9372,1.9372,1.9372,1.9372,1.9372,1.9372,1.9372,1.9386,1.9399,4.8416,0.0,5.3294,5.2306,5.2067,5.1708,0.0,4.9703,0.0,0.0,0.0,0.0,4.7309,4.7309,4.7638,4.8626,4.9494,5.069,5.2665,0.0,0.0,0.0,0.0,0.0,0.0,0.0,0.0,0.0,0.0,0.0,0.0,5.7883,5.5838,5.313,5.298,5.2929,5.2929,5.2929,5.2929,5.2929,5.2929,5.2929,5.2879,5.1774,0.0,0.0,0.0,0.0,4.8686,4.7309,4.4888,4.1831,4.0573,3.814,3.5351,3.5,3.4863,3.4844,3.4746,3.4941,3.5156,3.4707,3.4101,3.3555,3.3457,3.4277,3.5039,3.416,3.4219,3.4453,3.4023,3.3398,3.2765,3.2765,3.1433,2.97,2.7933,2.6331,2.4847,2.3066,2.2659,2.2659,2.2659,2.2712,2.2659,2.2365,2.2311,2.2218,2.1924,2.163,2.1443,2.1443,2.1243,2.1109,2.1109,2.1109,2.1109,2.1109,2.1109,2.0842,2.0254,2.0227,1.996,1.9372,1.9372,1.9372,1.9372,1.9372,1.9372,1.9372,1.9599,1.9693,4.5454,4.7369,4.9314,4.8925,4.9314,4.9523,4.8506,4.8566,0.0,0.0,0.0,0.0,0.0,0.0,4.7638,4.8656,4.9613,5.1468,0.0,0.0,0.0,0.0,0.0,0.0,0.0,0.0,0.0,0.0,0.0,0.0,0.0,5.669,5.4987,5.2929,5.2929,5.2929,5.2929,5.2678,5.2678,5.2929,5.2427,5.2302,5.2528,5.1398,5.0896,0.0,0.0,0.0,4.8184,4.576,4.3449,4.1052,3.9002,3.6787,3.4746,3.4512,3.4531,3.4707,3.4707,3.4863,3.4961,3.4316,3.3789,3.3418,3.3418,3.4062,3.4648,3.3965,3.4082,3.4316,3.3887,3.3594,3.3418,3.3418,3.2091,3.0384,2.8558,2.6839,2.4979,2.3256,2.2859,2.2859,2.2859,2.2859,2.2806,2.2645,2.2512,2.2365,2.2205,2.1817,2.155,2.155,2.1283,2.1109,2.1109,2.1109,2.1109,2.1109,2.1109,2.0909,2.0454,2.0307,1.996,1.9372,1.9372,1.9372,1.9372,1.9506,1.9559,1.9573,1.9867,2.0,4.4855,4.5933,4.7429,4.7878,4.8476,4.8835,4.8267,0.0,0.0,0.0,0.0,0.0,0.0,0.0,0.0,0.0,0.0,0.0,0.0,0.0,0.0,0.0,0.0,0.0,0.0,0.0,0.0,0.0,0.0,0.0,0.0,5.5444,5.4433,5.2929,5.2929,5.2929,5.2929,5.2377,5.2302,5.2653,5.1724,5.1523,5.195,5.0896,5.0368,0.0,0.0,0.0,4.7084,4.3601,4.1332,3.9787,3.6759,3.4989,3.4062,3.4004,3.4238,3.4609,3.4668,3.4668,3.4492,3.375,3.3476,3.3418,3.3418,3.3691,3.3887,3.3535,3.373,3.3984,3.3613,3.3476,3.3418,3.3418,3.1835,2.9995,2.8558,2.6573,2.4723,2.3133,2.2859,2.2859,2.2859,2.2859,2.2859,2.2859,2.2645,2.2485,2.2485,2.2017,2.1683,2.1683,2.1376,2.1176,2.1176,2.1136,2.1109,2.1109,2.1109,2.0962,2.0628,2.0321,1.992,1.9372,1.9412,1.9439,1.9439,1.972,1.9867,1.9867,2.016,2.0294,4.5603,4.6651,4.7189,4.6741,4.713,4.7578,4.7489,0.0,0.0,0.0,0.0,0.0,0.0,0.0,0.0,0.0,0.0,0.0,0.0,0.0,0.0,0.0,0.0,0.0,0.0,0.0,0.0,0.0,0.0,0.0,0.0,5.4106,5.3179,5.2929,5.2929,5.2929,5.2929,5.2377,5.1925,5.1523,5.1373,5.1322,5.1398,5.072,5.0167,0.0,0.0,4.6934,4.4966,4.3488,4.108,3.8209,3.6917,3.555,3.4023,3.3652,3.3789,3.4219,3.457,3.4473,3.4141,3.4023,3.373,3.3418,3.3418,3.3476,3.3516,3.3437,3.373,3.4062,3.3984,3.3691,3.3418,3.3418,3.0918,2.8558,2.8295,2.5651,2.3256,2.2996,2.2859,2.2859,2.2859,2.2859,2.2859,2.2859,2.2819,2.2792,2.2792,2.2498,2.2285,2.2285,2.1804,2.1483,2.1483,2.1256,2.1109,2.1109,2.1109,2.0869,2.0321,2.0027,1.9706,1.9372,1.9613,1.9733,1.9733,2.0027,2.0174,2.0174,2.0468,2.0615,4.4556,4.5454,4.6322,4.6741,4.7878,4.8716,4.7997,0.0,0.0,0.0,0.0,0.0,0.0,0.0,0.0,0.0,0.0,0.0,0.0,0.0,0.0,0.0,0.0,0.0,0.0,0.0,0.0,0.0,0.0,0.0,0.0,0.0,5.2929,5.2929,5.2628,5.2352,5.2051,5.1473,5.1222,5.1272,5.0368,4.9916,4.9916,4.9314,4.8912,4.8636,0.0,4.6266,4.4016,4.2389,4.0003,3.7107,3.5824,3.4672,3.373,3.375,3.3906,3.4101,3.4297,3.4238,3.4023,3.3789,3.3594,3.3418,3.3418,3.3418,3.3418,3.3418,3.3574,3.373,3.373,3.2899,3.1963,3.1963,2.9327,2.6706,2.6706,2.4723,2.2859,2.2859,2.2859,2.2859,2.2859,2.2859,2.2859,2.2859,2.2859,2.2859,2.2859,2.2605,2.2418,2.2418,2.2044,2.1724,2.1563,2.143,2.1283,2.1122,2.1109,2.0922,2.0494,2.0347,2.0134,1.984,1.996,2.004,2.004,2.0334,2.0468,2.0481,2.0775,2.0909,4.3838,4.4766,4.6022,4.704,0.0,4.9494,4.9254,0.0,0.0,0.0,0.0,0.0,0.0,0.0,0.0,0.0,0.0,0.0,0.0,0.0,0.0,0.0,0.0,0.0,0.0,0.0,0.0,0.0,0.0,0.0,0.0,0.0,5.2729,5.2729,5.2201,5.1649,5.1071,5.0519,5.0368,5.067,4.9389,4.8711,4.856,4.7983,4.7732,4.7682,4.7029,4.5331,4.295,4.0955,3.8516,3.5892,3.4457,3.3711,3.3457,3.3789,3.3926,3.3926,3.3926,3.3926,3.3867,3.3535,3.3418,3.3418,3.3418,3.3418,3.3418,3.3418,3.3418,3.3418,3.3418,3.2091,3.0771,3.0771,2.8147,2.5517,2.5517,2.4196,2.2859,2.2859,2.2859,2.2859,2.2859,2.2859,2.2859,2.2859,2.2859,2.2859,2.2859,2.2659,2.2525,2.2525,2.2258,2.2069,2.2208,2.2181,2.2171,2.223,2.1475,2.1101,2.1286,2.0916,2.0535,2.0241,2.0307,2.0456,2.0929,2.0875,2.1024,2.1396,2.1254,2.1109,4.4825,4.6142,4.7189,4.7279,4.7429,0.0,5.1259,5.096,0.0,0.0,0.0,0.0,0.0,0.0,0.0,0.0,0.0,0.0,0.0,0.0,0.0,0.0,0.0,0.0,0.0,0.0,0.0,0.0,0.0,0.0,0.0,0.0,0.0,5.2176,5.1624,5.1071,5.0494,4.9941,4.9414,4.8937,4.8837,4.8485,4.7958,4.7431,4.7179,4.7129,4.6075,4.3796,4.0671,3.9579,3.7185,3.428,3.3633,3.3457,3.3418,3.3457,3.3476,3.3476,3.3476,3.3476,3.3457,3.3437,3.3418,3.3418,3.3418,3.3418,3.3418,3.3418,3.3418,3.3418,3.3418,3.2091,3.0771,3.0771,2.8147,2.5517,2.5517,2.4196,2.2859,2.2859,2.2859,2.2859,2.2859,2.2859,2.2859,2.2859,2.2859,2.2859,2.2859,2.2846,2.2832,2.2832,2.2565,2.28,2.373,2.3813,2.4405,2.5513,2.2827,2.1714,2.2852,2.1519,2.0535,2.0241,2.0508,2.1368,2.2929,2.1673,2.1811,2.3296,2.1839,2.1109,4.3928,4.5364,4.68,4.7219,0.0,0.0,0.0,0.0,0.0,0.0,0.0,0.0,0.0,0.0,0.0,0.0,0.0,0.0,0.0,0.0,0.0,0.0,0.0,0.0,0.0,0.0,0.0,0.0,0.0,0.0,0.0,0.0,0.0,5.1599,5.0695,5.0117,4.9916,4.9012,4.8284,4.7757,4.7757,4.7456,4.6903,4.6351,4.6125,4.6075,4.5296,4.3497,4.0964,3.9606,3.7443,3.5085,3.3836,3.3594,3.3828,3.3828,3.3828,3.3828,3.3828,3.3652,3.3418,3.3418,3.3418,3.3418,3.3418,3.3418,3.3418,3.3418,3.3613,3.3769,3.3496,3.1358,2.9372,2.9265,2.678,2.4331,2.4136,2.3555,2.3207,2.3394,2.3273,2.3207,2.3394,2.3273,2.3153,2.3153,2.2993,2.2859,2.2859,2.2859,2.3256,2.4452,2.5218,2.5742,2.5914,2.5801,2.6133,2.7469,2.5375,2.4347,2.4817,2.338,2.2951,2.3779,2.2951,2.3256,2.4939,2.4332,2.3915,2.3574,2.2966,2.209,4.3329,4.4646,4.6112,0.0,0.0,0.0,0.0,0.0,0.0,0.0,0.0,0.0,0.0,0.0,0.0,0.0,0.0,0.0,0.0,0.0,0.0,0.0,0.0,0.0,0.0,0.0,0.0,0.0,0.0,0.0,0.0,0.0,0.0,0.0,4.9816,4.9163,4.8812,4.8058,4.7405,4.6878,4.6702,4.6426,4.6024,4.5472,4.5221,4.5171,4.4418,4.302,4.1235,3.9505,3.7392,3.5169,3.4423,3.416,3.4062,3.3926,3.3867,3.3867,3.3867,3.3672,3.3418,3.3418,3.3418,3.3418,3.3418,3.3516,3.3633,3.3633,3.3945,3.4199,3.3906,3.1348,2.8537,2.7756,2.5637,2.3714,2.3514,2.3474,2.3527,2.3728,2.3607,2.3527,2.3741,2.3607,2.3474,2.3474,2.3207,2.3006,2.3006,2.2926,2.3529,2.5248,2.6355,2.7247,2.8052,2.7906,2.8166,2.926,2.8367,2.7453,2.6832,2.5269,2.4901,2.5984,2.4901,2.5194,2.7003,2.6277,2.5488,2.475,2.3913,2.2817,4.3329,4.4287,0.0,0.0,0.0,0.0,0.0,0.0,0.0,0.0,0.0,0.0,0.0,0.0,0.0,0.0,0.0,0.0,0.0,0.0,0.0,0.0,0.0,0.0,0.0,0.0,0.0,0.0,0.0,0.0,0.0,0.0,0.0,0.0,4.9038,4.8234,4.7129,4.7104,4.6828,4.6276,4.5748,4.5472,4.5472,4.4895,4.4618,4.4543,4.3463,4.2445,4.1211,3.914,3.6572,3.426,3.5397,3.5126,3.4023,3.3594,3.3437,3.3437,3.3437,3.3418,3.3418,3.3418,3.3418,3.3418,3.3418,3.373,3.4062,3.4082,3.4375,3.4707,3.4707,3.1962,2.8688,2.6907,2.5144,2.3781,2.3768,2.3768,2.3768,2.3781,2.3768,2.391,2.3924,2.3781,2.3781,2.3768,2.3514,2.3327,2.3327,2.306,2.3529,2.5383,2.5517,2.683,2.9976,3.0194,3.0636,3.1443,3.1523,3.0577,2.8564,2.6832,2.5984,2.6106,2.5984,2.702,2.9143,2.702,2.6364,2.7074,2.475,2.3062,4.3449,4.4287,0.0,0.0,0.0,0.0,0.0,0.0,0.0,0.0,0.0,0.0,0.0,0.0,0.0,0.0,0.0,0.0,0.0,0.0,0.0,0.0,0.0,0.0,0.0,0.0,0.0,0.0,0.0,0.0,0.0,0.0,0.0,0.0,4.7531,4.6878,4.6552,4.5773,4.5296,4.5121,4.4945,4.5095,4.5447,4.4493,4.4041,4.4016,4.3288,4.2837,4.2372,4.0663,3.8766,3.6853,3.6093,3.5749,3.566,3.429,3.3887,3.3887,3.3887,3.3672,3.3418,3.3418,3.3418,3.3418,3.3418,3.3516,3.3672,3.3984,3.4375,3.4502,3.342,3.2593,3.1409,2.8939,2.6296,2.4329,2.4115,2.4873,2.5809,2.6272,2.71,2.7757,2.8224,2.7139,2.5924,2.5848,2.433,2.3247,2.3033,2.398,2.5383,2.7238,2.8541,2.9966,3.1922,3.2008,3.1911,3.1562,3.1523,3.1072,3.0176,2.8545,2.8289,2.9412,2.8577,2.9016,3.0768,3.0558,2.9259,2.709,2.6372,2.4607,4.4158,0.0,0.0,0.0,0.0,0.0,0.0,0.0,0.0,0.0,0.0,0.0,0.0,0.0,0.0,0.0,0.0,0.0,0.0,0.0,0.0,0.0,0.0,0.0,0.0,0.0,0.0,0.0,0.0,0.0,0.0,0.0,0.0,0.0,4.6652,4.61,4.5648,4.497,4.4618,4.4618,4.4392,4.4468,4.4794,4.4116,4.3689,4.3463,4.3112,4.2625,4.2012,4.1672,4.0013,3.7427,3.6967,3.6223,3.5407,3.425,3.3809,3.3809,3.3809,3.3633,3.3418,3.3418,3.3418,3.3418,3.3418,3.3535,3.3769,3.4199,3.4648,3.4793,3.4101,3.356,3.2628,3.0182,2.8067,2.6431,2.5665,2.6098,2.6565,2.6402,2.689,2.7534,2.7809,2.6846,2.5798,2.5612,2.4368,2.3354,2.2913,2.3788,2.5113,2.6972,2.8015,2.963,3.1879,3.1355,3.0951,3.0917,3.0248,2.9696,2.9313,2.949,3.0225,3.1387,3.0641,3.085,3.2031,3.1482,3.0296,2.8528,2.7604,2.5716,0.0,0.0,0.0,0.0,0.0,0.0,0.0,0.0,0.0,0.0,0.0,0.0,0.0,0.0,0.0,0.0,0.0,0.0,0.0,0.0,0.0,0.0,0.0,0.0,0.0,0.0,0.0,0.0,0.0,0.0,0.0,0.0,0.0,4.62,4.61,4.5573,4.4493,4.4418,4.4367,0.0,4.3865,4.3639,4.3589,4.3689,4.3463,4.2986,4.2986,4.215,4.0937,4.2375,4.0528,3.6912,3.7802,3.6572,3.4221,3.3574,3.3418,3.3418,3.3418,3.3418,3.3418,3.3418,3.3418,3.3418,3.3418,3.3691,3.4101,3.4531,3.4941,3.5371,3.584,3.4652,3.2923,3.1282,3.0203,2.9071,2.7674,2.7206,2.6643,2.5249,2.5144,2.5194,2.4946,2.4616,2.4327,2.4168,2.3888,2.3487,2.2939,2.2859,2.3529,2.5248,2.5517,2.6823,3.0254,2.9083,2.8669,2.9832,2.8392,2.7358,2.7029,2.9678,3.1257,3.1642,3.17,3.1911,3.2277,3.0387,2.9689,3.0236,2.8,2.6371,0.0,0.0,0.0,0.0,0.0,0.0,0.0,0.0,0.0,0.0,0.0,0.0,0.0,0.0,0.0,0.0,0.0,0.0,0.0,0.0,0.0,0.0,0.0,0.0,0.0,0.0,0.0,0.0,0.0,0.0,0.0,0.0,0.0,4.502,4.4568,4.4016,4.3338,4.2911,4.2484,0.0,4.2359,4.2283,4.1907,4.276,4.3087,4.2986,4.2986,4.2849,4.2513,4.2849,4.172,3.9567,3.8625,3.7089,3.5232,3.3942,3.3418,3.3418,3.3418,3.3418,3.3418,3.3418,3.3418,3.3418,3.3418,3.3496,3.3652,3.4082,3.4277,3.4531,3.5332,3.4987,3.4452,3.4713,3.1265,2.7757,2.7132,2.8005,2.8959,2.8617,2.9666,3.0514,3.0719,2.8381,2.5784,2.4174,2.3407,2.3006,2.2886,2.2859,2.3529,2.5248,2.5517,2.6439,2.8558,2.8427,2.8146,2.8039,2.7748,2.7457,2.7391,2.768,2.7906,2.7974,2.8391,2.858,2.8648,2.8483,2.7867,2.669,2.6019,2.4981,0.0,0.0,0.0,0.0,0.0,0.0,0.0,0.0,0.0,0.0,0.0,0.0,0.0,0.0,0.0,0.0,0.0,0.0,0.0,0.0,0.0,0.0,0.0,0.0,0.0,0.0,0.0,0.0,0.0,0.0,0.0,4.5799,4.5121,4.4242,4.3689,4.3137,4.2585,4.2032,4.163,4.1329,4.163,4.1605,4.1354,4.2208,4.2735,4.2986,4.2986,4.2986,4.2961,4.215,4.0961,3.9288,3.7723,3.6051,3.4487,3.365,3.3418,3.3418,3.3418,3.3418,3.3418,3.3418,3.3418,3.3418,3.3418,3.3418,3.3516,3.3945,3.4082,3.4219,3.4883,3.4883,3.4805,3.5273,3.3156,3.0683,2.9996,3.0321,3.0273,2.8771,2.8931,2.9116,2.8308,2.6653,2.5044,2.3937,2.35,2.3247,2.31,2.2953,2.3256,2.4196,2.4317,2.4993,2.6706,2.6188,2.5977,2.6456,2.5779,2.5263,2.5263,2.5099,2.5797,2.7489,2.78,2.7883,2.7883,2.7318,2.7091,2.6957,2.6148,2.5213,0.0,0.0,0.0,0.0,0.0,0.0,0.0,0.0,0.0,0.0,0.0,0.0,0.0,0.0,0.0,0.0,0.0,0.0,0.0,0.0,0.0,0.0,0.0,0.0,0.0,0.0,0.0,0.0,0.0,0.0,4.5874,4.4995,4.4192,4.3539,4.3062,4.2534,4.1882,4.143,4.1153,4.1053,4.1053,4.1153,4.1354,4.1706,4.2233,4.2836,4.2836,4.2836,4.2699,4.1063,3.9384,3.774,3.6267,3.4697,3.3223,3.3379,3.3379,3.332,3.3398,3.3418,3.3418,3.3418,3.3418,3.3418,3.3418,3.3418,3.3496,3.3867,3.3965,3.4062,3.4473,3.4531,3.4512,3.4668,3.4648,3.4277,3.3312,3.2557,3.1059,2.7959,2.6809,2.5731,2.3714,2.3647,2.3848,2.3848,2.3754,2.3607,2.3367,2.306,2.2859,2.2859,2.2859,2.3529,2.4979,2.3802,2.3529,2.4979,2.3652,2.2859,2.2859,2.2859,2.4331,2.7238,2.7238,2.7238,2.7238,2.6058,2.6194,2.7534,2.6194,2.5555,0.0,0.0,0.0,0.0,0.0,0.0,0.0,0.0,0.0,0.0,0.0,0.0,0.0,0.0,0.0,0.0,0.0,0.0,0.0,0.0,0.0,0.0,0.0,0.0,0.0,0.0,0.0,0.0,0.0,0.0,4.4256,4.3991,4.3438,4.2409,4.2308,4.1781,4.0752,4.0651,4.0375,3.9923,3.9923,4.0425,4.1329,4.0927,4.1279,4.2258,4.2258,4.2258,4.2098,4.012,3.8315,3.6738,3.5648,3.4044,3.2422,3.3144,3.3184,3.293,3.3301,3.3418,3.3418,3.3418,3.3418,3.3418,3.3418,3.3418,3.3437,3.3496,3.3516,3.3613,3.4043,3.3867,3.3789,3.4531,3.4414,3.3854,3.2757,3.2557,3.1714,2.9352,2.7616,2.5804,2.3985,2.3955,2.4142,2.4142,2.3714,2.3367,2.3327,2.306,2.2859,2.2859,2.2859,2.2996,2.327,2.2996,2.2996,2.327,2.2996,2.2859,2.2859,2.2859,2.3133,2.3665,2.3665,2.3665,2.3665,2.3434,2.3447,2.3721,2.3461,2.3474,0.0,0.0,0.0,0.0,0.0,0.0,0.0,0.0,0.0,0.0,0.0,0.0,0.0,0.0,0.0,0.0,0.0,0.0,0.0,0.0,0.0,0.0,0.0,0.0,0.0,0.0,0.0,0.0,0.0,4.5434,4.3929,4.3212,4.266,4.2158,4.1555,4.1003,4.0526,4.0199,3.9923,3.9697,3.9697,3.9948,4.0425,4.0475,4.0953,4.1706,4.1706,4.1706,4.1439,3.8895,3.7315,3.6538,3.4336,3.3034,3.2246,3.2851,3.2949,3.2851,3.3281,3.3418,3.3418,3.3418,3.3418,3.3418,3.3418,3.3418,3.3418,3.3418,3.3418,3.3457,3.3652,3.3555,3.3574,3.4199,3.4219,3.3979,3.3747,3.274,3.0962,2.7749,2.5677,2.4317,2.3843,2.3875,2.4075,2.4396,2.4088,2.3821,2.3821,2.3407,2.3126,2.3126,2.2966,2.2859,2.2859,2.2859,2.2859,2.2859,2.2859,2.2859,2.2859,2.2859,2.2859,2.2859,2.2859,2.2859,2.2859,2.3207,2.3367,2.338,2.3541,2.3688,0.0,0.0,0.0,0.0,0.0,0.0,0.0,0.0,0.0,0.0,0.0,0.0,0.0,0.0,0.0,0.0,0.0,0.0,0.0,0.0,0.0,0.0,0.0,0.0,0.0,0.0,0.0,0.0,0.0,4.3584,4.3162,4.2384,4.1882,4.1731,4.0953,4.045,4.03,3.9898,3.9697,3.9697,3.9697,3.9697,3.9697,4.0124,4.0526,4.0927,4.1078,4.0889,4.0326,3.7557,3.6137,3.5588,3.2993,3.1934,3.1914,3.2441,3.2559,3.2539,3.3086,3.3262,3.3281,3.3379,3.334,3.3281,3.3379,3.334,3.3281,3.3398,3.3418,3.3418,3.3418,3.3418,3.3496,3.3828,3.3906,3.4023,3.4453,3.2936,3.0338,2.6902,2.4781,2.3653,2.3722,2.3781,2.4022,2.4462,2.4275,2.4102,2.4102,2.3581,2.3207,2.3207,2.3006,2.2859,2.2859,2.2859,2.2859,2.2859,2.2859,2.2859,2.2859,2.2859,2.2899,2.2979,2.2979,2.2979,2.2979,2.3514,2.3768,2.3768,2.3995,2.4128,0.0,0.0,0.0,0.0,0.0,0.0,0.0,0.0,0.0,0.0,0.0,0.0,0.0,0.0,0.0,0.0,0.0,0.0,0.0,0.0,0.0,0.0,0.0,0.0,0.0,0.0,0.0,0.0,0.0,4.2866,4.1455,4.1404,4.1153,4.0626,4.0551,4.0275,3.9747,3.9697,3.9697,3.9697,3.9697,3.9697,3.9697,3.9722,3.9747,3.9798,4.0325,3.9759,3.8262,3.6219,3.458,3.3182,3.1938,3.1309,3.1055,3.1894,3.1934,3.1699,3.2539,3.2832,3.2891,3.3301,3.3144,3.291,3.3301,3.3144,3.291,3.3301,3.3418,3.3418,3.3418,3.3418,3.3437,3.3457,3.3457,3.3574,3.4004,3.2748,3.0733,2.851,2.6838,2.5324,2.362,2.3808,2.4195,2.4222,2.3981,2.3794,2.3794,2.326,2.2886,2.2886,2.2873,2.2859,2.2859,2.2859,2.2859,2.2859,2.2859,2.2859,2.2859,2.2859,2.3006,2.33,2.33,2.33,2.33,2.3621,2.3768,2.3768,2.3781,2.3941,0.0,0.0,0.0,0.0,0.0,0.0,0.0,0.0,0.0,0.0,0.0,0.0,0.0,0.0,0.0,0.0,0.0,0.0,0.0,0.0,0.0,0.0,0.0,0.0,0.0,0.0,0.0,0.0,0.0,0.0,4.1329,4.1003,4.0727,4.0526,4.0174,3.9898,3.9697,3.9697,3.9697,3.9697,3.9697,3.9697,3.9697,3.9697,3.9697,3.9697,3.9898,3.9192,3.7631,3.6013,3.4403,3.2985,3.16,3.1016,3.0957,3.1543,3.166,3.1601,3.2187,3.2559,3.2812,3.2969,3.293,3.2871,3.3301,3.3125,3.2871,3.3301,3.3418,3.3418,3.3418,3.3418,3.3418,3.3418,3.3418,3.3204,3.215,3.0597,2.8726,2.6871,2.5081,2.3901,2.3426,2.35,2.3701,2.3901,2.3834,2.3768,2.3768,2.342,2.3153,2.3153,2.2979,2.2859,2.2859,2.2859,2.2859,2.2859,2.2859,2.2953,2.3153,2.3153,2.33,2.3607,2.3794,2.3794,2.3607,2.3901,2.4048,2.4048,2.4235,2.4382,5.0202,0.0,0.0,0.0,0.0,0.0,0.0,0.0,0.0,0.0,0.0,0.0,0.0,0.0,0.0,0.0,0.0,0.0,0.0,0.0,0.0,0.0,0.0,0.0,0.0,0.0,0.0,0.0,0.0,0.0,4.0777,4.045,4.0249,4.0249,3.9898,3.9697,3.9697,3.9697,3.9697,3.9697,3.9697,3.9697,3.9697,3.9697,3.9697,3.9697,3.9697,3.8896,3.7346,3.5945,3.4403,3.2964,3.1441,3.0898,3.0918,3.1211,3.1309,3.1387,3.1973,3.2344,3.2598,3.2754,3.2793,3.2851,3.3125,3.3008,3.2871,3.3301,3.3418,3.3418,3.3418,3.3535,3.3672,3.3809,3.3315,3.2485,3.1283,2.9952,2.8427,2.5905,2.4588,2.3625,2.3413,2.3407,2.3541,2.3741,2.3768,2.3728,2.3634,2.3354,2.3166,2.3166,2.2993,2.2859,2.2859,2.2859,2.2859,2.2859,2.2859,2.3006,2.3313,2.3327,2.3514,2.3915,2.4102,2.4155,2.4062,2.4249,2.4342,2.4356,2.4543,2.4636,0.0,0.0,0.0,0.0,0.0,0.0,0.0,0.0,0.0,0.0,0.0,0.0,0.0,0.0,0.0,0.0,0.0,0.0,0.0,0.0,0.0,0.0,0.0,0.0,0.0,0.0,0.0,0.0,0.0,3.9697,3.9697,3.9697,3.9697,3.9697,3.9697,3.9697,3.9672,3.9697,3.9697,3.9672,3.9697,3.9697,3.9697,3.9697,3.9697,3.9697,3.9697,3.8921,3.7477,3.5945,3.4403,3.2964,3.1441,3.0898,3.0898,3.0898,3.0898,3.1016,3.1836,3.2148,3.2226,3.2617,3.2754,3.2754,3.2793,3.2793,3.2871,3.3301,3.3418,3.3418,3.3437,3.375,3.418,3.459,3.335,3.1889,3.1493,3.1096,2.9752,2.6188,2.5532,2.4989,2.3566,2.3581,2.3768,2.3754,2.3754,2.3647,2.3354,2.3046,2.2859,2.2859,2.2859,2.2859,2.2859,2.2859,2.2859,2.2859,2.2859,2.3006,2.3327,2.334,2.3621,2.4209,2.4222,2.4356,2.4636,2.4636,2.4636,2.4636,2.4649,2.4649,4.9018,0.0,0.0,0.0,0.0,0.0,0.0,0.0,0.0,0.0,0.0,0.0,0.0,0.0,0.0,0.0,0.0,0.0,0.0,0.0,0.0,0.0,0.0,0.0,0.0,0.0,0.0,0.0,4.1119,3.9697,3.9697,3.9697,3.9697,3.9697,3.9697,3.9496,3.9094,3.9496,3.9496,3.9094,3.9496,3.9697,3.9697,3.9697,3.9697,3.9697,3.9697,3.9465,3.8921,3.6379,3.4403,3.2964,3.1441,3.0898,3.0898,3.0898,3.0898,3.0918,3.1172,3.1445,3.1719,3.1836,3.1875,3.1992,3.2617,3.2578,3.25,3.3223,3.3418,3.3496,3.3809,3.3984,3.418,3.459,3.4293,3.3161,3.0459,2.9682,2.8857,2.6315,2.4996,2.409,2.3776,2.3714,2.3701,2.3487,2.3447,2.334,2.3033,2.2913,2.2859,2.2859,2.2859,2.2859,2.2859,2.2859,2.2859,2.2859,2.2859,2.31,2.3621,2.3647,2.3915,2.4502,2.4516,2.4556,2.4636,2.4636,2.4636,2.4636,2.4863,2.4957,4.8477,4.8545,0.0,0.0,0.0,0.0,4.6375,4.5513,0.0,0.0,0.0,0.0,0.0,0.0,0.0,0.0,0.0,0.0,0.0,0.0,0.0,0.0,0.0,0.0,0.0,0.0,0.0,4.3504,4.1119,3.9697,3.9697,3.9697,3.9697,3.9697,3.9471,3.9195,3.8868,3.8944,3.8944,3.8868,3.9195,3.9471,3.9697,3.9697,3.9697,3.9697,3.9697,3.9697,3.9465,3.7156,3.5398,3.3845,3.1767,3.0898,3.0898,3.0898,3.0898,3.0918,3.1094,3.1309,3.1523,3.1523,3.1641,3.1875,3.2383,3.248,3.2559,3.3242,3.3555,3.3789,3.4219,3.4473,3.4726,3.5156,3.4681,3.3397,3.1147,3.0136,2.8702,2.563,2.5017,2.4762,2.4071,2.4644,2.486,2.3856,2.3594,2.3407,2.31,2.2939,2.2859,2.2859,2.2859,2.2859,2.2859,2.2859,2.2859,2.2859,2.2859,2.314,2.3741,2.3768,2.4048,2.4623,2.4636,2.4636,2.4636,2.4636,2.4636,2.4649,2.4943,2.501,4.7597,4.7868,4.7962,0.0,0.0,0.0,4.5578,4.3976,4.2779,0.0,0.0,0.0,0.0,0.0,0.0,0.0,0.0,0.0,0.0,0.0,0.0,0.0,0.0,0.0,0.0,4.5024,4.3504,4.3504,4.1119,3.9672,3.9597,3.9597,3.9572,3.9496,3.9019,3.8743,3.8693,3.8241,3.8241,3.8693,3.8743,3.9069,3.9597,3.9597,3.9647,3.9697,3.9697,3.9697,3.9594,3.8137,3.6595,3.5068,3.2207,3.0995,3.0898,3.0898,3.0898,3.0937,3.1328,3.1445,3.1445,3.1445,3.1719,3.2051,3.2148,3.2422,3.2832,3.3281,3.3691,3.4101,3.457,3.5,3.543,3.5898,3.4727,3.3357,3.2856,3.1635,2.9421,2.5356,2.5921,2.6417,2.4905,2.5927,2.6585,2.4994,2.4215,2.3789,2.3593,2.3171,2.2859,2.2859,2.2859,2.2859,2.2859,2.2859,2.2859,2.2859,2.2859,2.314,2.3741,2.3768,2.4048,2.4623,2.4636,2.4636,2.4636,2.4636,2.4649,2.469,2.4957,2.4957,0.0,0.0,0.0,0.0,0.0,0.0,4.5349,4.3753,4.2664,0.0,0.0,0.0,0.0,0.0,0.0,0.0,0.0,0.0,0.0,0.0,0.0,0.0,0.0,0.0,0.0,4.5024,4.3504,4.3504,4.1119,3.9496,3.9044,3.9044,3.8818,3.8341,3.8241,3.7965,3.7513,3.7839,3.7839,3.7513,3.7965,3.8467,3.9044,3.9044,3.927,3.9697,3.9697,3.9697,3.9594,3.8137,3.6595,3.5068,3.3304,3.1998,3.0898,3.0898,3.0898,3.0898,3.0976,3.1016,3.1016,3.1016,3.1074,3.1269,3.1953,3.2226,3.2441,3.3203,3.3476,3.373,3.4492,3.4766,3.5039,3.582,3.5743,3.5002,3.3495,3.282,3.1983,2.9563,2.9389,2.8996,2.7112,2.7112,2.7636,2.819,2.5722,2.4118,2.5033,2.383,2.2859,2.2859,2.2859,2.2859,2.2859,2.2859,2.2859,2.2859,2.2859,2.314,2.3741,2.3768,2.4048,2.4623,2.4636,2.4636,2.4636,2.4636,2.4756,2.4997,2.505,2.517,0.0,0.0,0.0,4.7216,0.0,0.0,0.0,4.3654,4.2262,4.2633,0.0,0.0,0.0,0.0,0.0,0.0,0.0,0.0,0.0,0.0,0.0,0.0,0.0,0.0,0.0,4.5598,4.3882,4.2641,4.0585,3.917,3.8894,3.8592,3.8316,3.8015,3.7739,3.7462,3.7186,3.7186,3.7186,3.7186,3.7462,3.7889,3.8442,3.8442,3.8592,3.8868,3.917,3.912,3.8894,3.8674,3.7098,3.4712,3.3535,3.2207,3.0898,3.0898,3.0898,3.0898,3.0898,3.0898,3.0898,3.0898,3.0898,3.1055,3.1914,3.2461,3.2871,3.3301,3.3574,3.3848,3.4277,3.4531,3.4805,3.5254,3.5351,3.5084,3.4105,3.3951,3.3391,3.146,3.1855,3.165,2.9042,2.9357,2.946,2.8079,2.6364,2.496,2.4493,2.3488,2.2859,2.2859,2.2859,2.2859,2.2859,2.2859,2.2859,2.2859,2.3006,2.33,2.3754,2.3915,2.4195,2.4623,2.4783,2.4863,2.4863,2.4997,2.5077,2.5077,2.5224,2.5371,0.0,0.0,0.0,0.0,0.0,4.5689,0.0,0.0,0.0,4.1778,0.0,0.0,0.0,0.0,0.0,0.0,0.0,0.0,0.0,0.0,0.0,0.0,0.0,0.0,0.0,4.5786,4.3983,4.1444,4.0094,3.9216,3.8916,3.8459,3.8252,3.8344,3.7526,3.7298,3.7749,3.6843,3.6773,3.7394,3.7107,3.7312,3.7839,3.7839,3.7914,3.804,3.8492,3.8442,3.809,3.912,3.7726,3.4786,3.3874,3.2436,3.0898,3.0898,3.0898,3.0898,3.0898,3.0898,3.0898,3.0898,3.0996,3.1269,3.1953,3.2754,3.3418,3.3418,3.3672,3.3965,3.4043,3.4316,3.459,3.4687,3.4707,3.4707,3.4707,3.4707,3.4293,3.2666,3.3558,3.3653,3.0685,3.146,3.1321,2.8063,2.7046,2.5937,2.3956,2.3282,2.2859,2.2859,2.2859,2.2859,2.2859,2.2913,2.2953,2.2953,2.3247,2.3541,2.3848,2.4128,2.4396,2.4636,2.4877,2.5024,2.5077,2.5317,2.5331,2.517,2.5411,2.5545,0.0,0.0,0.0,0.0,4.6653,0.0,0.0,0.0,4.2716,4.2108,0.0,0.0,0.0,0.0,0.0,0.0,0.0,0.0,0.0,0.0,0.0,0.0,0.0,0.0,0.0,0.0,4.2598,4.0156,4.071,4.0534,3.9029,3.883,3.9123,3.9666,3.765,3.7531,3.9557,3.7453,3.6922,3.7939,3.6973,3.6734,3.7287,3.7287,3.7538,3.8015,3.8065,3.8065,3.8065,3.8693,3.7952,3.6297,3.5414,3.3325,3.0898,3.0898,3.0898,3.0898,3.0898,3.0898,3.0898,3.0898,3.1406,3.2051,3.2148,3.2754,3.3418,3.3418,3.3457,3.3594,3.3965,3.4101,3.4238,3.4609,3.4707,3.4707,3.4707,3.4707,3.4687,3.4425,3.4264,3.3723,3.2431,3.2301,3.2295,3.1496,2.8688,2.6265,2.5381,2.3816,2.2859,2.2859,2.2859,2.2859,2.2859,2.3113,2.3273,2.3273,2.3554,2.3848,2.4142,2.4436,2.4609,2.4636,2.4676,2.4823,2.5077,2.5117,2.5251,2.5464,2.5504,2.5651,0.0,0.0,0.0,0.0,0.0,0.0,0.0,0.0,4.3713,0.0,0.0,0.0,0.0,0.0,0.0,0.0,4.0905,0.0,0.0,0.0,0.0,0.0,0.0,0.0,0.0,0.0,0.0,0.0,4.1128,4.0521,3.9384,3.9446,3.9632,3.9913,3.8917,3.8917,3.9913,3.8225,3.7586,3.8107,3.6989,3.6483,3.6709,3.6709,3.6835,3.7061,3.7387,3.7337,3.7136,3.8366,3.7808,3.6105,3.554,3.3979,3.2092,3.1228,3.0898,3.0898,3.0898,3.0898,3.0898,3.0898,3.1465,3.2168,3.2168,3.2754,3.3418,3.3418,3.3418,3.3457,3.3652,3.3691,3.375,3.3926,3.3965,3.3965,3.3965,3.3154,3.2468,3.2468,3.1411,3.0566,3.0425,3.1202,3.106,2.8659,2.7165,2.5766,2.4252,2.3393,2.2859,2.2859,2.302,2.3126,2.3126,2.3407,2.3581,2.3581,2.3861,2.4155,2.4436,2.4569,2.4636,2.4636,2.497,2.5211,2.5331,2.5678,2.5905,2.6012,2.5852,2.5932,4.7293,0.0,0.0,0.0,0.0,0.0,0.0,0.0,0.0,0.0,0.0,0.0,0.0,0.0,0.0,0.0,0.0,3.9696,0.0,0.0,0.0,0.0,0.0,0.0,0.0,0.0,0.0,0.0,0.0,4.0603,3.9953,4.0067,4.0321,4.0831,4.0232,4.0232,4.0859,3.936,3.8559,3.8559,3.7428,3.6709,3.6358,3.6358,3.6358,3.6383,3.6784,3.6734,3.6458,3.7839,3.7616,3.6333,3.5397,3.4494,3.3529,3.1556,3.0898,3.0898,3.0898,3.0898,3.0898,3.0898,3.1387,3.1992,3.1992,3.2578,3.3242,3.3242,3.332,3.3418,3.3418,3.3418,3.3418,3.3418,3.3418,3.3292,3.2765,3.1689,3.0642,3.0125,2.9083,2.8114,2.7976,2.9444,2.9676,2.6878,2.6254,2.5618,2.383,2.3201,2.2993,2.2993,2.326,2.3447,2.3447,2.3728,2.3928,2.3995,2.4209,2.4422,2.4623,2.4636,2.4676,2.4756,2.5184,2.5478,2.5638,2.6066,2.6306,2.6386,2.6172,2.6186,0.0,0.0,0.0,4.7158,0.0,0.0,0.0,0.0,4.5202,0.0,0.0,0.0,0.0,0.0,4.2069,4.259,4.0962,0.0,0.0,0.0,0.0,0.0,0.0,0.0,0.0,0.0,0.0,0.0,0.0,0.0,4.0555,4.0584,4.1389,4.314,4.1029,4.0944,4.317,4.0916,3.9798,3.9826,3.8649,3.7494,3.6358,3.6358,3.6358,3.6358,3.6383,3.6383,3.6408,3.6985,3.7538,3.7742,3.5327,3.4754,3.4847,3.1998,3.0898,3.0898,3.0898,3.0898,3.0898,3.0898,3.1191,3.1543,3.1543,3.2129,3.2812,3.2812,3.3105,3.3418,3.3418,3.3418,3.3418,3.3418,3.3418,3.2892,3.1304,3.09,3.0254,2.8558,2.8295,2.7635,2.592,2.7391,2.8826,2.8692,2.7207,2.6027,2.5427,2.4204,2.3313,2.3313,2.3581,2.3754,2.3754,2.4022,2.4302,2.4596,2.4623,2.4623,2.4636,2.4636,2.477,2.5064,2.5077,2.5371,2.5945,2.5959,2.6119,2.6386,2.6373,2.6386,0.0,0.0,4.8781,4.7767,0.0,0.0,0.0,0.0,0.0,0.0,0.0,0.0,0.0,0.0,4.2012,4.2227,4.0438,3.9106,0.0,3.8205,3.7644,0.0,0.0,0.0,0.0,0.0,0.0,0.0,0.0,0.0,0.0,4.1292,4.2041,4.2671,4.2342,4.2548,4.325,4.1782,4.0435,3.9277,3.8148,3.6949,3.5805,3.5805,3.6006,3.6358,3.6358,3.6358,3.6408,3.696,3.7513,3.7742,3.5304,3.4732,3.4958,3.1998,3.0898,3.0898,3.0898,3.0898,3.0898,3.0898,3.1172,3.1523,3.1523,3.1914,3.2441,3.2715,3.2891,3.3066,3.334,3.3418,3.3418,3.3418,3.3418,3.3292,3.2619,3.066,2.8952,2.8295,2.7238,2.6172,2.5651,2.7067,2.7547,2.529,2.5411,2.5246,2.3938,2.3542,2.3327,2.3327,2.3768,2.4062,2.4062,2.4329,2.4529,2.4623,2.4636,2.4636,2.4636,2.4636,2.4783,2.5077,2.5264,2.5558,2.5959,2.6146,2.6293,2.6386,2.6587,2.6573,4.9458,4.9593,0.0,4.8545,4.7936,0.0,4.6007,0.0,0.0,0.0,0.0,0.0,0.0,0.0,4.2766,4.2164,4.045,3.8779,0.0,3.7298,3.7075,0.0,0.0,0.0,0.0,0.0,0.0,0.0,0.0,0.0,0.0,0.0,4.1534,4.1983,4.2432,4.2455,4.2031,4.136,4.0037,3.8133,3.7357,3.6352,3.5253,3.5253,3.5554,3.6081,3.6081,3.6182,3.6383,3.6734,3.7337,3.7717,3.5096,3.4575,3.4958,3.1998,3.0898,3.0898,3.0898,3.0898,3.0898,3.0898,3.1074,3.1289,3.1289,3.1601,3.2051,3.2637,3.2793,3.293,3.3496,3.3535,3.3418,3.3418,3.3418,3.3292,3.2619,3.066,2.8952,2.8295,2.7238,2.6439,2.6439,2.737,2.737,2.5128,2.5248,2.5113,2.3924,2.3637,2.3487,2.3487,2.4008,2.4356,2.4356,2.4529,2.4636,2.4636,2.4636,2.469,2.4783,2.4796,2.5024,2.5531,2.5625,2.5865,2.6266,2.6346,2.6386,2.6386,2.6587,2.6878]},{"header":{"parameterUnit":"m.s-1","parameterCategory":1,"la1":30.6,"la2":29.2853,"lo1":-89.7004,"lo2":-87.6739,"dy":0.0162,"dx":0.0183,"nx":112,"ny":82,"refTime":"2023-04-15T06:00:00:Z","depth":0,"parameterNumber":3,"parameterNumberName":"V-component_of_WINDS"},"data":[0.0,0.0,0.0,0.0,0.0,0.0,0.0,0.0,0.0,0.0,0.0,0.0,0.0,0.0,0.0,0.0,0.0,0.0,0.0,0.0,0.0,0.0,0.0,0.0,0.0,0.0,0.0,0.0,0.0,0.0,0.0,0.0,0.0,0.0,0.0,0.0,0.0,0.0,0.0,0.0,0.0,0.0,0.0,0.0,0.0,0.0,0.0,0.0,0.0,0.0,0.0,0.0,0.0,0.0,0.0,0.0,0.0,0.0,0.0,0.0,0.0,0.0,0.0,0.0,0.0,0.0,0.0,0.0,0.0,0.0,0.0,0.0,0.0,0.0,0.0,0.0,0.0,0.0,0.0,0.0,0.0,0.0,0.0,0.0,0.0,0.0,0.0,0.0,0.0,0.0,0.0,-4.3374,-4.6226,-4.8342,-4.8951,-4.934,-4.8638,-4.642,0.0,0.0,0.0,0.0,0.0,0.0,0.0,0.0,0.0,0.0,0.0,0.0,0.0,0.0,0.0,0.0,0.0,0.0,0.0,0.0,0.0,0.0,0.0,0.0,0.0,0.0,0.0,0.0,0.0,0.0,0.0,0.0,0.0,0.0,0.0,0.0,0.0,0.0,0.0,0.0,0.0,0.0,0.0,0.0,0.0,0.0,0.0,0.0,0.0,0.0,0.0,0.0,0.0,0.0,0.0,0.0,0.0,0.0,0.0,0.0,0.0,0.0,0.0,0.0,0.0,0.0,0.0,0.0,0.0,0.0,0.0,0.0,0.0,0.0,0.0,0.0,0.0,0.0,0.0,0.0,0.0,0.0,0.0,0.0,0.0,0.0,0.0,0.0,0.0,0.0,0.0,0.0,0.0,0.0,0.0,0.0,0.0,0.0,0.0,0.0,0.0,0.0,0.0,0.0,-4.2407,-4.5004,-4.742,-4.8883,-4.8984,-4.7954,-4.6996,-4.6337,0.0,0.0,0.0,0.0,0.0,0.0,0.0,0.0,0.0,0.0,0.0,0.0,0.0,0.0,0.0,0.0,0.0,0.0,0.0,0.0,0.0,0.0,0.0,0.0,0.0,0.0,0.0,0.0,0.0,0.0,0.0,0.0,0.0,0.0,0.0,0.0,0.0,0.0,0.0,0.0,0.0,0.0,0.0,0.0,0.0,0.0,0.0,0.0,0.0,0.0,0.0,0.0,0.0,0.0,0.0,0.0,0.0,0.0,0.0,0.0,0.0,0.0,0.0,0.0,0.0,0.0,0.0,0.0,0.0,0.0,0.0,0.0,0.0,0.0,0.0,0.0,0.0,0.0,0.0,0.0,0.0,0.0,0.0,0.0,0.0,0.0,0.0,0.0,0.0,0.0,0.0,0.0,0.0,0.0,0.0,0.0,0.0,0.0,0.0,0.0,0.0,0.0,0.0,-4.2074,-4.3303,-4.6031,-4.7192,-4.797,-4.8376,-4.7056,-4.6062,-4.5681,-4.5605,0.0,0.0,0.0,0.0,0.0,0.0,0.0,0.0,0.0,0.0,0.0,0.0,0.0,0.0,0.0,0.0,0.0,0.0,0.0,0.0,0.0,0.0,0.0,0.0,0.0,0.0,0.0,0.0,0.0,0.0,0.0,0.0,0.0,0.0,0.0,0.0,0.0,0.0,0.0,0.0,0.0,0.0,0.0,0.0,0.0,0.0,0.0,0.0,0.0,0.0,0.0,0.0,0.0,0.0,0.0,0.0,0.0,0.0,0.0,0.0,0.0,0.0,0.0,0.0,0.0,0.0,0.0,0.0,0.0,0.0,0.0,0.0,0.0,0.0,0.0,0.0,0.0,0.0,0.0,0.0,0.0,0.0,0.0,0.0,0.0,0.0,0.0,0.0,0.0,0.0,0.0,0.0,0.0,0.0,0.0,0.0,0.0,0.0,0.0,0.0,0.0,0.0,-4.3303,-4.4297,-4.6573,-4.6955,-4.7293,-4.7868,-4.621,-4.5138,-4.5082,-4.4092,0.0,0.0,0.0,0.0,0.0,0.0,0.0,0.0,0.0,0.0,0.0,0.0,0.0,0.0,0.0,0.0,0.0,0.0,0.0,0.0,0.0,0.0,0.0,0.0,0.0,0.0,0.0,0.0,0.0,0.0,0.0,0.0,0.0,0.0,0.0,0.0,0.0,0.0,0.0,0.0,0.0,0.0,0.0,0.0,0.0,0.0,0.0,0.0,0.0,0.0,0.0,0.0,0.0,0.0,0.0,0.0,0.0,0.0,0.0,0.0,0.0,0.0,0.0,0.0,0.0,0.0,0.0,0.0,0.0,0.0,0.0,0.0,0.0,0.0,0.0,0.0,0.0,0.0,0.0,0.0,0.0,0.0,0.0,0.0,0.0,0.0,0.0,0.0,0.0,0.0,0.0,0.0,0.0,0.0,0.0,0.0,0.0,0.0,0.0,0.0,0.0,0.0,-4.3627,-4.5083,-4.6616,-4.7428,-4.7868,-4.7936,-4.5263,-4.3973,-4.5012,-4.3147,0.0,0.0,0.0,0.0,0.0,0.0,0.0,0.0,0.0,0.0,0.0,0.0,0.0,0.0,0.0,0.0,0.0,0.0,0.0,0.0,0.0,0.0,0.0,0.0,0.0,0.0,0.0,0.0,0.0,0.0,0.0,0.0,0.0,0.0,0.0,0.0,0.0,0.0,0.0,0.0,0.0,0.0,0.0,0.0,0.0,0.0,0.0,0.0,0.0,0.0,0.0,0.0,0.0,0.0,0.0,0.0,0.0,0.0,0.0,0.0,0.0,0.0,0.0,0.0,0.0,0.0,0.0,0.0,0.0,0.0,0.0,0.0,0.0,0.0,0.0,0.0,0.0,0.0,0.0,0.0,0.0,0.0,0.0,0.0,0.0,0.0,0.0,0.0,0.0,0.0,0.0,0.0,0.0,0.0,0.0,0.0,0.0,0.0,0.0,0.0,0.0,0.0,-4.2794,-4.391,0.0,-4.594,-4.5838,-4.5838,-4.435,-4.346,-4.3729,0.0,0.0,0.0,0.0,0.0,0.0,0.0,0.0,0.0,0.0,0.0,0.0,0.0,0.0,0.0,0.0,0.0,0.0,0.0,0.0,0.0,0.0,0.0,0.0,0.0,0.0,0.0,0.0,0.0,0.0,0.0,0.0,0.0,0.0,0.0,0.0,0.0,0.0,0.0,0.0,0.0,0.0,0.0,0.0,0.0,0.0,0.0,0.0,0.0,0.0,0.0,0.0,0.0,0.0,0.0,0.0,0.0,0.0,0.0,0.0,0.0,0.0,0.0,0.0,0.0,0.0,0.0,0.0,0.0,0.0,0.0,0.0,0.0,0.0,0.0,0.0,0.0,0.0,0.0,0.0,0.0,0.0,0.0,0.0,0.0,0.0,0.0,0.0,0.0,0.0,0.0,0.0,0.0,0.0,0.0,0.0,0.0,0.0,0.0,0.0,0.0,0.0,-4.2117,-4.2489,-4.3436,0.0,-4.5229,-4.4823,-4.4587,-4.362,-4.2959,-4.2926,0.0,0.0,0.0,0.0,0.0,0.0,0.0,0.0,0.0,0.0,0.0,0.0,0.0,0.0,0.0,0.0,0.0,0.0,0.0,0.0,0.0,0.0,0.0,0.0,0.0,0.0,0.0,0.0,0.0,0.0,0.0,0.0,0.0,0.0,0.0,0.0,0.0,0.0,0.0,0.0,0.0,0.0,0.0,0.0,0.0,0.0,0.0,0.0,0.0,0.0,0.0,0.0,0.0,0.0,0.0,0.0,0.0,0.0,0.0,0.0,0.0,0.0,0.0,0.0,0.0,0.0,0.0,0.0,0.0,0.0,0.0,0.0,0.0,0.0,0.0,0.0,0.0,0.0,0.0,0.0,0.0,0.0,0.0,0.0,0.0,0.0,0.0,0.0,0.0,0.0,0.0,0.0,0.0,0.0,0.0,0.0,0.0,0.0,0.0,0.0,0.0,0.0,-4.2117,-4.2963,-4.4012,-4.5534,-4.5703,-4.5399,-4.4621,-4.3083,-4.2335,0.0,0.0,0.0,0.0,0.0,0.0,0.0,0.0,0.0,0.0,0.0,0.0,0.0,0.0,0.0,0.0,0.0,0.0,0.0,0.0,0.0,0.0,0.0,0.0,0.0,0.0,0.0,0.0,0.0,0.0,0.0,0.0,0.0,0.0,0.0,0.0,0.0,0.0,0.0,0.0,0.0,0.0,0.0,0.0,0.0,0.0,0.0,0.0,0.0,0.0,0.0,0.0,0.0,0.0,0.0,0.0,0.0,0.0,0.0,0.0,0.0,0.0,0.0,0.0,0.0,0.0,0.0,0.0,0.0,0.0,0.0,0.0,0.0,0.0,0.0,0.0,0.0,0.0,0.0,0.0,0.0,0.0,0.0,0.0,0.0,0.0,0.0,0.0,0.0,0.0,0.0,0.0,0.0,0.0,0.0,0.0,0.0,0.0,0.0,0.0,0.0,0.0,0.0,-4.2117,-4.2489,-4.32,-4.4756,-4.4925,-4.4384,-4.3064,-4.2945,-4.2683,-4.2157,0.0,0.0,0.0,0.0,0.0,0.0,0.0,0.0,0.0,0.0,0.0,0.0,0.0,0.0,0.0,0.0,0.0,0.0,0.0,0.0,0.0,0.0,0.0,0.0,0.0,0.0,0.0,0.0,0.0,0.0,0.0,0.0,0.0,0.0,0.0,0.0,0.0,0.0,0.0,0.0,0.0,0.0,0.0,0.0,0.0,0.0,0.0,0.0,0.0,0.0,0.0,0.0,0.0,0.0,0.0,0.0,0.0,0.0,0.0,0.0,0.0,0.0,0.0,0.0,0.0,0.0,0.0,0.0,0.0,0.0,0.0,0.0,0.0,0.0,0.0,0.0,0.0,0.0,0.0,0.0,0.0,0.0,0.0,0.0,0.0,0.0,0.0,0.0,0.0,0.0,0.0,0.0,0.0,0.0,0.0,0.0,0.0,0.0,0.0,0.0,0.0,0.0,-4.2117,-4.2286,-4.2861,-4.4418,-4.4316,-4.3606,-4.2388,-4.2817,-4.2717,-4.1839,0.0,0.0,0.0,0.0,0.0,0.0,0.0,0.0,0.0,0.0,0.0,0.0,0.0,0.0,0.0,0.0,0.0,0.0,0.0,0.0,0.0,0.0,0.0,0.0,0.0,0.0,0.0,0.0,0.0,0.0,0.0,0.0,0.0,0.0,0.0,0.0,0.0,0.0,0.0,0.0,0.0,0.0,0.0,0.0,0.0,0.0,0.0,0.0,0.0,0.0,0.0,0.0,0.0,0.0,0.0,0.0,0.0,0.0,0.0,0.0,0.0,0.0,0.0,0.0,0.0,0.0,0.0,0.0,0.0,0.0,0.0,0.0,0.0,0.0,0.0,0.0,0.0,0.0,0.0,0.0,0.0,0.0,0.0,0.0,0.0,0.0,0.0,0.0,0.0,0.0,0.0,0.0,0.0,0.0,0.0,0.0,0.0,0.0,0.0,0.0,0.0,0.0,-4.2189,-4.2445,-4.2988,-4.4427,-4.3973,-4.3226,-4.2359,-4.273,-4.2668,-4.1931,0.0,0.0,0.0,0.0,0.0,0.0,0.0,0.0,0.0,0.0,0.0,0.0,0.0,0.0,0.0,0.0,0.0,0.0,0.0,0.0,0.0,0.0,0.0,0.0,0.0,0.0,0.0,0.0,0.0,0.0,0.0,0.0,0.0,0.0,0.0,0.0,0.0,0.0,0.0,0.0,0.0,0.0,0.0,0.0,0.0,0.0,0.0,0.0,0.0,0.0,0.0,0.0,0.0,0.0,0.0,0.0,0.0,0.0,0.0,0.0,-3.9529,0.0,0.0,0.0,0.0,0.0,0.0,0.0,0.0,0.0,0.0,0.0,0.0,0.0,0.0,0.0,0.0,0.0,0.0,0.0,0.0,0.0,0.0,0.0,0.0,0.0,0.0,0.0,0.0,0.0,0.0,0.0,0.0,0.0,0.0,0.0,0.0,0.0,0.0,0.0,0.0,0.0,-4.2886,-4.345,-4.3895,-4.4371,-4.4669,-4.4104,-4.2285,-4.3041,-4.3288,-4.2573,-4.3142,0.0,0.0,0.0,0.0,0.0,0.0,0.0,0.0,0.0,0.0,0.0,0.0,0.0,0.0,0.0,0.0,0.0,0.0,0.0,0.0,0.0,0.0,0.0,0.0,0.0,0.0,0.0,0.0,0.0,0.0,0.0,0.0,0.0,0.0,0.0,0.0,0.0,0.0,0.0,0.0,0.0,0.0,0.0,0.0,0.0,0.0,0.0,0.0,0.0,0.0,0.0,0.0,0.0,0.0,0.0,0.0,0.0,0.0,0.0,0.0,-4.0487,0.0,0.0,0.0,0.0,0.0,0.0,0.0,0.0,0.0,0.0,0.0,0.0,0.0,0.0,0.0,0.0,0.0,0.0,0.0,0.0,0.0,0.0,0.0,0.0,0.0,0.0,0.0,0.0,0.0,0.0,0.0,0.0,0.0,0.0,0.0,0.0,0.0,0.0,0.0,0.0,-4.3477,-4.3568,-4.387,-4.4668,-4.4378,-4.3648,-4.2555,-4.2959,-4.3087,-4.2729,-4.3214,0.0,0.0,0.0,0.0,0.0,0.0,0.0,0.0,0.0,0.0,0.0,0.0,0.0,0.0,0.0,0.0,0.0,0.0,0.0,0.0,0.0,0.0,0.0,0.0,0.0,0.0,0.0,0.0,0.0,0.0,0.0,0.0,0.0,0.0,0.0,0.0,0.0,0.0,0.0,0.0,0.0,0.0,0.0,0.0,0.0,0.0,0.0,0.0,0.0,0.0,0.0,0.0,0.0,0.0,-4.5185,-4.5185,-4.5723,-4.6052,-4.6052,-4.4436,-4.2731,-4.1115,0.0,0.0,0.0,0.0,0.0,0.0,0.0,0.0,0.0,0.0,0.0,0.0,0.0,0.0,0.0,0.0,0.0,0.0,0.0,0.0,0.0,0.0,0.0,0.0,0.0,-4.4079,-4.2489,0.0,0.0,0.0,0.0,0.0,0.0,0.0,0.0,0.0,0.0,0.0,0.0,-4.3855,-4.3586,-4.3657,-4.4849,-4.3942,-4.3124,-4.2896,-4.2821,-4.2808,-4.2808,-4.325,-4.3497,0.0,0.0,0.0,0.0,0.0,0.0,0.0,0.0,0.0,0.0,0.0,0.0,0.0,0.0,0.0,0.0,0.0,0.0,0.0,0.0,0.0,0.0,0.0,0.0,0.0,0.0,0.0,0.0,0.0,0.0,0.0,0.0,-3.3972,-3.4449,0.0,0.0,0.0,0.0,0.0,0.0,0.0,0.0,0.0,0.0,0.0,0.0,0.0,0.0,-4.3778,-4.5693,-4.6651,-4.6681,-4.7967,-4.8626,-4.8626,-4.8716,-4.9045,-4.9583,-4.9314,0.0,-4.3718,-4.2671,0.0,0.0,0.0,0.0,0.0,0.0,0.0,0.0,0.0,0.0,0.0,0.0,0.0,0.0,0.0,0.0,0.0,0.0,0.0,0.0,0.0,0.0,-4.4485,-4.4688,-4.4485,-4.4079,0.0,-4.2238,-4.175,-4.2714,-4.1973,0.0,0.0,0.0,0.0,0.0,0.0,0.0,-4.3804,-4.4267,-4.4343,-4.4097,-4.4304,-4.4015,-4.2832,-4.3142,-4.3391,-4.3391,-4.3463,-4.3497,-4.3497,-4.3387,0.0,0.0,0.0,0.0,0.0,0.0,0.0,0.0,0.0,0.0,0.0,0.0,0.0,0.0,0.0,0.0,0.0,0.0,0.0,0.0,0.0,0.0,0.0,0.0,0.0,0.0,0.0,0.0,0.0,-3.4399,-3.5152,-3.4776,-3.5278,-3.5203,0.0,0.0,0.0,0.0,0.0,0.0,0.0,0.0,0.0,-4.4107,-4.5454,-4.6441,-4.71,-4.8686,-4.9703,-5.0062,-5.102,-5.1678,-5.2067,-5.2426,-5.2755,-5.2995,-5.2636,-5.1259,-4.9075,-4.6292,-4.4466,-4.3329,0.0,0.0,0.0,0.0,-4.2993,-4.3749,-4.3936,-4.3684,0.0,0.0,0.0,0.0,0.0,0.0,0.0,0.0,0.0,0.0,0.0,0.0,0.0,-4.6346,-4.6143,-4.5838,-4.594,-4.479,-4.3591,0.0,-4.2858,-4.2581,-4.2364,0.0,0.0,0.0,0.0,-4.3579,-4.4856,-4.4821,-4.4784,-4.5001,-4.4821,-4.4307,-4.3251,-4.3356,-4.3497,-4.3497,-4.3497,-4.3497,-4.3497,-4.3497,-4.3497,0.0,0.0,0.0,0.0,0.0,0.0,0.0,0.0,0.0,0.0,0.0,0.0,0.0,0.0,0.0,0.0,0.0,0.0,0.0,0.0,0.0,0.0,0.0,0.0,0.0,0.0,0.0,0.0,-3.5755,-3.6433,-3.5479,-3.6609,-3.6684,0.0,0.0,0.0,0.0,0.0,0.0,-4.2931,-4.3591,-4.4958,-4.7519,-4.8835,-4.9853,-5.0541,-5.1828,-5.2725,-5.3234,-5.3862,-5.4461,-5.497,-5.5448,-5.5688,-5.5628,-5.4999,-5.4311,-5.3384,-4.9434,-4.692,-4.5454,-4.4287,-4.4164,-4.4787,-4.5246,-4.5677,-4.6095,-4.6914,-4.6389,-4.5538,-4.6327,0.0,-4.4205,-4.4249,0.0,0.0,0.0,0.0,-4.5263,-4.5838,-4.6515,-4.7259,-4.8037,-4.7767,-4.7462,-4.7834,-4.7056,-4.5738,0.0,-4.4011,-4.4112,-4.3152,0.0,0.0,0.0,0.0,-4.4232,-4.5443,-4.4892,-4.4635,-4.5223,-4.4745,-4.4158,-4.3534,-4.3497,-4.3497,-4.3497,-4.3497,-4.3497,-4.3497,-4.3497,-4.3497,-4.3497,0.0,0.0,0.0,0.0,0.0,0.0,0.0,0.0,0.0,0.0,0.0,0.0,0.0,0.0,0.0,0.0,0.0,0.0,0.0,0.0,0.0,0.0,0.0,0.0,0.0,0.0,0.0,0.0,0.0,-3.7136,-3.8994,0.0,0.0,0.0,0.0,-4.0426,-4.1625,-4.3692,-4.6867,-4.8178,-4.9583,-5.093,-5.2247,-5.3264,-5.3952,-5.5269,-5.5957,-5.5987,-5.6585,-5.6915,-5.6944,-5.6974,-5.7004,-5.6974,-5.6346,-5.5688,-5.479,-5.081,-4.9105,-4.8775,-4.6202,-4.5963,-4.7147,-4.6929,-4.7334,-4.7997,-4.8486,-4.8725,-4.8759,-4.8849,-4.7868,-4.6591,-4.665,-4.6109,0.0,0.0,-4.6075,-4.6684,-4.6718,-4.7293,-4.8037,-4.8781,-4.8917,-4.8714,-4.8071,-4.7868,-4.7267,0.0,-4.5229,-4.4849,-4.3904,0.0,-4.548,-4.471,-4.46,-4.4672,-4.4745,-4.4048,-4.3571,-4.3608,-4.3571,-4.3534,-4.3497,-4.3497,-4.3497,-4.3497,-4.3497,-4.3497,-4.3497,-4.3497,-4.3497,-4.3497,-4.3497,0.0,0.0,0.0,0.0,0.0,0.0,0.0,0.0,0.0,0.0,0.0,0.0,0.0,0.0,0.0,0.0,0.0,0.0,0.0,0.0,0.0,0.0,0.0,0.0,0.0,0.0,0.0,0.0,-4.0375,-4.2032,0.0,0.0,-4.0325,-4.1286,-4.4153,-4.5149,-4.7247,-5.0926,-5.1947,-5.3234,-5.494,-5.5897,-5.6885,-5.7992,-5.8441,-5.8919,-5.9338,-5.9129,-5.9009,-5.9009,-5.9009,-5.88,-5.8351,-5.7693,-5.7034,-5.6226,-5.4012,-5.2306,-5.102,-4.9643,-4.9687,-5.061,-5.1069,-5.135,-5.1586,-5.1765,-5.1193,-5.0202,-4.8781,-4.7631,-4.6718,-4.6244,-4.5568,-4.5094,-4.5568,-4.6244,-4.6921,-4.7394,-4.8071,-4.868,-4.8951,-4.9018,-4.8951,-4.868,-4.8967,-4.8931,-4.7865,-4.6413,-4.5341,-4.5173,-4.529,-4.5401,-4.548,-4.548,-4.5663,-4.6177,-4.5993,-4.5626,-4.5112,-4.5039,-4.4635,-4.3571,-4.3497,-4.3497,-4.3497,-4.3497,-4.3497,-4.3497,-4.3497,-4.3497,-4.3497,-4.3497,-4.3497,0.0,0.0,0.0,0.0,0.0,0.0,0.0,0.0,0.0,0.0,0.0,0.0,0.0,0.0,0.0,0.0,0.0,0.0,0.0,0.0,0.0,0.0,0.0,0.0,0.0,0.0,-4.2585,-4.2936,-4.4794,-4.5447,-4.3966,-4.3664,-4.4797,-4.7929,-4.8913,-5.1108,-5.5018,-5.5837,-5.6885,-5.8411,-5.889,-5.9548,-6.0416,-6.0446,-6.0655,-6.1104,-6.0655,-6.0446,-6.0416,-6.0176,-5.9847,-5.9398,-5.8501,-5.7872,-5.7363,-5.6286,-5.494,-5.3443,-5.2306,-5.2427,-5.3334,-5.4007,-5.4281,-5.4384,-5.399,-5.2875,-5.1352,-4.9864,-4.8883,-4.8206,-4.7699,-4.7225,-4.6921,-4.7428,-4.7902,-4.8409,-4.8917,-4.939,-4.9695,-4.9424,-4.9357,-4.9351,-4.935,-4.9664,-4.9903,-4.9644,-4.8377,-4.7216,-4.6848,-4.6928,-4.7041,-4.713,-4.6911,-4.6911,-4.7462,-4.7058,-4.6507,-4.5957,-4.5663,-4.5076,-4.4011,-4.3644,-4.3497,-4.3497,-4.3497,-4.3497,-4.3497,-4.3497,-4.3497,-4.3497,-4.3497,-4.3497,-4.3497,0.0,0.0,0.0,0.0,0.0,0.0,0.0,0.0,0.0,0.0,0.0,0.0,0.0,0.0,0.0,0.0,0.0,0.0,0.0,0.0,0.0,0.0,0.0,-3.9747,-4.2635,-4.4719,-4.4794,-4.7205,-4.8008,-4.5899,-4.7104,-4.9057,-5.1618,-5.2867,-5.5196,-5.9021,-5.9787,-6.0446,-6.1134,-6.1134,-6.1164,-6.1164,-6.1164,-6.1164,-6.1164,-6.1164,-6.1164,-6.1134,-6.0446,-6.0116,-6.0027,-5.871,-5.8141,-5.8082,-5.7393,-5.6735,-5.5987,-5.4042,-5.404,-5.5158,-5.5502,-5.583,-5.5996,-5.4925,-5.3619,-5.2334,-5.23,-5.1826,-5.1251,-5.1217,-5.1217,-5.1217,-5.1217,-5.1217,-5.1217,-5.1217,-5.1217,-5.1048,-5.0304,-5.0101,-5.0113,-5.0068,-5.0033,-5.0235,-5.0821,-5.0948,-5.0488,-4.8945,-4.9852,-5.0545,-4.9738,-4.8893,0.0,-4.8343,-4.6948,-4.5957,-4.5957,-4.5259,-4.4745,-4.4709,-4.3975,-4.3534,-4.3497,-4.3497,-4.3497,-4.3497,-4.3497,-4.3497,-4.3497,-4.3497,-4.3497,-4.3497,0.0,0.0,0.0,0.0,0.0,0.0,0.0,0.0,0.0,0.0,0.0,0.0,0.0,0.0,0.0,0.0,0.0,0.0,0.0,0.0,0.0,0.0,-4.2032,-4.2585,-4.4844,-4.7029,-4.8636,-4.9866,-5.0519,-5.0318,-5.0318,-5.1613,-5.4726,-5.5243,-5.6981,-6.0313,-6.0715,-6.1134,-6.1792,-6.1822,-6.2061,-6.254,-6.254,-6.254,-6.254,-6.254,-6.2301,-6.1792,-6.1134,-6.0565,-6.0027,-5.9189,-5.856,-5.8112,-5.7932,-5.7184,-5.6107,-5.5568,-5.6015,-5.6931,-5.6463,-5.6075,-5.5732,-5.4903,-5.3957,-5.3078,-5.2503,-5.2164,-5.1894,-5.1386,-5.1217,-5.1217,-5.1217,-5.1217,-5.1217,-5.1217,-5.1217,-5.1183,-5.0947,-5.0878,-5.0883,-5.0876,-5.121,-5.1571,-5.173,-5.2182,-5.2053,-5.0488,-5.0538,-5.0729,-5.0508,-4.9774,0.0,-4.9224,-4.8306,-4.7425,-4.6838,-4.6581,-4.5993,-4.4819,-4.4525,-4.4121,-4.3534,-4.3497,-4.3497,-4.3497,-4.3497,-4.3497,-4.3497,-4.3497,-4.3497,0.0,0.0,0.0,0.0,0.0,0.0,0.0,0.0,0.0,0.0,0.0,0.0,0.0,0.0,0.0,0.0,0.0,0.0,0.0,0.0,0.0,0.0,-4.3162,-4.5246,-4.6728,-4.7832,-4.9163,-5.0921,-5.1624,-5.2176,-5.2729,-5.3106,-5.4656,-5.7421,-5.8103,-5.9578,-6.2187,-6.2091,-6.2121,-6.251,-6.251,-6.269,-6.3079,-6.3079,-6.3079,-6.3079,-6.3079,-6.2869,-6.248,-6.1553,-6.0894,0.0,-5.9518,-5.889,-5.853,-5.853,-5.7932,0.0,0.0,0.0,0.0,0.0,-5.6989,-5.5649,-5.5209,-5.4397,-5.3416,-5.2942,-5.2807,-5.2739,-5.23,-5.2164,-5.2164,-5.2164,-5.2164,-5.2164,-5.2164,-5.2164,-5.2061,-5.1765,-5.1649,-5.1662,-5.1614,-5.1865,-5.2159,-5.2509,-5.2893,0.0,-5.1977,-5.183,-5.183,-5.183,-5.0839,-5.0105,-5.0105,-4.904,-4.8122,-4.7645,-4.7021,-4.6214,-4.5296,-4.4599,0.0,0.0,0.0,-4.3497,-4.3497,-4.3497,0.0,0.0,0.0,-4.3644,-4.4011,0.0,0.0,0.0,-4.3791,-4.3758,0.0,0.0,0.0,0.0,0.0,0.0,0.0,0.0,0.0,0.0,0.0,0.0,0.0,0.0,0.0,0.0,-4.6652,-4.841,-5.0996,-5.1021,-5.1147,-5.2076,-5.2678,-5.3206,-5.3658,-5.5449,-5.7384,-5.9614,-6.0989,-6.2307,-6.3889,0.0,0.0,0.0,0.0,-6.3079,-6.3079,-6.3079,-6.3079,-6.3079,-6.3079,-6.3079,-6.3049,-6.1792,-6.1194,-6.1044,-5.9757,-5.9189,-5.9099,-5.9009,-5.8667,-5.7993,-5.6998,-5.7518,-5.8871,-5.9744,-5.8254,-5.5716,-5.5716,0.0,0.0,-5.3518,-5.3518,-5.3518,-5.3518,-5.3518,-5.3518,-5.3518,-5.3518,-5.3518,-5.3518,-5.3551,-5.3443,-5.2762,-5.2612,-5.2621,-5.24,-5.2376,-5.2536,-5.306,-5.3225,-5.3225,-5.3225,-5.3225,-5.3225,-5.3225,-5.1903,-5.0912,-5.0802,-4.9407,-4.8416,-4.8306,0.0,0.0,-4.592,-4.4599,-4.3681,-4.3497,-4.3497,-4.3497,-4.3497,-4.3497,-4.3497,-4.3497,-4.3571,-4.3975,-4.4709,-4.4782,-4.5223,-4.5883,-4.4415,-4.4141,0.0,0.0,0.0,0.0,0.0,0.0,0.0,0.0,0.0,0.0,0.0,0.0,0.0,0.0,0.0,-4.5874,-4.8184,-5.0293,-5.1749,-5.2603,-5.298,-5.2779,-5.3231,-5.3582,-5.3683,-5.5813,-5.7839,-5.9669,-6.1387,-6.2774,-6.3919,-6.3887,0.0,-6.3079,-6.3079,-6.3079,-6.3079,-6.3079,-6.3079,-6.3079,0.0,0.0,-6.3049,-6.2271,-6.1613,-6.1074,-6.0236,-5.9608,-5.9069,-5.853,-5.82,-5.8122,-5.8876,-5.8806,-5.8527,-5.9688,-5.8254,-5.5716,-5.5716,-5.4735,-5.3518,-5.3518,-5.3518,-5.3518,-5.3518,-5.3518,0.0,-5.3518,-5.3518,-5.3518,-5.3518,-5.3946,-5.435,-5.4164,-5.4578,-5.4825,-5.4179,-5.3971,-5.3829,-5.3292,-5.3225,-5.3225,-5.3225,-5.3225,-5.3225,-5.3225,-5.238,-5.1536,-5.0875,-4.9958,-4.9077,-4.8379,-4.8012,-4.7315,-4.5993,-4.559,-4.4892,-4.3571,-4.3497,-4.3497,-4.3497,-4.3497,-4.3497,-4.3497,-4.4158,-4.4562,-4.4709,-4.5369,-4.5736,-4.5883,-4.559,-4.5482,0.0,0.0,0.0,0.0,0.0,0.0,0.0,0.0,0.0,0.0,0.0,-4.1756,0.0,0.0,-4.6828,-4.8535,-5.0193,-5.1649,-5.2754,-5.3356,-5.3607,-5.3356,-5.3808,-5.4361,-5.4913,-5.7736,-6.0157,-6.1568,-6.3578,-6.4921,-6.5503,-6.4545,-6.3857,-6.3558,-6.3228,-6.3079,-6.3079,-6.3079,-6.3079,-6.3079,-6.3079,-6.3079,-6.3049,-6.2391,-6.1912,-6.1553,-6.0535,-5.9907,-5.9627,-5.9213,-5.914,-5.9349,-5.9942,-5.9369,-5.8459,-5.9665,-5.8254,-5.5716,-5.5716,-5.4735,-5.3518,-5.3518,-5.3518,-5.3518,-5.3518,-5.3518,-5.3518,-5.3518,-5.3518,-5.3518,-5.3518,-5.4042,-5.4591,-5.4535,-5.483,-5.4977,-5.4553,-5.4107,-5.3702,-5.3298,-5.3225,-5.3225,-5.3225,-5.3225,-5.3225,-5.3225,-5.2527,-5.172,-5.0912,-5.0105,-4.926,-4.8379,-4.7939,-4.7388,-4.6581,-4.5773,-4.4782,-4.3571,-4.3497,-4.3497,-4.3497,-4.3497,-4.3681,-4.4085,-4.4488,-4.5112,-4.592,-4.6502,-4.7013,-4.7418,-4.7586,-4.7011,0.0,0.0,0.0,0.0,0.0,0.0,0.0,0.0,-4.0109,-4.266,-4.3564,-4.4644,-4.7029,-4.8134,-4.9364,-5.1297,-5.2151,-5.2879,-5.3758,-5.4059,-5.4185,-5.4185,-5.4612,-5.5408,-5.6827,-6.0119,-6.2585,-6.3719,-6.5863,-6.7059,-6.6819,-6.5144,-6.4126,-6.4006,-6.3408,-6.3079,-6.3079,-6.3079,-6.3079,-6.3079,-6.3079,-6.3079,-6.3049,-6.254,-6.2151,-6.1822,-6.0475,-5.9817,-5.9717,-5.9758,-6.0066,-6.0508,-6.0283,-5.9531,-5.8781,-5.9607,-5.822,-5.5919,-5.5784,-5.4837,-5.3687,-5.3551,-5.3518,-5.3518,-5.3518,-5.3518,-5.3518,-5.3518,-5.3518,-5.3484,-5.3685,-5.4264,-5.4825,-5.4909,-5.5091,-5.5112,-5.4935,-5.4363,-5.3812,-5.3482,-5.3445,-5.3408,-5.3225,-5.3225,-5.3225,-5.3225,-5.2637,-5.194,-5.1132,-5.0325,-4.9481,-4.8636,-4.7829,-4.7278,-4.7131,-4.5773,-4.4672,-4.4011,-4.3828,-4.3718,-4.3718,-4.3718,-4.4048,-4.4709,-4.5039,-4.581,-4.7131,-4.767,-4.8245,-4.8911,-4.9386,-4.8455,-3.387,-3.3369,0.0,-3.4958,-3.5378,-3.6675,0.0,0.0,-4.2409,-4.586,-4.6979,-4.7606,-4.8435,-5.0268,-5.1875,-5.2628,-5.3607,-5.4336,-5.4461,-5.5315,-5.5917,-5.5917,-5.5993,-5.6946,-5.9215,-6.1786,-6.3716,-6.4954,-6.6833,-6.7358,-6.6191,-6.5353,-6.4635,-6.4006,-6.3408,-6.3079,-6.3079,-6.3079,-6.3079,-6.3079,-6.3079,-6.3079,-6.3079,-6.2989,-6.2331,-6.1164,-5.9787,-5.889,-5.8398,-5.8868,-5.9377,-5.9928,-5.9651,-5.9705,-5.9861,-5.9295,-5.8084,-5.6596,-5.5953,-5.5175,-5.4363,-5.3721,-5.3518,-5.3518,-5.3518,-5.3518,-5.3518,-5.3518,-5.3518,-5.3685,-5.4328,-5.5024,-5.5745,-5.6455,-5.7133,-5.7391,-5.6712,-5.6455,-5.5978,-5.4546,-5.4289,-5.4032,-5.3335,-5.3225,-5.3225,-5.3225,-5.3115,-5.2784,-5.1977,-5.1169,-5.0362,-4.9517,-4.8673,-4.7902,-4.7168,-4.6287,-4.5736,-4.5626,-4.4966,-4.4562,-4.4562,-4.4562,-4.4635,-4.4709,-4.6104,-4.6948,-4.7131,-4.8192,-4.8803,-4.8911,-4.9673,-4.9491,-3.5714,0.0,0.0,0.0,-3.8275,-4.034,-4.333,-4.4476,-4.5721,-4.8459,-4.9741,-5.072,-5.1925,-5.2904,-5.3708,0.0,-5.4737,-5.5164,-5.5491,-5.5917,-5.6732,-5.8002,-5.8172,-5.8941,-6.0697,-6.2796,-6.4803,-6.6739,-6.8023,-6.8345,-6.7777,-6.637,-6.5293,-6.4605,-6.3947,-6.3438,-6.3079,-6.3079,-6.3079,-6.3079,-6.3079,-6.3079,-6.3079,-6.3079,-6.2361,-6.1074,-6.0535,-5.9458,-5.8158,-5.9451,-5.9917,-5.9767,-5.9845,-5.9934,-6.0013,-5.9268,-5.8084,-5.6697,-5.5987,-5.5209,-5.4465,-5.3754,-5.3518,-5.3518,-5.3518,-5.3518,-5.3518,-5.3518,-5.3518,-5.3651,-5.4419,-5.5144,-5.5893,-5.6721,-5.7122,-5.7226,-5.6859,-5.6418,-5.5757,-5.462,-5.4399,-5.4142,-5.3335,-5.3225,-5.3225,-5.3225,-5.3225,-5.2931,-5.2087,-5.1316,-5.0288,-4.8967,-4.8526,-4.7976,-4.7205,-4.6801,-4.6397,-4.592,-4.559,-4.5406,-4.5406,-4.5406,-4.5626,-4.6104,-4.6764,-4.7463,-4.8157,-4.8894,-4.9386,-4.9617,-5.0183,-5.027,-3.7996,0.0,0.0,-3.9988,-4.1971,-4.4281,-4.5914,-4.7431,-4.9138,-5.1322,-5.2327,-5.3206,-5.4536,-5.4913,-5.5139,-5.5541,-5.5867,-5.6168,-5.6394,-5.6445,-5.7226,-5.911,-5.9421,-6.0217,-6.2317,-6.4109,-6.6053,-6.8497,-6.898,-6.9093,-6.8734,-6.6999,-6.5712,-6.5054,-6.4186,-6.3528,-6.3079,-6.3079,-6.3079,-6.3079,-6.3079,-6.3079,-6.3079,-6.269,-6.2002,-6.1104,-6.0715,-5.9638,-5.8158,-5.9648,-6.0073,-5.9826,-5.9676,-5.9852,-5.9979,-5.9032,-5.8017,-5.7002,-5.6258,-5.5649,-5.5074,-5.4363,-5.4126,-5.4059,-5.3856,-5.3788,-5.3754,-5.3551,-5.3518,-5.3651,-5.4419,-5.4999,-5.561,-5.6367,-5.6681,-5.6802,-5.6802,-5.6502,-5.6014,-5.5207,-5.506,-5.4803,-5.3995,-5.3702,-5.3628,-5.3849,-5.3482,-5.3004,-5.2417,-5.1646,-5.0508,-4.882,-4.8673,-4.8343,-4.7498,-4.7462,-4.7205,-4.6617,-4.6361,-4.625,-4.625,-4.625,-4.6507,-4.7057,-4.7352,-4.7905,-4.8878,-4.9295,-4.97,-5.0111,-5.0504,-5.0702,-4.1114,0.0,-4.32,-4.4853,-4.6481,-4.8259,-5.0619,-5.1548,-5.2578,-5.4787,-5.4838,-5.4662,-5.5265,-5.5792,-5.6168,-5.6194,-5.7097,-5.7625,-5.7097,-5.7022,-5.7359,-5.8638,-5.8841,-6.0423,0.0,-6.6251,-6.7829,-6.9863,-6.9961,-6.9393,-6.8076,-6.6729,-6.5712,-6.5054,-6.3767,-6.3109,-6.3079,-6.3079,-6.3079,-6.3079,-6.3079,-6.3079,-6.3019,-6.1762,-6.1164,-6.1044,-5.9727,-5.877,-5.8158,-5.8715,-5.9251,-5.9735,-5.8703,-5.9052,-5.9911,-5.8457,-5.7881,-5.7746,-5.7036,-5.6765,-5.6596,-5.5886,-5.5649,-5.5513,-5.4769,-5.4566,-5.4397,-5.3687,-5.3518,-5.3651,-5.4419,-5.4606,-5.4818,-5.5552,-5.6331,-5.6876,-5.6876,-5.7462,-5.7703,-5.6895,-5.6748,-5.6492,-5.5647,-5.4876,-5.462,-5.539,-5.4216,-5.3188,-5.3188,-5.2454,-5.1353,-4.9701,-4.9554,-4.9187,-4.8343,-4.8269,-4.8269,-4.8233,-4.7498,-4.7095,-4.7095,-4.7095,-4.7095,-4.7131,-4.7865,-4.8458,-4.8878,-4.9295,-4.97,-5.0111,-5.0504,-5.0702,-4.2434,0.0,-4.6125,-4.7807,-4.9188,-5.0619,-5.2452,-5.303,-5.3381,-5.411,-5.3858,-5.3532,-5.3708,-5.3909,-5.4386,-5.5491,-5.6595,-5.7524,-5.8077,-5.925,-6.0145,-6.0426,-6.1623,0.0,0.0,0.0,0.0,-6.9773,-6.9572,-6.9123,-6.8675,-6.7807,-6.661,-6.5084,-6.4605,-6.3947,-6.3079,-6.3079,-6.3079,-6.3079,-6.3079,-6.2839,-6.2421,-6.1972,-6.1283,-6.0416,-5.9967,-5.9129,-5.8158,-5.8715,-5.9251,-5.9735,-5.8703,-5.9052,-5.9911,-5.8423,-5.7881,-5.778,-5.707,-5.6799,-5.6697,-5.5953,-5.5716,-5.5683,-5.5412,-5.5344,-5.5277,-5.504,-5.46,-5.4398,-5.5115,-5.4988,-5.4818,-5.5552,-5.5893,-5.6114,-5.6114,-5.6721,-5.7048,-5.6249,-5.6473,-5.6528,-5.5721,-5.5354,-5.5097,-5.484,-5.4326,-5.3628,-5.2527,-5.216,-5.1573,-5.0508,-4.9921,-4.9481,-4.9187,-4.8636,-4.8306,-4.8306,-4.8049,-4.7902,-4.7902,-4.7902,-4.7902,-4.7902,-4.8159,-4.864,-4.9295,-4.9445,-4.9846,-5.0504,-5.0624,-5.0702,-4.4468,-4.6351,-4.846,-5.0318,-5.1473,-5.2528,-5.3984,-5.416,-5.411,-5.4511,-5.3557,-5.2703,-5.2879,-5.2603,-5.2829,-5.426,-5.544,-5.662,-5.7926,-5.9127,-6.0234,-6.1273,-6.2688,-6.4047,0.0,0.0,0.0,-6.9153,-6.9093,-6.8884,-6.8645,-6.8196,-6.7059,-6.5084,-6.4784,-6.4156,-6.3079,-6.3079,-6.3079,-6.3079,-6.3079,-6.272,-6.2091,-6.1852,-6.1134,-6.0086,-5.9847,-5.8979,-5.7828,-5.8623,-5.9126,-5.9415,-5.8899,-5.9318,-5.9945,-5.8727,-5.8118,-5.7814,-5.734,-5.7171,-5.7103,-5.663,-5.6494,-5.6461,-5.619,-5.6089,-5.6055,-5.5784,-5.5175,-5.4703,-5.5172,-5.4785,-5.4328,-5.4757,-5.532,-5.5724,-5.5724,-5.6527,-5.712,-5.6612,-5.6912,-5.7042,-5.6528,-5.6455,-5.6088,-5.4987,-5.506,-5.4583,-5.2674,-5.2417,-5.2123,-5.1316,-5.0765,-5.0325,-5.0031,-4.9517,-4.9077,-4.8783,-4.8746,-4.8636,-4.8306,-4.8306,-4.8306,-4.8306,-4.8458,-4.8847,-4.9504,-4.9645,-5.0024,-5.0702,-5.0702,-5.0702,-4.7305,-4.8912,-5.0318,-5.2477,-5.3381,-5.4034,-5.5089,-5.4938,-5.4838,-5.5767,-5.3808,-5.2051,0.0,0.0,-5.1498,-5.2653,-5.3858,-5.5239,-5.6972,-5.732,-5.8396,0.0,0.0,0.0,0.0,0.0,0.0,-6.7867,0.0,-6.8675,-6.8046,-6.8016,-6.7089,-6.5084,-6.4395,-6.3737,-6.3079,-6.3079,-6.3079,-6.3079,-6.3079,-6.272,-6.2061,-6.1403,-6.0745,-6.0057,-5.9398,-5.8351,-5.7228,-5.8438,-5.8875,-5.887,-5.9343,-5.9751,-6.0013,-5.9268,-5.8524,-5.7881,-5.7881,-5.7881,-5.7881,-5.7881,-5.7881,-5.7746,-5.707,-5.6867,-5.6697,-5.6021,-5.5277,-5.4702,-5.4668,-5.4093,-5.3551,-5.3585,-5.4606,-5.5667,-5.5724,-5.684,-5.795,-5.795,-5.7997,-5.7997,-5.7997,-5.7997,-5.7483,-5.5904,-5.6308,-5.5941,-5.3592,-5.3261,-5.2968,-5.216,-5.2013,-5.1683,-5.0949,-5.0839,-5.0472,-4.9701,-4.9591,-4.9224,-4.8416,-4.8343,-4.8306,-4.8306,-4.8674,-4.9108,-4.9504,-4.9898,-5.0313,-5.0702,-5.0741,-5.0741,-4.9364,-5.1197,-5.2904,-5.3909,-5.4235,-5.4411,-5.4712,-5.4662,-5.4185,-5.2829,-5.0996,-4.9163,0.0,0.0,0.0,-5.1373,-5.4009,0.0,-5.9131,-6.0341,0.0,-6.3853,0.0,-6.5763,-6.7354,-6.7029,0.0,0.0,-6.8136,-6.8375,-6.8704,-6.8734,-6.7597,-6.5114,-6.4844,-6.4216,-6.3079,-6.3079,-6.3079,-6.3079,-6.3079,-6.272,-6.2061,-6.1403,-6.0745,-6.0057,-5.9398,-5.862,-5.7918,-5.8653,-5.9157,-5.9575,-5.9539,-5.9751,-6.0013,-5.9268,-5.8524,-5.7881,-5.7881,-5.7881,-5.7881,-5.7881,-5.7881,-5.7848,-5.7679,-5.7611,-5.7577,-5.7374,-5.6799,-5.6122,-5.5581,-5.4871,-5.4364,-5.4338,-5.4606,-5.5024,-5.561,-5.6474,-5.7166,-5.7166,-5.7594,-5.7997,-5.7997,-5.7997,-5.7666,-5.6638,-5.6675,-5.6161,-5.4326,-5.4106,-5.3812,-5.2968,-5.2344,-5.1903,-5.172,-5.1132,-5.0729,-5.0508,-4.9921,-4.9481,-4.926,-4.8636,-4.8306,-4.8306,-4.8674,-4.9108,-4.9504,-4.9898,-5.0313,-5.0702,-5.1318,-5.1587,-5.1724,-5.3306,-5.4637,-5.544,-5.5465,-5.5089,-5.4361,-5.3833,-5.2779,-5.0318,-4.8284,0.0,-4.502,0.0,0.0,0.0,0.0,0.0,-5.9182,-6.0702,-6.2472,0.0,-6.6336,0.0,-6.8758,-6.8525,-6.8465,0.0,-6.8585,-6.8465,-6.8555,-6.8824,-6.7926,-6.5533,-6.5173,-6.4395,-6.3079,-6.3079,-6.3079,-6.3079,-6.3079,-6.272,-6.2061,-6.1403,-6.0745,-6.0027,0.0,-5.858,-5.848,-5.9016,-5.9627,-6.0184,-6.0208,-6.0181,-6.0047,-5.9641,-5.8795,-5.7949,-5.8254,-5.8152,-5.7881,-5.7881,-5.7881,-5.7881,-5.7881,-5.7881,-5.7881,-5.7881,-5.7374,-5.6697,-5.6292,-5.5621,-5.5035,-5.507,-5.5364,-5.5759,-5.615,-5.6825,-5.7401,-5.7401,-5.7726,-5.7997,-5.7997,-5.7997,-5.785,-5.7409,-5.7336,-5.6859,-5.5611,-5.484,-5.4216,-5.3775,-5.3004,-5.2527,-5.2527,-5.2123,-5.172,-5.1353,-5.0582,-4.9958,-4.9591,-4.8746,-4.8306,-4.8306,-4.8674,-4.9011,-4.9234,-4.9645,-4.9949,-5.0159,-5.0999,-5.119,-5.421,-5.529,-5.5942,-5.6922,-5.6671,-5.5742,-5.4009,-5.2703,-5.1046,-4.8083,-4.5849,-4.4217,-4.3589,-4.4468,-4.6075,-4.8586,0.0,-5.4938,-5.8504,-5.9784,-6.1768,-6.5564,-6.7016,-6.8412,-6.9981,-7.0191,-7.0231,-7.0231,-6.9632,-6.8914,-6.8136,-6.8675,-6.8046,-6.5951,-6.5233,-6.4306,-6.3079,-6.3079,-6.3079,-6.3079,-6.3079,-6.278,-6.2211,-6.1463,-6.0775,-6.0146,0.0,0.0,-5.8944,-5.9568,-6.0081,-6.0637,-6.1245,-6.096,-6.025,-6.025,-5.9302,-5.8118,-5.8795,-5.8524,-5.7881,-5.7881,-5.7881,-5.7881,-5.7881,-5.7881,-5.7881,-5.7881,-5.7442,-5.6934,-5.6833,-5.6371,-5.5992,-5.5911,-5.656,-5.7201,-5.7195,-5.7729,-5.8143,-5.8033,-5.7997,-5.7997,-5.7997,-5.7997,-5.7997,-5.7997,-5.7997,-5.774,-5.7042,-5.5537,-5.4509,-5.4399,-5.3702,-5.3225,-5.3225,-5.3225,-5.2894,-5.2197,-5.1389,-5.0655,-4.9921,-4.9077,-4.8636,-4.8636,-4.9008,-4.9176,-4.9064,-4.9558,-4.9768,-4.9692,-5.0606,-5.0644,-5.6344,-5.7022,-5.7499,-5.77,-5.6972,-5.5666,-5.3532,-5.185,0.0,0.0,-4.4166,-4.2961,-4.1957,-4.3037,-4.5422,-4.9464,0.0,0.0,0.0,0.0,-6.1685,0.0,0.0,0.0,0.0,0.0,0.0,0.0,0.0,0.0,-6.8884,-6.8944,-6.7837,-6.5293,-6.4545,-6.3827,-6.3079,-6.3079,-6.3079,-6.3079,-6.3079,-6.3019,-6.2869,-6.1672,-6.1044,-6.0835,-5.8949,0.0,-5.8944,-5.9568,-6.0081,-6.067,-6.1782,-6.1738,-6.1095,-6.1095,-6.0114,-5.8829,-5.8964,-5.8524,-5.7881,-5.7881,-5.7881,-5.7881,-5.7881,-5.7881,-5.7881,-5.7881,-5.7814,-5.7577,-5.6968,-5.7227,-5.7404,-5.6832,-5.783,-5.8891,-5.8811,-5.8893,-5.8804,-5.8143,-5.7997,-5.7997,-5.7997,-5.7997,-5.7997,-5.7997,-5.7997,-5.796,-5.7813,-5.6381,-5.5133,-5.4473,-5.3702,-5.3225,-5.3225,-5.3225,-5.3151,-5.3004,-5.2234,-5.172,-5.1573,-5.0802,-5.0362,-5.0362,-5.0713,-5.0557,-4.9887,-5.0954,-5.1134,-5.053,-5.2076,-5.268,-5.8102,-5.873,-5.9156,-5.9156,-5.8102,-5.6118,-5.2452,0.0,0.0,-4.3388,-4.2057,-4.1455,-4.0626,-4.2057,0.0,0.0,0.0,0.0,0.0,0.0,0.0,0.0,0.0,0.0,0.0,0.0,0.0,0.0,0.0,0.0,-6.9064,-6.8345,-6.7059,-6.5084,-6.4695,-6.4066,-6.3079,-6.3079,-6.3079,-6.3079,-6.3079,-6.3079,-6.3019,-6.1702,-6.1104,-6.0984,-5.862,0.0,-5.9853,-5.9465,-6.0196,-6.1561,-6.1784,-6.1603,-6.1298,-6.1298,-6.0588,-5.9573,-5.9573,-5.9099,-5.8423,-5.8017,-5.7881,-5.7881,-5.7881,-5.7881,-5.7881,-5.7881,-5.7881,-5.7814,-5.7442,-5.8014,-5.8562,-5.8189,-5.8663,-5.9224,-5.9187,-5.8877,-5.8474,-5.807,-5.7997,-5.7997,-5.7997,-5.7997,-5.7997,-5.7997,-5.7997,-5.7997,-5.7997,-5.6969,-5.6088,-5.5684,-5.495,-5.4289,-5.3849,-5.3812,-5.3665,-5.3225,-5.2454,-5.1977,-5.1977,-5.1242,-5.0802,-5.0802,-5.0966,-5.086,-5.0453,-5.1046,-5.1117,-5.0782,-5.2009,-5.2344,-5.9408,-6.0085,-6.0462,-6.0362,-5.9006,-5.642,-5.1523,-4.8937,0.0,-4.1505,-4.0425,-4.0249,-3.9923,-4.1279,-4.3162,0.0,-4.7682,-5.1021,0.0,0.0,0.0,0.0,0.0,0.0,0.0,0.0,0.0,0.0,0.0,0.0,-6.8824,-6.7508,-6.6251,-6.5054,-6.4874,-6.4246,-6.3079,-6.3079,-6.3079,-6.3079,-6.3079,-6.3079,-6.3019,-6.1702,-6.1104,-6.0984,-5.8411,0.0,0.0,-5.943,-6.0304,-6.2199,-6.1728,-6.1535,-6.1535,-6.1535,-6.1028,-6.0317,-6.0148,-5.9641,-5.8896,-5.8118,-5.7881,-5.7881,-5.7881,-5.8017,-5.8084,-5.7915,-5.8017,-5.8084,-5.7915,-5.8695,-5.9537,-5.9893,-5.9832,-5.9685,-5.9501,-5.9098,-5.8621,-5.8107,-5.8143,-5.8217,-5.8033,-5.7997,-5.7997,-5.7997,-5.7997,-5.7997,-5.7997,-5.7446,-5.7079,-5.7079,-5.6161,-5.5317,-5.4693,-5.4656,-5.4326,-5.3518,-5.2858,-5.2417,-5.227,-5.1646,-5.1316,-5.1316,-5.1316,-5.1242,-5.1059,-5.1242,-5.1242,-5.1096,-5.1867,-5.1903,-6.0085,-6.0663,-6.0989,-6.0462,-5.8704,-5.5942,-5.1448,0.0,-4.5321,-4.1329,-4.0124,-3.9898,-4.035,-4.0601,-4.1957,0.0,0.0,-4.9992,-5.5516,-5.765,-5.9508,-6.2114,0.0,0.0,0.0,0.0,0.0,0.0,0.0,0.0,0.0,-6.6819,-6.5772,-6.5054,-6.4425,-6.3767,-6.3079,-6.3079,-6.3079,-6.3079,-6.3079,-6.3079,-6.3019,-6.1702,-6.1104,-6.0984,-5.8919,0.0,0.0,-5.9758,-6.0494,-6.1679,-6.2119,-6.2279,-6.2279,-6.2279,-6.1839,-6.1095,-6.0351,-5.9641,-5.8896,-5.8118,-5.7881,-5.7881,-5.7881,-5.8355,-5.8761,-5.8084,-5.8389,-5.8761,-5.8051,-5.9111,-6.0653,-6.2109,-6.1898,-6.119,-6.0456,-6.0823,-6.0603,-5.8437,-5.8584,-5.8877,-5.8143,-5.7997,-5.7997,-5.7997,-5.7997,-5.7997,-5.7997,-5.7923,-5.7886,-5.7886,-5.6528,-5.5574,-5.55,-5.5464,-5.5133,-5.4326,-5.4216,-5.3849,-5.3115,-5.3041,-5.3004,-5.3004,-5.3004,-5.2637,-5.1867,-5.2637,-5.2601,-5.1903,-5.2711,-5.3078,-5.9985,-6.1215,-6.2044,-6.1466,-5.8905,-5.5566,-5.18,-4.8008,-4.4392,-4.1178,-4.0074,-3.9772,-3.9973,-4.0023,-4.0752,-4.2961,-4.3664,-4.5773,-5.0996,-5.2603,-5.4913,-5.9483,0.0,0.0,0.0,0.0,0.0,0.0,0.0,0.0,0.0,-6.652,-6.5712,-6.5054,-6.4366,-6.3707,-6.3079,-6.3079,-6.3079,-6.3079,-6.3079,-6.3079,-6.3019,-6.1702,-6.1104,-6.1014,-5.8979,0.0,0.0,-5.9885,-6.0502,-6.1692,-6.2219,-6.2381,-6.2381,-6.2381,-6.2212,-6.1772,-6.052,-5.9911,-5.9471,-5.8287,-5.7881,-5.7983,-5.8423,-5.9099,-5.9607,-5.9302,-5.9133,-5.9078,-5.9282,-6.0247,-6.1436,-6.2515,-6.2181,-6.152,-6.119,-6.0603,-5.9869,-5.8914,-5.8584,-5.84,-5.807,-5.7997,-5.7997,-5.7997,-5.7997,-5.7997,-5.7997,-5.7997,-5.7997,-5.7997,-5.7409,-5.6859,-5.6345,-5.6308,-5.5757,-5.4473,-5.4399,-5.4032,-5.3225,-5.3225,-5.3225,-5.3225,-5.3225,-5.3041,-5.2711,-5.3041,-5.3041,-5.2747,-5.3078,-5.3225,-5.9307,-6.119,-6.2446,-6.1893,-5.8956,-5.529,-5.1825,-4.7707,-4.384,-4.1078,-4.0074,-3.9697,-3.9697,-3.9697,-3.9998,-4.0953,-4.1505,-4.3338,-4.7682,-4.9188,-5.1674,0.0,0.0,0.0,0.0,0.0,0.0,0.0,0.0,0.0,0.0,-6.5369,-6.4961,-6.5054,-6.4186,-6.3528,-6.3079,-6.3079,-6.3079,-6.3079,-6.3079,-6.3079,-6.3019,-6.1702,-6.1104,-6.1014,0.0,0.0,0.0,-5.9598,-6.0248,-6.1349,-6.1765,-6.211,-6.2381,-6.2381,-6.2381,-6.2178,-6.0622,-6.0114,-5.9844,-5.8355,-5.8051,-5.8355,-5.9099,-5.9539,-5.9776,-5.9776,-5.9235,-5.888,-5.9702,-6.0599,-6.1436,-6.2271,-6.2178,-6.1814,-6.1337,-6.0529,-5.9722,-5.8988,-5.8584,-5.829,-5.8033,-5.8217,-5.8253,-5.8033,-5.8217,-5.8253,-5.8033,-5.7997,-5.7997,-5.7997,-5.7997,-5.7776,-5.7189,-5.7152,-5.6565,-5.5207,-5.5097,-5.4656,-5.3592,-5.3555,-5.3445,-5.3225,-5.3225,-5.3225,-5.3225,-5.3225,-5.3225,-5.3225,-5.3225,-5.3225,-5.7976,-6.0337,-6.1893,-6.1341,-5.8679,-5.5189,-5.1297,-4.7431,-4.384,-4.1078,-4.0074,-3.9697,-3.9697,-3.9697,-3.9873,-4.0425,-4.1882,-4.394,-4.6753,-4.9038,0.0,0.0,0.0,0.0,0.0,0.0,0.0,0.0,0.0,0.0,0.0,-6.31,-6.3211,-6.4905,-6.3767,-6.3079,-6.3079,-6.3079,-6.3079,-6.3079,-6.3079,-6.3079,-6.3019,-6.1702,-6.1104,0.0,0.0,0.0,0.0,-5.8991,-5.9627,-6.07,-6.0598,-6.1317,-6.2381,-6.2381,-6.2381,-6.2178,-6.0622,-6.0114,-5.9844,-5.8355,-5.8389,-5.9133,-5.9877,-5.9573,-5.9032,-5.9032,-5.849,-5.8099,-5.8875,-5.9768,-6.058,-6.14,-6.2182,-6.2365,-6.075,-6.1006,-6.086,-5.8474,-5.8657,-5.8951,-5.8143,-5.8657,-5.8914,-5.8107,-5.8694,-5.8914,-5.8107,-5.7997,-5.7997,-5.7997,-5.7997,-5.7997,-5.7997,-5.7997,-5.7629,-5.6822,-5.6785,-5.6051,-5.4436,-5.4399,-5.3995,-5.3225,-5.3225,-5.3225,-5.3225,-5.3225,-5.3225,-5.3225,-5.3225,-5.3225,-5.3181,-5.5239,-5.6696,-5.5767,-5.3607,-5.1071,-4.8711,-4.5748,-4.2936,-4.0927,-4.0074,-3.9697,-3.9697,-3.9697,-4.0124,-4.143,-4.2082,-4.3263,0.0,0.0,0.0,0.0,0.0,0.0,0.0,0.0,0.0,0.0,0.0,0.0,0.0,-6.2744,-6.3058,-6.4905,-6.3767,-6.3079,-6.3079,-6.3079,-6.3079,-6.3079,-6.3079,-6.3079,-6.3019,-6.1702,0.0,0.0,0.0,0.0,0.0,-5.8991,-5.9627,-6.07,-6.0598,-6.1317,-6.2381,-6.2381,-6.2076,-6.1501,-6.0452,-6.0114,-5.9844,-5.8355,-5.8389,-5.9066,-5.9302,-5.9539,-5.9641,-5.9167,-5.9609,-6.0079,-5.932,-5.9768,-6.0458,-6.07,-6.0938,-6.1178,-6.1208,-6.0989,-6.0747,-6.0469,-6.0236,-5.9942,-5.9685,-5.9869,-5.9758,-5.8951,-5.9061,-5.8914,-5.8107,-5.7997,-5.7997,-5.7997,-5.7997,-5.7997,-5.7997,-5.7997,-5.7666,-5.6859,-5.6822,-5.6088,-5.4473,-5.4399,-5.4032,-5.3225,-5.3225,-5.3225,-5.3225,-5.3225,-5.3225,-5.3225,-5.3225,-5.3225,-4.9414,-5.1624,-5.3155,-5.2477,-5.0795,-4.8862,-4.7205,-4.4669,-4.2258,-4.0802,-4.0074,-3.9697,-3.9697,-3.9697,-4.0023,-4.1053,-4.158,-4.2559,-4.4568,0.0,0.0,0.0,0.0,0.0,0.0,0.0,0.0,0.0,0.0,0.0,0.0,-6.1487,-6.2064,-6.4516,-6.3617,-6.3079,-6.3079,-6.3079,-6.3079,-6.3079,-6.3079,-6.3079,-6.3019,-6.1702,0.0,0.0,0.0,0.0,0.0,-5.8899,-5.9502,-6.0348,-6.05,-6.115,-6.1975,-6.1975,-6.1704,-6.1197,-6.0385,-6.0114,-5.9911,-5.8693,-5.8626,-5.8964,-5.8693,-5.9302,-5.9877,-5.8863,-5.9507,-6.0213,-5.8942,-5.9279,-5.9896,-5.9896,-6.0149,-6.0509,-6.104,-6.0774,-6.0557,-6.1043,-6.075,-6.0419,-6.0419,-6.0639,-6.0566,-5.9795,-5.9648,-5.9355,-5.8547,-5.818,-5.7997,-5.7997,-5.7997,-5.7997,-5.7997,-5.7997,-5.7776,-5.7299,-5.7262,-5.6528,-5.4913,-5.484,-5.4326,-5.3225,-5.3225,-5.3225,-5.3225,-5.3225,-5.3225,-5.3225,-5.3225,-5.3225,0.0,-4.8937,-5.067,-5.0594,-4.9439,-4.7883,-4.6276,-4.3915,0.0,-4.0676,-4.0049,-3.9697,-3.9697,-3.9697,-3.9722,-3.9798,-4.0701,-4.1982,0.0,0.0,0.0,0.0,0.0,0.0,0.0,0.0,0.0,0.0,0.0,0.0,0.0,-5.9496,-6.0535,-6.38,-6.3378,-6.3079,-6.3079,-6.3079,-6.3079,-6.3079,-6.3079,-6.3079,-6.3019,-6.1702,0.0,0.0,0.0,0.0,0.0,-5.8583,-5.9124,-5.9864,-6.0185,-6.0736,-6.1298,-6.1231,-6.1231,-6.1129,-6.0351,-6.0148,-6.0047,-5.9336,-5.9032,-5.8795,-5.8084,-5.8964,-5.9877,-5.8389,-5.8524,-5.893,-5.8152,-5.8458,-5.8976,-5.8976,-5.9704,-6.0342,-6.0388,-6.0466,-6.052,-6.0567,-6.0566,-6.0566,-6.0566,-6.119,-6.141,-6.0603,-6.0493,-6.0199,-5.9391,-5.8584,-5.8107,-5.8107,-5.8033,-5.7997,-5.7997,-5.7997,-5.7997,-5.7997,-5.7997,-5.7262,-5.5647,-5.5574,-5.484,-5.3225,-5.3225,-5.3225,-5.3225,-5.3225,-5.3225,-5.3225,-5.3261,-5.3298,-4.0626,0.0,-4.4719,-4.389,-4.3689,-4.3388,0.0,-4.1706,0.0,0.0,0.0,0.0,-3.9697,-3.9697,-3.9973,-4.0802,-4.153,-4.2534,-4.4192,0.0,0.0,0.0,0.0,0.0,0.0,0.0,0.0,0.0,0.0,0.0,0.0,-6.0202,-6.1473,-6.3318,-6.3139,-6.3079,-6.3079,-6.3079,-6.3079,-6.3079,-6.3079,-6.3079,-6.3019,-6.1702,0.0,0.0,0.0,0.0,-5.8022,-5.7136,-5.7973,-5.974,-5.8759,-5.958,-6.1231,-6.0622,-6.0385,-6.0351,-6.0182,-6.052,-6.0892,-6.0114,-5.9066,-5.8118,-5.7949,-5.937,-6.0689,-5.9167,-5.9268,-5.9674,-5.893,-5.8434,-5.8209,-5.8209,-5.8806,-5.9569,-6.0245,-6.092,-6.1498,-6.2105,-6.2254,-6.2254,-6.2254,-6.2401,-6.2254,-6.1447,-6.13,-6.1043,-6.0236,-5.9428,-5.8914,-5.8914,-5.8364,-5.7997,-5.7997,-5.7997,-5.7997,-5.7997,-5.7997,-5.7262,-5.5647,-5.5574,-5.484,-5.3225,-5.3225,-5.3225,-5.3225,-5.3225,-5.3225,-5.3225,-5.3849,-5.4106,-3.814,-3.9747,-4.1379,-4.1053,-4.1379,-4.1555,-4.0701,-4.0752,0.0,0.0,0.0,0.0,0.0,0.0,-3.9973,-4.0827,-4.163,-4.3187,0.0,0.0,0.0,0.0,0.0,0.0,0.0,0.0,0.0,0.0,0.0,0.0,0.0,-6.0527,-6.1608,-6.3079,-6.3079,-6.3079,-6.3079,-6.278,-6.278,-6.3079,-6.248,-6.2331,-6.26,-6.1253,-6.0655,0.0,0.0,0.0,-5.7678,-5.7787,-5.8185,-5.8902,-5.9206,-5.9738,-6.0182,-5.9776,-5.981,-6.0114,-6.0114,-6.0385,-6.0554,-5.9438,-5.8524,-5.7881,-5.7881,-5.8998,-6.0013,-5.8829,-5.9032,-5.9438,-5.8693,-5.8186,-5.7881,-5.7881,-5.8494,-5.9311,-6.0211,-6.0997,-6.1824,-6.2618,-6.2805,-6.2805,-6.2805,-6.2805,-6.2658,-6.2218,-6.1851,-6.1447,-6.1006,-5.9942,-5.9208,-5.9208,-5.8474,-5.7997,-5.7997,-5.7997,-5.7997,-5.7997,-5.7997,-5.7446,-5.6198,-5.5794,-5.484,-5.3225,-5.3225,-5.3225,-5.3225,-5.3592,-5.3739,-5.3775,-5.4583,-5.495,-3.7638,-3.8542,-3.9798,-4.0174,-4.0676,-4.0978,-4.0501,0.0,0.0,0.0,0.0,0.0,0.0,0.0,0.0,0.0,0.0,0.0,0.0,0.0,0.0,0.0,0.0,0.0,0.0,0.0,0.0,0.0,0.0,0.0,0.0,-6.1039,-6.1525,-6.3079,-6.3079,-6.3079,-6.3079,-6.2421,-6.2331,-6.275,-6.1642,-6.1403,-6.1912,-6.0655,-6.0027,0.0,0.0,0.0,-5.7372,-5.8656,-5.8754,-5.8162,-5.9984,-5.9996,-5.8998,-5.8896,-5.9302,-5.9945,-6.0047,-6.0047,-5.9742,-5.8457,-5.7983,-5.7881,-5.7881,-5.8355,-5.8693,-5.8084,-5.8423,-5.8863,-5.822,-5.7983,-5.7881,-5.7881,-5.8633,-5.9509,-6.0211,-6.1113,-6.1969,-6.2705,-6.2805,-6.2805,-6.2805,-6.2805,-6.2805,-6.2805,-6.2218,-6.1777,-6.1777,-6.0493,-5.9575,-5.9575,-5.8731,-5.818,-5.818,-5.807,-5.7997,-5.7997,-5.7997,-5.7593,-5.6675,-5.5831,-5.473,-5.3225,-5.3335,-5.3408,-5.3408,-5.4179,-5.4583,-5.4583,-5.539,-5.5757,-3.8266,-3.9145,-3.9597,-3.922,-3.9546,-3.9923,-3.9848,0.0,0.0,0.0,0.0,0.0,0.0,0.0,0.0,0.0,0.0,0.0,0.0,0.0,0.0,0.0,0.0,0.0,0.0,0.0,0.0,0.0,0.0,0.0,0.0,-6.1969,-6.2817,-6.3079,-6.3079,-6.3079,-6.3079,-6.2421,-6.1882,-6.1403,-6.1224,-6.1164,-6.1253,-6.0446,-5.9787,0.0,0.0,-5.7444,-5.7814,-5.6931,-5.7592,-5.9118,-5.8228,-5.8297,-5.893,-5.8287,-5.8524,-5.9268,-5.9877,-5.9708,-5.9133,-5.893,-5.8423,-5.7881,-5.7881,-5.7983,-5.8051,-5.7915,-5.8423,-5.8998,-5.8863,-5.8355,-5.7881,-5.7881,-5.9078,-6.0211,-6.0335,-6.1548,-6.2618,-6.2755,-6.2805,-6.2805,-6.2805,-6.2805,-6.2805,-6.2805,-6.2695,-6.2622,-6.2622,-6.1814,-6.1227,-6.1227,-5.9905,-5.9024,-5.9024,-5.84,-5.7997,-5.7997,-5.7997,-5.7336,-5.5831,-5.5023,-5.4142,-5.3225,-5.3885,-5.4216,-5.4216,-5.5023,-5.5427,-5.5427,-5.6235,-5.6638,-3.7387,-3.814,-3.8868,-3.922,-4.0174,-4.0877,-4.0275,0.0,0.0,0.0,0.0,0.0,0.0,0.0,0.0,0.0,0.0,0.0,0.0,0.0,0.0,0.0,0.0,0.0,0.0,0.0,0.0,0.0,0.0,0.0,0.0,0.0,-6.3079,-6.3079,-6.272,-6.2391,-6.2032,-6.1343,-6.1044,-6.1104,-6.0027,-5.9488,-5.9488,-5.877,-5.8291,-5.7962,0.0,-5.688,-5.7363,-5.7025,-5.7396,-5.8247,-5.8174,-5.8278,-5.8423,-5.8457,-5.8727,-5.9066,-5.9404,-5.9302,-5.893,-5.8524,-5.8186,-5.7881,-5.7881,-5.7881,-5.7881,-5.7881,-5.8152,-5.8423,-5.8423,-5.8447,-5.8564,-5.8564,-5.9797,-6.1055,-6.1055,-6.1969,-6.2805,-6.2805,-6.2805,-6.2805,-6.2805,-6.2805,-6.2805,-6.2805,-6.2805,-6.2805,-6.2805,-6.2108,-6.1594,-6.1594,-6.0566,-5.9685,-5.9245,-5.8877,-5.8474,-5.8033,-5.7997,-5.7483,-5.6308,-5.5904,-5.5317,-5.4509,-5.484,-5.506,-5.506,-5.5868,-5.6235,-5.6271,-5.7079,-5.7446,-3.6784,-3.7563,-3.8617,-3.9471,0.0,-4.153,-4.1329,0.0,0.0,0.0,0.0,0.0,0.0,0.0,0.0,0.0,0.0,0.0,0.0,0.0,0.0,0.0,0.0,0.0,0.0,0.0,0.0,0.0,0.0,0.0,0.0,0.0,-6.2839,-6.2839,-6.2211,-6.1553,-6.0864,-6.0206,-6.0027,-6.0386,-5.886,-5.8052,-5.7872,-5.7184,-5.6885,-5.6825,-5.6047,-5.6229,-5.6996,-5.7153,-5.7372,-5.7719,-5.8496,-5.8389,-5.7949,-5.8524,-5.8761,-5.8761,-5.8761,-5.8761,-5.866,-5.8084,-5.7881,-5.7881,-5.7881,-5.7881,-5.7881,-5.7881,-5.7881,-5.7881,-5.7881,-5.8494,-5.9111,-5.9111,-6.0361,-6.1604,-6.1604,-6.2219,-6.2805,-6.2805,-6.2805,-6.2805,-6.2805,-6.2805,-6.2805,-6.2805,-6.2805,-6.2805,-6.2805,-6.2254,-6.1887,-6.1887,-6.1153,-6.0224,-5.9006,-5.8933,-5.8519,-5.7534,-5.7821,-5.7584,-5.6556,-5.6694,-5.6418,-5.5611,-5.5794,-5.5823,-5.5606,-5.6585,-5.6988,-5.6849,-5.7611,-5.7997,-3.7613,-3.8718,-3.9597,-3.9672,-3.9798,0.0,-4.3011,-4.276,0.0,0.0,0.0,0.0,0.0,0.0,0.0,0.0,0.0,0.0,0.0,0.0,0.0,0.0,0.0,0.0,0.0,0.0,0.0,0.0,0.0,0.0,0.0,0.0,0.0,-6.2181,-6.1523,-6.0864,-6.0176,-5.9518,-5.889,-5.8321,-5.8201,-5.7782,-5.7154,-5.6526,-5.6226,-5.6166,-5.491,-5.5555,-5.7548,-5.6262,-5.6988,-5.8781,-5.8254,-5.7949,-5.7881,-5.7949,-5.7983,-5.7983,-5.7983,-5.7983,-5.7949,-5.7915,-5.7881,-5.7881,-5.7881,-5.7881,-5.7881,-5.7881,-5.7881,-5.7881,-5.7881,-5.8494,-5.9111,-5.9111,-6.0361,-6.1604,-6.1604,-6.2219,-6.2805,-6.2805,-6.2805,-6.2805,-6.2805,-6.2805,-6.2805,-6.2805,-6.2805,-6.2805,-6.2805,-6.2768,-6.2732,-6.2732,-6.1998,-6.0578,-5.8368,-5.8208,-5.7495,-5.5984,-5.7216,-5.7313,-5.5858,-5.6426,-5.6418,-5.5611,-5.6345,-5.64,-5.5699,-5.7204,-5.7569,-5.6942,-5.7642,-5.7997,-3.686,-3.8065,-3.927,-3.9622,0.0,0.0,0.0,0.0,0.0,0.0,0.0,0.0,0.0,0.0,0.0,0.0,0.0,0.0,0.0,0.0,0.0,0.0,0.0,0.0,0.0,0.0,0.0,0.0,0.0,0.0,0.0,0.0,0.0,-6.1493,-6.0416,-5.9727,-5.9488,-5.8411,-5.7543,-5.6915,-5.6915,-5.6555,-5.5897,-5.5239,-5.497,-5.491,-5.3982,-5.4196,-5.5359,-5.5525,-5.6303,-5.7253,-5.7729,-5.8186,-5.8592,-5.8592,-5.8592,-5.8592,-5.8592,-5.8287,-5.7881,-5.7881,-5.7881,-5.7881,-5.7881,-5.7881,-5.7881,-5.7881,-5.822,-5.849,-5.8017,-5.9288,-6.0557,-6.0001,-6.196,-6.3799,-6.3288,-6.3423,-6.3759,-6.4273,-6.3943,-6.3759,-6.4273,-6.3943,-6.3613,-6.3613,-6.3172,-6.2805,-6.2805,-6.2805,-6.2618,-6.2076,-6.0882,-5.9558,-5.8203,-5.7611,-5.6688,-5.5094,-5.6004,-5.6331,-5.574,-5.6443,-5.645,-5.5682,-5.645,-5.6494,-5.5686,-5.6295,-5.6685,-5.6912,-5.7202,-5.7546,-3.6358,-3.7462,-3.8693,0.0,0.0,0.0,0.0,0.0,0.0,0.0,0.0,0.0,0.0,0.0,0.0,0.0,0.0,0.0,0.0,0.0,0.0,0.0,0.0,0.0,0.0,0.0,0.0,0.0,0.0,0.0,0.0,0.0,0.0,0.0,-5.9368,-5.859,-5.8171,-5.7274,-5.6496,-5.5867,-5.5658,-5.5329,-5.485,-5.4192,-5.3892,-5.3832,-5.2935,-5.3125,-5.3982,-5.4876,-5.5962,-5.711,-5.7289,-5.7992,-5.8998,-5.8761,-5.866,-5.866,-5.866,-5.8321,-5.7881,-5.7881,-5.7881,-5.7881,-5.7881,-5.8051,-5.8254,-5.8254,-5.8795,-5.9235,-5.8727,-6.022,-6.1903,-6.1615,-6.3454,-6.5154,-6.4604,-6.4494,-6.464,-6.5191,-6.4861,-6.464,-6.5228,-6.4861,-6.4494,-6.4494,-6.3759,-6.3209,-6.3209,-6.2989,-6.2515,-6.1715,-6.0612,-5.9443,-5.8158,-5.7535,-5.6493,-5.4741,-5.5077,-5.5364,-5.532,-5.6095,-5.6259,-5.5724,-5.6259,-5.6257,-5.5672,-5.5716,-5.6253,-5.7263,-5.7025,-5.7556,-3.6358,-3.7161,0.0,0.0,0.0,0.0,0.0,0.0,0.0,0.0,0.0,0.0,0.0,0.0,0.0,0.0,0.0,0.0,0.0,0.0,0.0,0.0,0.0,0.0,0.0,0.0,0.0,0.0,0.0,0.0,0.0,0.0,0.0,0.0,-5.8441,-5.7483,-5.6166,-5.6137,-5.5807,-5.5149,-5.4521,-5.4192,-5.4192,-5.3503,-5.3174,-5.3084,-5.1798,-5.2183,-5.3951,-5.4369,-5.6315,-5.8747,-5.6923,-5.732,-5.893,-5.8186,-5.7915,-5.7915,-5.7915,-5.7881,-5.7881,-5.7881,-5.7881,-5.7881,-5.7881,-5.8423,-5.8998,-5.9032,-5.9539,-6.0114,-6.0114,-6.1398,-6.2951,-6.3775,-6.4658,-6.5338,-6.5301,-6.5301,-6.5301,-6.5338,-6.5301,-6.5249,-6.5286,-6.5338,-6.5338,-6.5301,-6.4604,-6.409,-6.409,-6.3356,-6.2515,-6.1659,-6.1604,-6.0617,-5.8203,-5.8002,-5.7017,-5.4736,-5.46,-5.4599,-5.4579,-5.532,-5.5724,-5.5667,-5.5724,-5.5707,-5.5686,-5.5707,-5.6538,-5.806,-5.7263,-5.8173,-3.6458,-3.7161,0.0,0.0,0.0,0.0,0.0,0.0,0.0,0.0,0.0,0.0,0.0,0.0,0.0,0.0,0.0,0.0,0.0,0.0,0.0,0.0,0.0,0.0,0.0,0.0,0.0,0.0,0.0,0.0,0.0,0.0,0.0,0.0,-5.6645,-5.5867,-5.5478,-5.4551,-5.3982,-5.3773,-5.3563,-5.3743,-5.4162,-5.3025,-5.2486,-5.2456,-5.1588,-5.1506,-5.2092,-5.2993,-5.4348,-5.5944,-5.6113,-5.6933,-5.7908,-5.8504,-5.8693,-5.8693,-5.8693,-5.8321,-5.7881,-5.7881,-5.7881,-5.7881,-5.7881,-5.8051,-5.8321,-5.8863,-5.9539,-6.0367,-6.1551,-6.261,-6.3343,-6.3137,-6.5084,-6.6843,-6.6256,-6.5223,-6.469,-6.5851,-6.4626,-6.3836,-6.4911,-6.5118,-6.498,-6.438,-6.4217,-6.387,-6.3282,-6.247,-6.1659,-6.082,-6.0176,-5.9129,-5.7293,-5.7155,-5.6403,-5.4668,-5.46,-5.4364,-5.3883,-5.4544,-5.4634,-5.4171,-5.5189,-5.5444,-5.494,-5.5414,-5.6507,-5.8096,-5.7868,-5.8682,-3.6889,0.0,0.0,0.0,0.0,0.0,0.0,0.0,0.0,0.0,0.0,0.0,0.0,0.0,0.0,0.0,0.0,0.0,0.0,0.0,0.0,0.0,0.0,0.0,0.0,0.0,0.0,0.0,0.0,0.0,0.0,0.0,0.0,0.0,-5.5598,-5.494,-5.4401,-5.3593,-5.3174,-5.3174,-5.2905,-5.2995,-5.3384,-5.2576,-5.2067,-5.1798,-5.1379,-5.1479,-5.188,-5.2154,-5.3584,-5.575,-5.5588,-5.6586,-5.8063,-5.8437,-5.8558,-5.8558,-5.8558,-5.8254,-5.7881,-5.7881,-5.7881,-5.7881,-5.7881,-5.8084,-5.849,-5.9235,-6.0013,-6.0876,-6.2158,-6.3117,-6.3691,-6.3635,-6.4936,-6.625,-6.6425,-6.5416,-6.4932,-6.6598,-6.5728,-6.4867,-6.5514,-6.5619,-6.5493,-6.502,-6.4746,-6.4163,-6.2952,-6.2376,-6.177,-6.0938,-6.0423,-5.9429,-5.7808,-5.805,-5.7602,-5.6064,-5.6294,-5.6146,-5.5421,-5.4883,-5.4527,-5.4363,-5.5279,-5.5654,-5.548,-5.5928,-5.6978,-5.8492,-5.8199,-5.9143,0.0,0.0,0.0,0.0,0.0,0.0,0.0,0.0,0.0,0.0,0.0,0.0,0.0,0.0,0.0,0.0,0.0,0.0,0.0,0.0,0.0,0.0,0.0,0.0,0.0,0.0,0.0,0.0,0.0,0.0,0.0,0.0,0.0,-5.5059,-5.494,-5.4311,-5.3025,-5.2935,-5.2875,0.0,-5.2276,-5.2007,-5.1947,-5.2067,-5.1798,-5.1229,-5.1229,-5.1819,-5.2634,-5.1635,-5.3539,-5.6839,-5.526,-5.6315,-5.868,-5.8152,-5.7881,-5.7881,-5.7881,-5.7881,-5.7881,-5.7881,-5.7881,-5.7881,-5.7881,-5.8355,-5.9066,-5.981,-6.052,-6.1264,-6.2076,-6.2836,-6.3583,-6.4494,-6.4402,-6.4536,-6.5995,-6.5682,-6.5533,-6.7085,-6.725,-6.6939,-6.6281,-6.6279,-6.6386,-6.6402,-6.5632,-6.453,-6.3025,-6.2805,-6.2515,-6.1715,-6.1604,-6.0961,-5.9377,-5.996,-5.9769,-5.8233,-5.8862,-5.9005,-5.8296,-5.6111,-5.5247,-5.5927,-5.6029,-5.6403,-5.7049,-5.715,-5.7955,-5.9342,-5.8703,-5.9581,0.0,0.0,0.0,0.0,0.0,0.0,0.0,0.0,0.0,0.0,0.0,0.0,0.0,0.0,0.0,0.0,0.0,0.0,0.0,0.0,0.0,0.0,0.0,0.0,0.0,0.0,0.0,0.0,0.0,0.0,0.0,0.0,0.0,-5.3653,-5.3114,-5.2456,-5.1648,-5.1139,-5.0631,0.0,-5.0481,-5.0391,-4.9942,-5.096,-5.1349,-5.1229,-5.1229,-5.1293,-5.1572,-5.1293,-5.2215,-5.3962,-5.4401,-5.5507,-5.6934,-5.7621,-5.7881,-5.7881,-5.7881,-5.7881,-5.7881,-5.7881,-5.7881,-5.7881,-5.7881,-5.8017,-5.8287,-5.9032,-5.937,-5.981,-6.1197,-6.1215,-6.1204,-6.2624,-6.4458,-6.579,-6.5501,-6.4793,-6.4286,-6.4653,-6.3618,-6.2912,-6.3334,-6.4501,-6.5456,-6.5527,-6.431,-6.3209,-6.2879,-6.2805,-6.2515,-6.1715,-6.1604,-6.1171,-6.0211,-6.0273,-6.0017,-5.9117,-5.9168,-5.9218,-5.9076,-5.8033,-5.7535,-5.7675,-5.8211,-5.8597,-5.8737,-5.9382,-6.0104,-6.1019,-6.0927,-6.1444,0.0,0.0,0.0,0.0,0.0,0.0,0.0,0.0,0.0,0.0,0.0,0.0,0.0,0.0,0.0,0.0,0.0,0.0,0.0,0.0,0.0,0.0,0.0,0.0,0.0,0.0,0.0,0.0,0.0,0.0,0.0,-5.4581,-5.3773,-5.2725,-5.2067,-5.1409,-5.075,-5.0092,-4.9613,-4.9254,-4.9613,-4.9583,-4.9284,-5.0301,-5.093,-5.1229,-5.1229,-5.1229,-5.1199,-5.1819,-5.2664,-5.3828,-5.4888,-5.6047,-5.7114,-5.7701,-5.7881,-5.7881,-5.7881,-5.7881,-5.7881,-5.7881,-5.7881,-5.7881,-5.7881,-5.7881,-5.8051,-5.8795,-5.9032,-5.9268,-6.0419,-6.0419,-6.0283,-6.1095,-6.2358,-6.3612,-6.4326,-6.3569,-6.3115,-6.4242,-6.3484,-6.2797,-6.3208,-6.4347,-6.5241,-6.5322,-6.4567,-6.387,-6.3466,-6.3062,-6.2618,-6.2219,-6.2129,-6.186,-6.1055,-6.1322,-6.1199,-6.0483,-6.0732,-6.099,-6.099,-6.0593,-6.0044,-5.9289,-5.9618,-5.9795,-5.9795,-6.0998,-6.1569,-6.1628,-6.1975,-6.2404,0.0,0.0,0.0,0.0,0.0,0.0,0.0,0.0,0.0,0.0,0.0,0.0,0.0,0.0,0.0,0.0,0.0,0.0,0.0,0.0,0.0,0.0,0.0,0.0,0.0,0.0,0.0,0.0,0.0,0.0,-5.467,-5.3623,-5.2665,-5.1887,-5.1319,-5.069,-4.9912,-4.9374,-4.9045,-4.8925,-4.8925,-4.9045,-4.9284,-4.9703,-5.0331,-5.105,-5.105,-5.105,-5.1113,-5.2088,-5.3224,-5.4402,-5.5581,-5.6621,-5.7543,-5.7814,-5.7814,-5.7712,-5.7848,-5.7881,-5.7881,-5.7881,-5.7881,-5.7881,-5.7881,-5.7881,-5.8017,-5.866,-5.8829,-5.8998,-5.9708,-5.981,-5.9776,-6.0047,-6.0013,-6.0585,-6.2983,-6.2541,-6.2296,-6.4302,-6.4324,-6.409,-6.4281,-6.4971,-6.5521,-6.5521,-6.5264,-6.4861,-6.42,-6.3356,-6.2805,-6.2805,-6.2805,-6.2515,-6.1824,-6.2412,-6.2515,-6.1824,-6.2427,-6.2805,-6.2805,-6.2805,-6.2166,-6.082,-6.082,-6.082,-6.082,-6.214,-6.2465,-6.1843,-6.2465,-6.2855,0.0,0.0,0.0,0.0,0.0,0.0,0.0,0.0,0.0,0.0,0.0,0.0,0.0,0.0,0.0,0.0,0.0,0.0,0.0,0.0,0.0,0.0,0.0,0.0,0.0,0.0,0.0,0.0,0.0,0.0,-5.2509,-5.2426,-5.1768,-5.0541,-5.0421,-4.9793,-4.8566,-4.8446,-4.8117,-4.7578,-4.7578,-4.8177,-4.9254,-4.8775,-4.9194,-5.0361,-5.0361,-5.0361,-5.0393,-5.0892,-5.178,-5.2958,-5.4632,-5.5555,-5.6156,-5.7408,-5.7476,-5.7036,-5.7679,-5.7881,-5.7881,-5.7881,-5.7881,-5.7881,-5.7881,-5.7881,-5.7915,-5.8017,-5.8051,-5.822,-5.8964,-5.866,-5.8524,-5.981,-5.9607,-5.9837,-6.226,-6.2541,-6.2579,-6.2946,-6.3513,-6.4271,-6.5014,-6.5815,-6.6329,-6.6329,-6.5154,-6.42,-6.409,-6.3356,-6.2805,-6.2805,-6.2805,-6.2755,-6.2654,-6.2755,-6.2755,-6.2654,-6.2755,-6.2805,-6.2805,-6.2805,-6.2705,-6.2464,-6.2464,-6.2464,-6.2464,-6.2676,-6.2713,-6.261,-6.275,-6.3203,0.0,0.0,0.0,0.0,0.0,0.0,0.0,0.0,0.0,0.0,0.0,0.0,0.0,0.0,0.0,0.0,0.0,0.0,0.0,0.0,0.0,0.0,0.0,0.0,0.0,0.0,0.0,0.0,0.0,-5.1128,-5.2121,-5.1498,-5.084,-5.0242,-4.9523,-4.8865,-4.8297,-4.7908,-4.7578,-4.7309,-4.7309,-4.7608,-4.8177,-4.8237,-4.8805,-4.9703,-4.9703,-4.9703,-4.9824,-5.1149,-5.2073,-5.2669,-5.4684,-5.5526,-5.5852,-5.69,-5.707,-5.69,-5.7645,-5.7881,-5.7881,-5.7881,-5.7881,-5.7881,-5.7881,-5.7881,-5.7881,-5.7881,-5.7881,-5.7949,-5.8287,-5.8118,-5.8152,-5.9235,-5.9268,-5.9451,-6.0882,-6.1252,-6.1427,-6.1961,-6.2763,-6.3763,-6.5066,-6.5595,-6.6145,-6.7026,-6.6182,-6.5448,-6.5448,-6.431,-6.3539,-6.3539,-6.3099,-6.2805,-6.2805,-6.2805,-6.2805,-6.2805,-6.2805,-6.2805,-6.2805,-6.2805,-6.2805,-6.2805,-6.2805,-6.2805,-6.2805,-6.3759,-6.42,-6.4237,-6.4677,-6.5081,0.0,0.0,0.0,0.0,0.0,0.0,0.0,0.0,0.0,0.0,0.0,0.0,0.0,0.0,0.0,0.0,0.0,0.0,0.0,0.0,0.0,0.0,0.0,0.0,0.0,0.0,0.0,0.0,0.0,-5.103,-5.1439,-5.0511,-4.9912,-4.9733,-4.8805,-4.8207,-4.8027,-4.7549,-4.7309,-4.7309,-4.7309,-4.7309,-4.7309,-4.7818,-4.8297,-4.8775,-4.8955,-4.9164,-4.9577,-5.1222,-5.2091,-5.2514,-5.4639,-5.531,-5.5277,-5.619,-5.6393,-5.6359,-5.7306,-5.7611,-5.7645,-5.7814,-5.7746,-5.7645,-5.7814,-5.7746,-5.7645,-5.7848,-5.7881,-5.7881,-5.7881,-5.7881,-5.8017,-5.8592,-5.8727,-5.893,-5.9674,-6.0035,-6.0517,-6.114,-6.2114,-6.3262,-6.4736,-6.5338,-6.5999,-6.721,-6.6696,-6.6219,-6.6219,-6.4787,-6.3759,-6.3759,-6.3209,-6.2805,-6.2805,-6.2805,-6.2805,-6.2805,-6.2805,-6.2805,-6.2805,-6.2805,-6.2915,-6.3135,-6.3135,-6.3135,-6.3135,-6.4604,-6.5301,-6.5301,-6.5925,-6.6292,0.0,0.0,0.0,0.0,0.0,0.0,0.0,0.0,0.0,0.0,0.0,0.0,0.0,0.0,0.0,0.0,0.0,0.0,0.0,0.0,0.0,0.0,0.0,0.0,0.0,0.0,0.0,0.0,0.0,-4.8027,-4.9404,-4.9344,-4.9045,-4.8416,-4.8327,-4.7997,-4.7369,-4.7309,-4.7309,-4.7309,-4.7309,-4.7309,-4.7309,-4.7339,-4.7369,-4.7429,-4.8057,-4.888,-4.9863,-5.0311,-5.1027,-5.2086,-5.395,-5.4228,-5.3788,-5.5243,-5.531,-5.4905,-5.6359,-5.6867,-5.6968,-5.7679,-5.7408,-5.7002,-5.7679,-5.7408,-5.7002,-5.7679,-5.7881,-5.7881,-5.7881,-5.7881,-5.7915,-5.7949,-5.7949,-5.8152,-5.8896,-5.9693,-6.0317,-6.045,-6.1722,-6.3075,-6.4024,-6.5411,-6.6476,-6.6549,-6.5888,-6.5375,-6.5375,-6.3906,-6.2879,-6.2879,-6.2842,-6.2805,-6.2805,-6.2805,-6.2805,-6.2805,-6.2805,-6.2805,-6.2805,-6.2805,-6.3209,-6.4016,-6.4016,-6.4016,-6.4016,-6.4897,-6.5301,-6.5301,-6.5338,-6.5778,0.0,0.0,0.0,0.0,0.0,0.0,0.0,0.0,0.0,0.0,0.0,0.0,0.0,0.0,0.0,0.0,0.0,0.0,0.0,0.0,0.0,0.0,0.0,0.0,0.0,0.0,0.0,0.0,0.0,0.0,-4.9254,-4.8865,-4.8536,-4.8297,-4.7878,-4.7549,-4.7309,-4.7309,-4.7309,-4.7309,-4.7309,-4.7309,-4.7309,-4.7309,-4.7309,-4.7309,-4.7549,-4.8183,-4.9264,-5.0026,-5.1005,-5.2026,-5.3379,-5.3721,-5.3619,-5.4634,-5.4837,-5.4735,-5.575,-5.6393,-5.6833,-5.7103,-5.7036,-5.6934,-5.7679,-5.7374,-5.6934,-5.7679,-5.7881,-5.7881,-5.7881,-5.7881,-5.7881,-5.7881,-5.7881,-5.8095,-5.8907,-5.9728,-6.0564,-6.1068,-6.2078,-6.3085,-6.3929,-6.4567,-6.5118,-6.5668,-6.5485,-6.5301,-6.5301,-6.4347,-6.3613,-6.3613,-6.3135,-6.2805,-6.2805,-6.2805,-6.2805,-6.2805,-6.2805,-6.3062,-6.3613,-6.3613,-6.4016,-6.4861,-6.5375,-6.5375,-6.4861,-6.5668,-6.6072,-6.6072,-6.6586,-6.699,-2.8984,0.0,0.0,0.0,0.0,0.0,0.0,0.0,0.0,0.0,0.0,0.0,0.0,0.0,0.0,0.0,0.0,0.0,0.0,0.0,0.0,0.0,0.0,0.0,0.0,0.0,0.0,0.0,0.0,0.0,-4.8596,-4.8207,-4.7967,-4.7967,-4.7549,-4.7309,-4.7309,-4.7309,-4.7309,-4.7309,-4.7309,-4.7309,-4.7309,-4.7309,-4.7309,-4.7309,-4.7309,-4.7819,-4.8891,-4.9931,-5.1005,-5.1993,-5.311,-5.3518,-5.3551,-5.4059,-5.4228,-5.4363,-5.5378,-5.6021,-5.6461,-5.6731,-5.6799,-5.69,-5.7374,-5.7171,-5.6934,-5.7679,-5.7881,-5.7881,-5.7881,-5.8084,-5.8321,-5.8558,-5.8885,-5.9213,-5.946,-5.9748,-6.0273,-6.14,-6.2023,-6.2771,-6.3892,-6.431,-6.4677,-6.5228,-6.5301,-6.5191,-6.4934,-6.4163,-6.3649,-6.3649,-6.3172,-6.2805,-6.2805,-6.2805,-6.2805,-6.2805,-6.2805,-6.3209,-6.4053,-6.409,-6.4604,-6.5705,-6.6219,-6.6366,-6.6109,-6.6623,-6.688,-6.6916,-6.743,-6.7687,0.0,0.0,0.0,0.0,0.0,0.0,0.0,0.0,0.0,0.0,0.0,0.0,0.0,0.0,0.0,0.0,0.0,0.0,0.0,0.0,0.0,0.0,0.0,0.0,0.0,0.0,0.0,0.0,0.0,-4.7309,-4.7309,-4.7309,-4.7309,-4.7309,-4.7309,-4.7309,-4.7279,-4.7309,-4.7309,-4.7279,-4.7309,-4.7309,-4.7309,-4.7309,-4.7309,-4.7309,-4.7309,-4.7849,-4.8841,-4.9931,-5.1005,-5.1993,-5.311,-5.3518,-5.3518,-5.3518,-5.3518,-5.3721,-5.5141,-5.5683,-5.5818,-5.6494,-5.6731,-5.6731,-5.6799,-5.6799,-5.6934,-5.7679,-5.7881,-5.7881,-5.7915,-5.8457,-5.9201,-5.9911,-6.0789,-6.1259,-6.0497,-5.9734,-5.9674,-6.1322,-6.164,-6.2241,-6.3877,-6.4787,-6.5301,-6.5264,-6.5264,-6.4971,-6.4163,-6.3319,-6.2805,-6.2805,-6.2805,-6.2805,-6.2805,-6.2805,-6.2805,-6.2805,-6.2805,-6.3209,-6.409,-6.4127,-6.4897,-6.6512,-6.6549,-6.6916,-6.7687,-6.7687,-6.7687,-6.7687,-6.7724,-6.7724,-2.8301,0.0,0.0,0.0,0.0,0.0,0.0,0.0,0.0,0.0,0.0,0.0,0.0,0.0,0.0,0.0,0.0,0.0,0.0,0.0,0.0,0.0,0.0,0.0,0.0,0.0,0.0,0.0,-4.5869,-4.7309,-4.7309,-4.7309,-4.7309,-4.7309,-4.7309,-4.707,-4.6591,-4.707,-4.707,-4.6591,-4.707,-4.7309,-4.7309,-4.7309,-4.7309,-4.7309,-4.7309,-4.7452,-4.7849,-4.9615,-5.1005,-5.1993,-5.311,-5.3518,-5.3518,-5.3518,-5.3518,-5.3551,-5.3991,-5.4465,-5.4938,-5.5141,-5.5209,-5.5412,-5.6494,-5.6427,-5.6292,-5.7543,-5.7881,-5.8017,-5.8558,-5.8863,-5.9201,-5.9911,-6.0306,-6.0758,-6.1765,-6.1882,-6.1884,-6.2371,-6.3457,-6.4433,-6.4882,-6.5154,-6.5118,-6.453,-6.442,-6.4127,-6.3282,-6.2952,-6.2805,-6.2805,-6.2805,-6.2805,-6.2805,-6.2805,-6.2805,-6.2805,-6.2805,-6.3466,-6.4897,-6.4971,-6.5705,-6.732,-6.7357,-6.7467,-6.7687,-6.7687,-6.7687,-6.7687,-6.8311,-6.8568,-2.7988,-2.8027,0.0,0.0,0.0,0.0,-3.5105,-3.6528,0.0,0.0,0.0,0.0,0.0,0.0,0.0,0.0,0.0,0.0,0.0,0.0,0.0,0.0,0.0,0.0,0.0,0.0,0.0,-4.3504,-4.5869,-4.7309,-4.7309,-4.7309,-4.7309,-4.7309,-4.704,-4.6711,-4.6322,-4.6411,-4.6411,-4.6322,-4.6711,-4.704,-4.7309,-4.7309,-4.7309,-4.7309,-4.7309,-4.7309,-4.7452,-4.9085,-5.032,-5.1377,-5.287,-5.3518,-5.3518,-5.3518,-5.3518,-5.3551,-5.3856,-5.4228,-5.46,-5.46,-5.4803,-5.5209,-5.6089,-5.6258,-5.6393,-5.7577,-5.8118,-5.8524,-5.9268,-5.9708,-6.0148,-6.0892,-6.1299,-6.183,-6.247,-6.3181,-6.3716,-6.3836,-6.433,-6.4931,-6.5689,-6.5477,-6.5186,-6.5102,-6.4824,-6.431,-6.3466,-6.3025,-6.2805,-6.2805,-6.2805,-6.2805,-6.2805,-6.2805,-6.2805,-6.2805,-6.2805,-6.3576,-6.5228,-6.5301,-6.6072,-6.765,-6.7687,-6.7687,-6.7687,-6.7687,-6.7687,-6.7724,-6.8531,-6.8715,-2.748,-2.7637,-2.8252,0.0,0.0,0.0,-3.4346,-3.5137,-3.5737,0.0,0.0,0.0,0.0,0.0,0.0,0.0,0.0,0.0,0.0,0.0,0.0,0.0,0.0,0.0,0.0,-4.1985,-4.3504,-4.3504,-4.5869,-4.7279,-4.7189,-4.7189,-4.716,-4.707,-4.6501,-4.6172,-4.6112,-4.5574,-4.5574,-4.6112,-4.6172,-4.6561,-4.7189,-4.7189,-4.7249,-4.7309,-4.7309,-4.7309,-4.7396,-4.8377,-4.9456,-5.055,-5.2557,-5.3416,-5.3518,-5.3518,-5.3518,-5.3585,-5.4262,-5.4465,-5.4465,-5.4465,-5.4938,-5.5513,-5.5683,-5.6156,-5.6867,-5.7645,-5.8355,-5.9066,-5.9877,-6.0622,-6.1366,-6.2178,-6.2973,-6.3401,-6.2781,-6.3798,-6.4934,-6.5204,-6.4561,-6.4571,-6.6171,-6.582,-6.5388,-6.5971,-6.5637,-6.4919,-6.3951,-6.3232,-6.2805,-6.2805,-6.2805,-6.2805,-6.2805,-6.2805,-6.2805,-6.2805,-6.2805,-6.3576,-6.5228,-6.5301,-6.6072,-6.765,-6.7687,-6.7687,-6.7687,-6.7687,-6.7724,-6.7834,-6.8568,-6.8568,0.0,0.0,0.0,0.0,0.0,0.0,-3.2347,-3.403,-3.5326,0.0,0.0,0.0,0.0,0.0,0.0,0.0,0.0,0.0,0.0,0.0,0.0,0.0,0.0,0.0,0.0,-4.1985,-4.3504,-4.3504,-4.5869,-4.707,-4.6531,-4.6531,-4.6262,-4.5693,-4.5574,-4.5244,-4.4706,-4.5095,-4.5095,-4.4706,-4.5244,-4.5843,-4.6531,-4.6531,-4.68,-4.7309,-4.7309,-4.7309,-4.7396,-4.8377,-4.9456,-5.055,-5.1776,-5.2731,-5.3518,-5.3518,-5.3518,-5.3518,-5.3653,-5.3721,-5.3721,-5.3721,-5.3822,-5.416,-5.5344,-5.5818,-5.619,-5.7509,-5.7983,-5.8423,-5.9742,-6.0216,-6.0689,-6.2042,-6.2537,-6.2821,-6.3328,-6.3724,-6.4148,-6.487,-6.4863,-6.5126,-6.627,-6.627,-6.5502,-6.3689,-6.4472,-6.4506,-6.235,-6.2485,-6.2805,-6.2805,-6.2805,-6.2805,-6.2805,-6.2805,-6.2805,-6.2805,-6.2805,-6.3576,-6.5228,-6.5301,-6.6072,-6.765,-6.7687,-6.7687,-6.7687,-6.7687,-6.8017,-6.8678,-6.8825,-6.9155,0.0,0.0,0.0,-2.8511,0.0,0.0,0.0,-3.1426,-3.2575,-3.2861,0.0,0.0,0.0,0.0,0.0,0.0,0.0,0.0,0.0,0.0,0.0,0.0,0.0,0.0,0.0,-4.1419,-4.3122,-4.4349,-4.5873,-4.6681,-4.6352,-4.5992,-4.5663,-4.5304,-4.4975,-4.4646,-4.4317,-4.4317,-4.4317,-4.4317,-4.4646,-4.5155,-4.5813,-4.5813,-4.5992,-4.6322,-4.6681,-4.6621,-4.6352,-4.7546,-4.8786,-5.0037,-5.1394,-5.2557,-5.3518,-5.3518,-5.3518,-5.3518,-5.3518,-5.3518,-5.3518,-5.3518,-5.3518,-5.3788,-5.5277,-5.6224,-5.6934,-5.7679,-5.8152,-5.8626,-5.937,-5.981,-6.0283,-6.1061,-6.1231,-6.1384,-6.1844,-6.1884,-6.2144,-6.31,-6.2858,-6.3136,-6.4848,-6.4792,-6.4273,-6.3438,-6.4043,-6.4185,-6.2983,-6.2823,-6.2805,-6.2805,-6.2805,-6.2805,-6.2805,-6.2805,-6.2805,-6.2805,-6.3209,-6.4016,-6.5264,-6.5705,-6.6476,-6.765,-6.8091,-6.8311,-6.8311,-6.8678,-6.8898,-6.8898,-6.9302,-6.9706,0.0,0.0,0.0,0.0,0.0,-2.8828,0.0,0.0,0.0,-3.134,0.0,0.0,0.0,0.0,0.0,0.0,0.0,0.0,0.0,0.0,0.0,0.0,0.0,0.0,0.0,-4.0508,-4.2289,-4.4834,-4.5318,-4.5513,-4.5565,-4.503,-4.459,-4.4305,-4.4132,-4.3864,-4.3425,-4.3328,-4.3439,-4.3783,-4.4026,-4.4466,-4.5095,-4.5095,-4.5185,-4.5334,-4.5873,-4.5813,-4.5394,-4.6621,-4.7855,-4.9222,-5.0936,-5.2416,-5.3518,-5.3518,-5.3518,-5.3518,-5.3518,-5.3518,-5.3518,-5.3518,-5.3687,-5.416,-5.5344,-5.6731,-5.7881,-5.7881,-5.8321,-5.8829,-5.8964,-5.9438,-5.9911,-6.008,-6.0114,-6.0114,-6.0114,-6.0114,-6.0306,-6.1114,-6.054,-6.0711,-6.3263,-6.31,-6.282,-6.3403,-6.3716,-6.3796,-6.3649,-6.3108,-6.2805,-6.2805,-6.2805,-6.2805,-6.2805,-6.2952,-6.3062,-6.3062,-6.387,-6.4677,-6.5521,-6.6292,-6.7026,-6.7687,-6.8348,-6.8752,-6.8898,-6.9559,-6.9596,-6.9155,-6.9816,-7.0183,0.0,0.0,0.0,0.0,-2.831,0.0,0.0,0.0,-3.0049,-2.9759,0.0,0.0,0.0,0.0,0.0,0.0,0.0,0.0,0.0,0.0,0.0,0.0,0.0,0.0,0.0,0.0,-4.1137,-4.3631,-4.2899,-4.2527,-4.2967,-4.2936,-4.2138,-4.0541,-4.2368,-4.2421,-4.043,-4.2333,-4.285,-4.1951,-4.2909,-4.3778,-4.4436,-4.4436,-4.4736,-4.5304,-4.5364,-4.5364,-4.5364,-4.6112,-4.7076,-4.8168,-4.9878,-5.1809,-5.3518,-5.3518,-5.3518,-5.3518,-5.3518,-5.3518,-5.3518,-5.3518,-5.4397,-5.5513,-5.5683,-5.6731,-5.7881,-5.7881,-5.7949,-5.8186,-5.8829,-5.9066,-5.9302,-5.9945,-6.0114,-6.0114,-6.0114,-6.0114,-6.008,-6.0231,-5.9648,-5.9911,-6.2299,-6.2717,-6.2369,-6.1813,-6.2951,-6.3408,-6.204,-6.2449,-6.2805,-6.2805,-6.2805,-6.2805,-6.2805,-6.3503,-6.3943,-6.3943,-6.4714,-6.5521,-6.6329,-6.7136,-6.7614,-6.7687,-6.7797,-6.8201,-6.8898,-6.9009,-6.9376,-6.9963,-7.0073,-7.0477,0.0,0.0,0.0,0.0,0.0,0.0,0.0,0.0,-2.7714,0.0,0.0,0.0,0.0,0.0,0.0,0.0,-3.4324,0.0,0.0,0.0,0.0,0.0,0.0,0.0,0.0,0.0,0.0,0.0,-4.1128,-4.1235,-4.1141,-4.1027,-4.0684,-3.9913,-4.0831,-4.0831,-3.9913,-4.1532,-4.2111,-4.1587,-4.2739,-4.3479,-4.3748,-4.3748,-4.3898,-4.4167,-4.4556,-4.4496,-4.4257,-4.5723,-4.6689,-4.748,-4.9596,-5.1336,-5.2627,-5.328,-5.3518,-5.3518,-5.3518,-5.3518,-5.3518,-5.3518,-5.4499,-5.5716,-5.5716,-5.6731,-5.7881,-5.7881,-5.7881,-5.7949,-5.8287,-5.8355,-5.8457,-5.8761,-5.8829,-5.8829,-5.8829,-5.92,-5.949,-5.949,-5.9702,-6.0314,-6.1695,-6.1568,-6.129,-6.1459,-6.2475,-6.298,-6.2364,-6.2567,-6.2805,-6.2805,-6.3246,-6.3539,-6.3539,-6.431,-6.4787,-6.4787,-6.5558,-6.6366,-6.7136,-6.7504,-6.7687,-6.7687,-6.8605,-6.9265,-6.9596,-7.055,-7.1174,-7.1468,-7.1027,-7.1248,-2.7305,0.0,0.0,0.0,0.0,0.0,0.0,0.0,0.0,0.0,0.0,0.0,0.0,0.0,0.0,0.0,0.0,-3.2723,0.0,0.0,0.0,0.0,0.0,0.0,0.0,0.0,0.0,0.0,0.0,-3.921,-3.9262,-3.9202,-3.9108,-3.8917,-3.9536,-3.9536,-3.8944,-4.0404,-4.1169,-4.1169,-4.2304,-4.2981,-4.3329,-4.3329,-4.3329,-4.3359,-4.3838,-4.3778,-4.3449,-4.5095,-4.604,-4.6713,-4.917,-5.0661,-5.1631,-5.3041,-5.3518,-5.3518,-5.3518,-5.3518,-5.3518,-5.3518,-5.4363,-5.5412,-5.5412,-5.6427,-5.7577,-5.7577,-5.7712,-5.7881,-5.7881,-5.7881,-5.7881,-5.7881,-5.7881,-5.7954,-5.8209,-5.8668,-5.9178,-5.9443,-5.996,-6.0635,-6.1387,-6.1043,-6.0844,-6.1449,-6.2227,-6.2618,-6.2485,-6.2888,-6.3172,-6.3172,-6.3906,-6.442,-6.442,-6.5191,-6.5742,-6.5925,-6.6512,-6.71,-6.765,-6.7687,-6.7797,-6.8017,-6.9192,-7.0,-7.044,-7.1615,-7.2275,-7.2496,-7.1908,-7.1945,0.0,0.0,0.0,-2.7226,0.0,0.0,0.0,0.0,-2.6626,0.0,0.0,0.0,0.0,0.0,-3.0285,-3.2533,-3.1574,0.0,0.0,0.0,0.0,0.0,0.0,0.0,0.0,0.0,0.0,0.0,0.0,0.0,-3.7325,-3.7352,-3.7104,-3.6521,-3.8765,-3.8854,-3.6546,-3.8827,-3.9972,-4.0,-4.1085,-4.2193,-4.3329,-4.3329,-4.3329,-4.3329,-4.3359,-4.3359,-4.3389,-4.4077,-4.4736,-4.5582,-4.8401,-4.9865,-5.0703,-5.2731,-5.3518,-5.3518,-5.3518,-5.3518,-5.3518,-5.3518,-5.4025,-5.4634,-5.4634,-5.5649,-5.6833,-5.6833,-5.734,-5.7881,-5.7881,-5.7881,-5.7881,-5.7881,-5.7881,-5.8137,-5.8875,-5.9044,-5.9377,-6.0211,-6.0335,-6.064,-6.1436,-6.1521,-6.1467,-6.153,-6.22,-6.2449,-6.1768,-6.3053,-6.4053,-6.4053,-6.4787,-6.5264,-6.5264,-6.5999,-6.6769,-6.7577,-6.765,-6.765,-6.7687,-6.7687,-6.8054,-6.8862,-6.8898,-6.9706,-7.1284,-7.1321,-7.1762,-7.2496,-7.2459,-7.2496,0.0,0.0,-2.8164,-2.7578,0.0,0.0,0.0,0.0,0.0,0.0,0.0,0.0,0.0,0.0,-2.9691,-3.0399,-3.0197,-3.0143,0.0,-3.1215,-3.1587,0.0,0.0,0.0,0.0,0.0,0.0,0.0,0.0,0.0,0.0,-3.5737,-3.6065,-3.5805,-3.697,-3.715,-3.6452,-3.7952,-3.8878,-3.9277,-4.0376,-4.158,-4.2671,-4.2671,-4.291,-4.3329,-4.3329,-4.3329,-4.3389,-4.4047,-4.4706,-4.5582,-4.8369,-4.9833,-5.0627,-5.2731,-5.3518,-5.3518,-5.3518,-5.3518,-5.3518,-5.3518,-5.3991,-5.46,-5.46,-5.5277,-5.619,-5.6664,-5.6968,-5.7273,-5.7746,-5.7881,-5.7881,-5.7881,-5.7881,-5.7954,-5.8246,-5.9212,-6.0023,-6.0335,-6.082,-6.1286,-6.1548,-6.1152,-6.1152,-6.2204,-6.2112,-6.2095,-6.236,-6.3387,-6.409,-6.409,-6.5301,-6.6109,-6.6109,-6.6843,-6.7393,-6.765,-6.7687,-6.7687,-6.7687,-6.7687,-6.8091,-6.8898,-6.9412,-7.022,-7.1321,-7.1835,-7.2239,-7.2496,-7.3046,-7.301,-2.8555,-2.8633,0.0,-2.8027,-2.7676,0.0,-2.6562,0.0,0.0,0.0,0.0,0.0,0.0,0.0,-2.8172,-2.844,-2.872,-2.9089,0.0,-3.0474,-3.111,0.0,0.0,0.0,0.0,0.0,0.0,0.0,0.0,0.0,0.0,0.0,-3.4851,-3.5228,-3.5604,-3.5941,-3.6376,-3.7078,-3.7994,-3.9145,-3.9886,-4.0908,-4.2013,-4.2013,-4.2372,-4.3,-4.3,-4.312,-4.3359,-4.3778,-4.4496,-4.5552,-4.8085,-4.9609,-5.0627,-5.2731,-5.3518,-5.3518,-5.3518,-5.3518,-5.3518,-5.3518,-5.3822,-5.4194,-5.4194,-5.4735,-5.5513,-5.6528,-5.6799,-5.7036,-5.8017,-5.8084,-5.7881,-5.7881,-5.7881,-5.7954,-5.8246,-5.9212,-6.0023,-6.0335,-6.082,-6.1171,-6.1171,-6.076,-6.076,-6.1806,-6.1715,-6.177,-6.2324,-6.3643,-6.453,-6.453,-6.5962,-6.6916,-6.6916,-6.7393,-6.7687,-6.7687,-6.7687,-6.7834,-6.8091,-6.8128,-6.8752,-7.0146,-7.0403,-7.1064,-7.2165,-7.2386,-7.2496,-7.2496,-7.3046,-7.2856]}]]